<?xml version="1.0" encoding="UTF-8" standalone="no" ?>
<gpx xmlns="http://www.topografix.com/GPX/1/1" xmlns:xsi="http://www.w3.org/2001/XMLSchema-instance" xsi:schemaLocation="http://www.topografix.com/GPX/1/1 http://www.topografix.com/GPX/1/1/gpx.xsd" version="1.1" creator="VisuGPX - https://www.visugpx.com">
  <metadata>
    <name>Puyloubier - Vauvenargues</name>
    <desc><![CDATA[Parcours sans difficultés et roulant (hormis de courts passages).]]></desc>
  </metadata>
  <trk>
    <name><![CDATA[20180922212557-2rjgk]]></name>
    <trkseg>
      <trkpt lat="43.52881" lon="5.69337">
        <ele>376.55</ele>
        <time>2018-09-22T06:09:09Z</time>
      </trkpt>
      <trkpt lat="43.52903" lon="5.69448">
        <ele>386.91</ele>
        <time>2018-09-22T06:10:00Z</time>
      </trkpt>
      <trkpt lat="43.52919" lon="5.69466">
        <ele>393.36</ele>
        <time>2018-09-22T06:10:13Z</time>
      </trkpt>
      <trkpt lat="43.52953" lon="5.6948">
        <ele>396.36</ele>
        <time>2018-09-22T06:10:34Z</time>
      </trkpt>
      <trkpt lat="43.52972" lon="5.69484">
        <ele>401.74</ele>
        <time>2018-09-22T06:10:45Z</time>
      </trkpt>
      <trkpt lat="43.52992" lon="5.69469">
        <ele>402.21</ele>
        <time>2018-09-22T06:10:59Z</time>
      </trkpt>
      <trkpt lat="43.53005" lon="5.69452">
        <ele>397.98</ele>
        <time>2018-09-22T06:11:15Z</time>
      </trkpt>
      <trkpt lat="43.53026" lon="5.69445">
        <ele>403.33</ele>
        <time>2018-09-22T06:11:24Z</time>
      </trkpt>
      <trkpt lat="43.53043" lon="5.69432">
        <ele>404.18</ele>
        <time>2018-09-22T06:11:53Z</time>
      </trkpt>
      <trkpt lat="43.53054" lon="5.69452">
        <ele>406.95</ele>
        <time>2018-09-22T06:12:07Z</time>
      </trkpt>
      <trkpt lat="43.5305" lon="5.69497">
        <ele>408.65</ele>
        <time>2018-09-22T06:12:31Z</time>
      </trkpt>
      <trkpt lat="43.53056" lon="5.69529">
        <ele>411.76</ele>
        <time>2018-09-22T06:12:49Z</time>
      </trkpt>
      <trkpt lat="43.53054" lon="5.69557">
        <ele>407.31</ele>
        <time>2018-09-22T06:13:07Z</time>
      </trkpt>
      <trkpt lat="43.53066" lon="5.69587">
        <ele>408.15</ele>
        <time>2018-09-22T06:13:23Z</time>
      </trkpt>
      <trkpt lat="43.53103" lon="5.69723">
        <ele>413.05</ele>
        <time>2018-09-22T06:14:59Z</time>
      </trkpt>
      <trkpt lat="43.5312" lon="5.69732">
        <ele>417.4</ele>
        <time>2018-09-22T06:15:09Z</time>
      </trkpt>
      <trkpt lat="43.53138" lon="5.69737">
        <ele>425.91</ele>
        <time>2018-09-22T06:15:21Z</time>
      </trkpt>
      <trkpt lat="43.53156" lon="5.69747">
        <ele>427.54</ele>
        <time>2018-09-22T06:15:41Z</time>
      </trkpt>
      <trkpt lat="43.53149" lon="5.69854">
        <ele>433.71</ele>
        <time>2018-09-22T06:16:43Z</time>
      </trkpt>
      <trkpt lat="43.53218" lon="5.69958">
        <ele>438.29</ele>
        <time>2018-09-22T06:18:10Z</time>
      </trkpt>
      <trkpt lat="43.5319" lon="5.69998">
        <ele>444.18</ele>
        <time>2018-09-22T06:18:41Z</time>
      </trkpt>
      <trkpt lat="43.5327" lon="5.70351">
        <ele>463.9</ele>
        <time>2018-09-22T06:22:05Z</time>
      </trkpt>
      <trkpt lat="43.5355" lon="5.71119">
        <ele>480.56</ele>
        <time>2018-09-22T06:26:24Z</time>
      </trkpt>
      <trkpt lat="43.53751" lon="5.71445">
        <ele>488.9</ele>
      </trkpt>
      <trkpt lat="43.53758" lon="5.71463">
        <ele>490</ele>
      </trkpt>
      <trkpt lat="43.53759" lon="5.71477">
        <ele>489.5</ele>
      </trkpt>
      <trkpt lat="43.5373" lon="5.71527">
        <ele>489</ele>
      </trkpt>
      <trkpt lat="43.53725" lon="5.71552">
        <ele>490.7</ele>
      </trkpt>
      <trkpt lat="43.5373" lon="5.71564">
        <ele>492</ele>
      </trkpt>
      <trkpt lat="43.53738" lon="5.71569">
        <ele>493</ele>
      </trkpt>
      <trkpt lat="43.53747" lon="5.71569">
        <ele>493.7</ele>
      </trkpt>
      <trkpt lat="43.53774" lon="5.71564">
        <ele>496.1</ele>
      </trkpt>
      <trkpt lat="43.53798" lon="5.71559">
        <ele>497</ele>
      </trkpt>
      <trkpt lat="43.53828" lon="5.71554">
        <ele>489.02</ele>
        <time>2018-09-22T06:30:32Z</time>
      </trkpt>
      <trkpt lat="43.53848" lon="5.7155">
        <ele>498.33</ele>
        <time>2018-09-22T06:30:43Z</time>
      </trkpt>
      <trkpt lat="43.53867" lon="5.71551">
        <ele>500.99</ele>
        <time>2018-09-22T06:30:56Z</time>
      </trkpt>
      <trkpt lat="43.53885" lon="5.71548">
        <ele>502.16</ele>
        <time>2018-09-22T06:31:09Z</time>
      </trkpt>
      <trkpt lat="43.53903" lon="5.71545">
        <ele>505.89</ele>
        <time>2018-09-22T06:31:22Z</time>
      </trkpt>
      <trkpt lat="43.53921" lon="5.71544">
        <ele>507.06</ele>
        <time>2018-09-22T06:31:34Z</time>
      </trkpt>
      <trkpt lat="43.53939" lon="5.71537">
        <ele>508.73</ele>
        <time>2018-09-22T06:31:44Z</time>
      </trkpt>
      <trkpt lat="43.53957" lon="5.7154">
        <ele>510.56</ele>
        <time>2018-09-22T06:31:55Z</time>
      </trkpt>
      <trkpt lat="43.53976" lon="5.71539">
        <ele>508.76</ele>
        <time>2018-09-22T06:32:05Z</time>
      </trkpt>
      <trkpt lat="43.53994" lon="5.71526">
        <ele>509.25</ele>
        <time>2018-09-22T06:32:14Z</time>
      </trkpt>
      <trkpt lat="43.5401" lon="5.71511">
        <ele>510.04</ele>
        <time>2018-09-22T06:32:22Z</time>
      </trkpt>
      <trkpt lat="43.54024" lon="5.71494">
        <ele>510.37</ele>
        <time>2018-09-22T06:32:27Z</time>
      </trkpt>
      <trkpt lat="43.5404" lon="5.7148">
        <ele>510.45</ele>
        <time>2018-09-22T06:32:34Z</time>
      </trkpt>
      <trkpt lat="43.54055" lon="5.7146">
        <ele>510.66</ele>
        <time>2018-09-22T06:32:46Z</time>
      </trkpt>
      <trkpt lat="43.54073" lon="5.71446">
        <ele>510.05</ele>
        <time>2018-09-22T06:32:54Z</time>
      </trkpt>
      <trkpt lat="43.54088" lon="5.71431">
        <ele>508.98</ele>
        <time>2018-09-22T06:33:01Z</time>
      </trkpt>
      <trkpt lat="43.54102" lon="5.71414">
        <ele>510.05</ele>
        <time>2018-09-22T06:33:08Z</time>
      </trkpt>
      <trkpt lat="43.54118" lon="5.71401">
        <ele>510.14</ele>
        <time>2018-09-22T06:33:13Z</time>
      </trkpt>
      <trkpt lat="43.54131" lon="5.71383">
        <ele>507</ele>
        <time>2018-09-22T06:33:20Z</time>
      </trkpt>
      <trkpt lat="43.54144" lon="5.71362">
        <ele>507.01</ele>
        <time>2018-09-22T06:33:25Z</time>
      </trkpt>
      <trkpt lat="43.5416" lon="5.71338">
        <ele>506.32</ele>
        <time>2018-09-22T06:33:29Z</time>
      </trkpt>
      <trkpt lat="43.54171" lon="5.71317">
        <ele>506.54</ele>
        <time>2018-09-22T06:33:32Z</time>
      </trkpt>
      <trkpt lat="43.54188" lon="5.71302">
        <ele>505.87</ele>
        <time>2018-09-22T06:33:35Z</time>
      </trkpt>
      <trkpt lat="43.54203" lon="5.71281">
        <ele>505.47</ele>
        <time>2018-09-22T06:33:39Z</time>
      </trkpt>
      <trkpt lat="43.54216" lon="5.71263">
        <ele>506.29</ele>
        <time>2018-09-22T06:33:42Z</time>
      </trkpt>
      <trkpt lat="43.54232" lon="5.71236">
        <ele>506.5</ele>
        <time>2018-09-22T06:33:45Z</time>
      </trkpt>
      <trkpt lat="43.54247" lon="5.71217">
        <ele>506.36</ele>
        <time>2018-09-22T06:33:47Z</time>
      </trkpt>
      <trkpt lat="43.54262" lon="5.71193">
        <ele>506.48</ele>
        <time>2018-09-22T06:33:50Z</time>
      </trkpt>
      <trkpt lat="43.54284" lon="5.71147">
        <ele>490.9</ele>
      </trkpt>
      <trkpt lat="43.54298" lon="5.7112">
        <ele>500.54</ele>
        <time>2018-09-22T06:33:58Z</time>
      </trkpt>
      <trkpt lat="43.54311" lon="5.71095">
        <ele>498.06</ele>
        <time>2018-09-22T06:34:01Z</time>
      </trkpt>
      <trkpt lat="43.54324" lon="5.71069">
        <ele>497.69</ele>
        <time>2018-09-22T06:34:04Z</time>
      </trkpt>
      <trkpt lat="43.54339" lon="5.7105">
        <ele>497.69</ele>
        <time>2018-09-22T06:34:07Z</time>
      </trkpt>
      <trkpt lat="43.54358" lon="5.71026">
        <ele>498.36</ele>
        <time>2018-09-22T06:34:12Z</time>
      </trkpt>
      <trkpt lat="43.54371" lon="5.71007">
        <ele>495.84</ele>
        <time>2018-09-22T06:34:17Z</time>
      </trkpt>
      <trkpt lat="43.54383" lon="5.70984">
        <ele>495.45</ele>
        <time>2018-09-22T06:34:24Z</time>
      </trkpt>
      <trkpt lat="43.54394" lon="5.70964">
        <ele>493.17</ele>
        <time>2018-09-22T06:34:29Z</time>
      </trkpt>
      <trkpt lat="43.54411" lon="5.70948">
        <ele>491.31</ele>
        <time>2018-09-22T06:34:34Z</time>
      </trkpt>
      <trkpt lat="43.54421" lon="5.70922">
        <ele>491.39</ele>
        <time>2018-09-22T06:34:40Z</time>
      </trkpt>
      <trkpt lat="43.54434" lon="5.70904">
        <ele>490.9</ele>
        <time>2018-09-22T06:34:45Z</time>
      </trkpt>
      <trkpt lat="43.54446" lon="5.70879">
        <ele>490.13</ele>
        <time>2018-09-22T06:34:50Z</time>
      </trkpt>
      <trkpt lat="43.54469" lon="5.70859">
        <ele>489.96</ele>
        <time>2018-09-22T06:34:55Z</time>
      </trkpt>
      <trkpt lat="43.54463" lon="5.7083">
        <ele>487.03</ele>
        <time>2018-09-22T06:35:00Z</time>
      </trkpt>
      <trkpt lat="43.54476" lon="5.70808">
        <ele>485.99</ele>
        <time>2018-09-22T06:35:06Z</time>
      </trkpt>
      <trkpt lat="43.54487" lon="5.70789">
        <ele>487.01</ele>
        <time>2018-09-22T06:35:10Z</time>
      </trkpt>
      <trkpt lat="43.54503" lon="5.70775">
        <ele>490.03</ele>
        <time>2018-09-22T06:35:13Z</time>
      </trkpt>
      <trkpt lat="43.54518" lon="5.7076">
        <ele>489.61</ele>
        <time>2018-09-22T06:35:19Z</time>
      </trkpt>
      <trkpt lat="43.5453" lon="5.70741">
        <ele>490.34</ele>
        <time>2018-09-22T06:35:25Z</time>
      </trkpt>
      <trkpt lat="43.54542" lon="5.7072">
        <ele>490.87</ele>
        <time>2018-09-22T06:35:31Z</time>
      </trkpt>
      <trkpt lat="43.54555" lon="5.70701">
        <ele>491.65</ele>
        <time>2018-09-22T06:35:37Z</time>
      </trkpt>
      <trkpt lat="43.54569" lon="5.70677">
        <ele>490.75</ele>
        <time>2018-09-22T06:35:42Z</time>
      </trkpt>
      <trkpt lat="43.54583" lon="5.70662">
        <ele>490.11</ele>
        <time>2018-09-22T06:35:47Z</time>
      </trkpt>
      <trkpt lat="43.54594" lon="5.70641">
        <ele>492.36</ele>
        <time>2018-09-22T06:35:57Z</time>
      </trkpt>
      <trkpt lat="43.54607" lon="5.70621">
        <ele>492.06</ele>
        <time>2018-09-22T06:36:04Z</time>
      </trkpt>
      <trkpt lat="43.54623" lon="5.70605">
        <ele>493.94</ele>
        <time>2018-09-22T06:36:10Z</time>
      </trkpt>
      <trkpt lat="43.54637" lon="5.70589">
        <ele>497.38</ele>
        <time>2018-09-22T06:36:18Z</time>
      </trkpt>
      <trkpt lat="43.54642" lon="5.70563">
        <ele>495.11</ele>
        <time>2018-09-22T06:36:26Z</time>
      </trkpt>
      <trkpt lat="43.54659" lon="5.7055">
        <ele>494.89</ele>
        <time>2018-09-22T06:36:34Z</time>
      </trkpt>
      <trkpt lat="43.54678" lon="5.70557">
        <ele>497</ele>
        <time>2018-09-22T06:36:42Z</time>
      </trkpt>
      <trkpt lat="43.54696" lon="5.70562">
        <ele>497.11</ele>
        <time>2018-09-22T06:36:51Z</time>
      </trkpt>
      <trkpt lat="43.54714" lon="5.70573">
        <ele>498.96</ele>
        <time>2018-09-22T06:36:59Z</time>
      </trkpt>
      <trkpt lat="43.54735" lon="5.70577">
        <ele>499.65</ele>
        <time>2018-09-22T06:37:06Z</time>
      </trkpt>
      <trkpt lat="43.54753" lon="5.70585">
        <ele>500.63</ele>
        <time>2018-09-22T06:37:12Z</time>
      </trkpt>
      <trkpt lat="43.54772" lon="5.70587">
        <ele>502.08</ele>
        <time>2018-09-22T06:37:18Z</time>
      </trkpt>
      <trkpt lat="43.54793" lon="5.70593">
        <ele>503.66</ele>
        <time>2018-09-22T06:37:24Z</time>
      </trkpt>
      <trkpt lat="43.54814" lon="5.70601">
        <ele>504.46</ele>
        <time>2018-09-22T06:37:29Z</time>
      </trkpt>
      <trkpt lat="43.54833" lon="5.70596">
        <ele>502.91</ele>
        <time>2018-09-22T06:37:32Z</time>
      </trkpt>
      <trkpt lat="43.54852" lon="5.70591">
        <ele>502.18</ele>
        <time>2018-09-22T06:37:35Z</time>
      </trkpt>
      <trkpt lat="43.54872" lon="5.7059">
        <ele>503.15</ele>
        <time>2018-09-22T06:37:40Z</time>
      </trkpt>
      <trkpt lat="43.54895" lon="5.7059">
        <ele>500.32</ele>
        <time>2018-09-22T06:37:43Z</time>
      </trkpt>
      <trkpt lat="43.54914" lon="5.70595">
        <ele>499.11</ele>
        <time>2018-09-22T06:37:46Z</time>
      </trkpt>
      <trkpt lat="43.54936" lon="5.70593">
        <ele>499.31</ele>
        <time>2018-09-22T06:37:50Z</time>
      </trkpt>
      <trkpt lat="43.54959" lon="5.70595">
        <ele>498.67</ele>
        <time>2018-09-22T06:37:54Z</time>
      </trkpt>
      <trkpt lat="43.54981" lon="5.70599">
        <ele>499.84</ele>
        <time>2018-09-22T06:37:59Z</time>
      </trkpt>
      <trkpt lat="43.55003" lon="5.706">
        <ele>498.09</ele>
        <time>2018-09-22T06:38:05Z</time>
      </trkpt>
      <trkpt lat="43.55021" lon="5.70608">
        <ele>496.96</ele>
        <time>2018-09-22T06:38:13Z</time>
      </trkpt>
      <trkpt lat="43.55039" lon="5.70605">
        <ele>496.74</ele>
        <time>2018-09-22T06:38:18Z</time>
      </trkpt>
      <trkpt lat="43.55059" lon="5.70609">
        <ele>495.57</ele>
        <time>2018-09-22T06:38:25Z</time>
      </trkpt>
      <trkpt lat="43.55078" lon="5.70618">
        <ele>497.93</ele>
        <time>2018-09-22T06:38:34Z</time>
      </trkpt>
      <trkpt lat="43.55097" lon="5.70627">
        <ele>498.1</ele>
        <time>2018-09-22T06:38:39Z</time>
      </trkpt>
      <trkpt lat="43.55115" lon="5.70633">
        <ele>497.71</ele>
        <time>2018-09-22T06:38:45Z</time>
      </trkpt>
      <trkpt lat="43.55134" lon="5.70634">
        <ele>499.45</ele>
        <time>2018-09-22T06:38:51Z</time>
      </trkpt>
      <trkpt lat="43.55153" lon="5.70637">
        <ele>499.46</ele>
        <time>2018-09-22T06:38:56Z</time>
      </trkpt>
      <trkpt lat="43.55173" lon="5.7064">
        <ele>498.53</ele>
        <time>2018-09-22T06:39:02Z</time>
      </trkpt>
      <trkpt lat="43.55192" lon="5.70644">
        <ele>498.23</ele>
        <time>2018-09-22T06:39:07Z</time>
      </trkpt>
      <trkpt lat="43.55213" lon="5.70649">
        <ele>497.46</ele>
        <time>2018-09-22T06:39:13Z</time>
      </trkpt>
      <trkpt lat="43.55232" lon="5.70652">
        <ele>498.96</ele>
        <time>2018-09-22T06:39:20Z</time>
      </trkpt>
      <trkpt lat="43.55251" lon="5.70653">
        <ele>500.36</ele>
        <time>2018-09-22T06:39:25Z</time>
      </trkpt>
      <trkpt lat="43.5527" lon="5.7066">
        <ele>500.05</ele>
        <time>2018-09-22T06:39:30Z</time>
      </trkpt>
      <trkpt lat="43.5529" lon="5.70666">
        <ele>501.53</ele>
        <time>2018-09-22T06:39:37Z</time>
      </trkpt>
      <trkpt lat="43.5531" lon="5.70663">
        <ele>498.93</ele>
        <time>2018-09-22T06:39:41Z</time>
      </trkpt>
      <trkpt lat="43.55328" lon="5.70666">
        <ele>498.62</ele>
        <time>2018-09-22T06:39:46Z</time>
      </trkpt>
      <trkpt lat="43.55346" lon="5.70667">
        <ele>497.58</ele>
        <time>2018-09-22T06:39:51Z</time>
      </trkpt>
      <trkpt lat="43.55369" lon="5.70665">
        <ele>497.6</ele>
        <time>2018-09-22T06:39:56Z</time>
      </trkpt>
      <trkpt lat="43.55388" lon="5.70664">
        <ele>499.68</ele>
        <time>2018-09-22T06:40:02Z</time>
      </trkpt>
      <trkpt lat="43.55405" lon="5.70656">
        <ele>499.26</ele>
        <time>2018-09-22T06:40:08Z</time>
      </trkpt>
      <trkpt lat="43.55424" lon="5.70646">
        <ele>498.67</ele>
        <time>2018-09-22T06:40:14Z</time>
      </trkpt>
      <trkpt lat="43.55446" lon="5.7064">
        <ele>500.07</ele>
        <time>2018-09-22T06:40:21Z</time>
      </trkpt>
      <trkpt lat="43.55464" lon="5.70632">
        <ele>499.58</ele>
        <time>2018-09-22T06:40:26Z</time>
      </trkpt>
      <trkpt lat="43.55482" lon="5.70622">
        <ele>500.31</ele>
        <time>2018-09-22T06:40:31Z</time>
      </trkpt>
      <trkpt lat="43.555" lon="5.70617">
        <ele>500.67</ele>
        <time>2018-09-22T06:40:37Z</time>
      </trkpt>
      <trkpt lat="43.55519" lon="5.7061">
        <ele>500.25</ele>
        <time>2018-09-22T06:40:43Z</time>
      </trkpt>
      <trkpt lat="43.55538" lon="5.70603">
        <ele>499.07</ele>
        <time>2018-09-22T06:40:49Z</time>
      </trkpt>
      <trkpt lat="43.55556" lon="5.70593">
        <ele>499.97</ele>
        <time>2018-09-22T06:40:54Z</time>
      </trkpt>
      <trkpt lat="43.55575" lon="5.7059">
        <ele>503.55</ele>
        <time>2018-09-22T06:41:02Z</time>
      </trkpt>
      <trkpt lat="43.55592" lon="5.70577">
        <ele>504.99</ele>
        <time>2018-09-22T06:41:08Z</time>
      </trkpt>
      <trkpt lat="43.55613" lon="5.70571">
        <ele>502.19</ele>
        <time>2018-09-22T06:49:39Z</time>
      </trkpt>
      <trkpt lat="43.55626" lon="5.7055">
        <ele>504.05</ele>
        <time>2018-09-22T06:49:49Z</time>
      </trkpt>
      <trkpt lat="43.55626" lon="5.70524">
        <ele>504.25</ele>
        <time>2018-09-22T06:49:58Z</time>
      </trkpt>
      <trkpt lat="43.5562" lon="5.70499">
        <ele>502.57</ele>
        <time>2018-09-22T06:50:06Z</time>
      </trkpt>
      <trkpt lat="43.55625" lon="5.70473">
        <ele>501.26</ele>
        <time>2018-09-22T06:50:14Z</time>
      </trkpt>
      <trkpt lat="43.55627" lon="5.70445">
        <ele>505.05</ele>
        <time>2018-09-22T06:50:23Z</time>
      </trkpt>
      <trkpt lat="43.55621" lon="5.70418">
        <ele>507.25</ele>
        <time>2018-09-22T06:50:31Z</time>
      </trkpt>
      <trkpt lat="43.55622" lon="5.70392">
        <ele>508.3</ele>
        <time>2018-09-22T06:50:37Z</time>
      </trkpt>
      <trkpt lat="43.55616" lon="5.70366">
        <ele>509.1</ele>
        <time>2018-09-22T06:50:46Z</time>
      </trkpt>
      <trkpt lat="43.55616" lon="5.70339">
        <ele>505.56</ele>
        <time>2018-09-22T06:50:55Z</time>
      </trkpt>
      <trkpt lat="43.55607" lon="5.70314">
        <ele>506.72</ele>
        <time>2018-09-22T06:51:05Z</time>
      </trkpt>
      <trkpt lat="43.55601" lon="5.7029">
        <ele>510.38</ele>
        <time>2018-09-22T06:51:15Z</time>
      </trkpt>
      <trkpt lat="43.55591" lon="5.70267">
        <ele>513.47</ele>
        <time>2018-09-22T06:51:23Z</time>
      </trkpt>
      <trkpt lat="43.5558" lon="5.70244">
        <ele>515.17</ele>
        <time>2018-09-22T06:51:32Z</time>
      </trkpt>
      <trkpt lat="43.5557" lon="5.70222">
        <ele>515.3</ele>
        <time>2018-09-22T06:51:39Z</time>
      </trkpt>
      <trkpt lat="43.55563" lon="5.70196">
        <ele>514.88</ele>
        <time>2018-09-22T06:51:47Z</time>
      </trkpt>
      <trkpt lat="43.55556" lon="5.7017">
        <ele>514.29</ele>
        <time>2018-09-22T06:51:57Z</time>
      </trkpt>
      <trkpt lat="43.55545" lon="5.7015">
        <ele>514.84</ele>
        <time>2018-09-22T06:52:04Z</time>
      </trkpt>
      <trkpt lat="43.55532" lon="5.7013">
        <ele>515.79</ele>
        <time>2018-09-22T06:52:15Z</time>
      </trkpt>
      <trkpt lat="43.55524" lon="5.70103">
        <ele>516.45</ele>
        <time>2018-09-22T06:52:21Z</time>
      </trkpt>
      <trkpt lat="43.55513" lon="5.70083">
        <ele>522.59</ele>
        <time>2018-09-22T06:52:30Z</time>
      </trkpt>
      <trkpt lat="43.555" lon="5.70065">
        <ele>524.19</ele>
        <time>2018-09-22T06:52:37Z</time>
      </trkpt>
      <trkpt lat="43.55487" lon="5.70042">
        <ele>525.99</ele>
        <time>2018-09-22T06:52:45Z</time>
      </trkpt>
      <trkpt lat="43.55482" lon="5.70017">
        <ele>526.22</ele>
        <time>2018-09-22T06:52:52Z</time>
      </trkpt>
      <trkpt lat="43.5547" lon="5.69993">
        <ele>525.73</ele>
        <time>2018-09-22T06:53:00Z</time>
      </trkpt>
      <trkpt lat="43.55467" lon="5.69967">
        <ele>525.15</ele>
        <time>2018-09-22T06:53:06Z</time>
      </trkpt>
      <trkpt lat="43.55466" lon="5.6994">
        <ele>524.8</ele>
        <time>2018-09-22T06:53:14Z</time>
      </trkpt>
      <trkpt lat="43.55455" lon="5.69919">
        <ele>526.98</ele>
        <time>2018-09-22T06:53:21Z</time>
      </trkpt>
      <trkpt lat="43.55454" lon="5.6989">
        <ele>525.7</ele>
        <time>2018-09-22T06:53:29Z</time>
      </trkpt>
      <trkpt lat="43.55442" lon="5.69861">
        <ele>527.08</ele>
        <time>2018-09-22T06:53:37Z</time>
      </trkpt>
      <trkpt lat="43.55434" lon="5.69836">
        <ele>527.05</ele>
        <time>2018-09-22T06:53:40Z</time>
      </trkpt>
      <trkpt lat="43.55428" lon="5.6981">
        <ele>526.98</ele>
        <time>2018-09-22T06:53:45Z</time>
      </trkpt>
      <trkpt lat="43.55425" lon="5.69782">
        <ele>530.88</ele>
        <time>2018-09-22T06:53:53Z</time>
      </trkpt>
      <trkpt lat="43.55421" lon="5.69756">
        <ele>533.56</ele>
        <time>2018-09-22T06:54:01Z</time>
      </trkpt>
      <trkpt lat="43.55422" lon="5.69728">
        <ele>531.33</ele>
        <time>2018-09-22T06:54:08Z</time>
      </trkpt>
      <trkpt lat="43.55415" lon="5.69702">
        <ele>528.85</ele>
        <time>2018-09-22T06:54:14Z</time>
      </trkpt>
      <trkpt lat="43.55402" lon="5.69673">
        <ele>530.4</ele>
        <time>2018-09-22T06:54:20Z</time>
      </trkpt>
      <trkpt lat="43.55388" lon="5.69651">
        <ele>525.06</ele>
        <time>2018-09-22T06:54:24Z</time>
      </trkpt>
      <trkpt lat="43.55379" lon="5.69625">
        <ele>524.4</ele>
        <time>2018-09-22T06:54:28Z</time>
      </trkpt>
      <trkpt lat="43.55368" lon="5.69602">
        <ele>523.25</ele>
        <time>2018-09-22T06:54:32Z</time>
      </trkpt>
      <trkpt lat="43.55361" lon="5.69577">
        <ele>520.37</ele>
        <time>2018-09-22T06:54:38Z</time>
      </trkpt>
      <trkpt lat="43.55356" lon="5.6955">
        <ele>522.86</ele>
        <time>2018-09-22T06:54:45Z</time>
      </trkpt>
      <trkpt lat="43.55347" lon="5.69526">
        <ele>523.03</ele>
        <time>2018-09-22T06:54:53Z</time>
      </trkpt>
      <trkpt lat="43.55342" lon="5.69501">
        <ele>529.08</ele>
        <time>2018-09-22T06:55:03Z</time>
      </trkpt>
      <trkpt lat="43.55343" lon="5.69473">
        <ele>534.09</ele>
        <time>2018-09-22T06:55:12Z</time>
      </trkpt>
      <trkpt lat="43.55351" lon="5.69448">
        <ele>535.48</ele>
        <time>2018-09-22T06:55:20Z</time>
      </trkpt>
      <trkpt lat="43.55357" lon="5.69422">
        <ele>535.32</ele>
        <time>2018-09-22T06:55:27Z</time>
      </trkpt>
      <trkpt lat="43.55363" lon="5.69396">
        <ele>535.78</ele>
        <time>2018-09-22T06:55:33Z</time>
      </trkpt>
      <trkpt lat="43.55371" lon="5.6937">
        <ele>535.48</ele>
        <time>2018-09-22T06:55:39Z</time>
      </trkpt>
      <trkpt lat="43.55378" lon="5.69345">
        <ele>535.44</ele>
        <time>2018-09-22T06:55:45Z</time>
      </trkpt>
      <trkpt lat="43.55385" lon="5.69319">
        <ele>535.95</ele>
        <time>2018-09-22T06:55:51Z</time>
      </trkpt>
      <trkpt lat="43.55391" lon="5.69294">
        <ele>536.57</ele>
        <time>2018-09-22T06:55:57Z</time>
      </trkpt>
      <trkpt lat="43.55399" lon="5.69271">
        <ele>538.03</ele>
        <time>2018-09-22T06:56:03Z</time>
      </trkpt>
      <trkpt lat="43.55407" lon="5.69245">
        <ele>538.33</ele>
        <time>2018-09-22T06:56:10Z</time>
      </trkpt>
      <trkpt lat="43.55414" lon="5.69218">
        <ele>537.76</ele>
        <time>2018-09-22T06:56:17Z</time>
      </trkpt>
      <trkpt lat="43.55422" lon="5.69194">
        <ele>537.53</ele>
        <time>2018-09-22T06:56:23Z</time>
      </trkpt>
      <trkpt lat="43.55428" lon="5.69168">
        <ele>536.61</ele>
        <time>2018-09-22T06:56:28Z</time>
      </trkpt>
      <trkpt lat="43.55434" lon="5.69144">
        <ele>534.71</ele>
        <time>2018-09-22T06:56:32Z</time>
      </trkpt>
      <trkpt lat="43.5544" lon="5.69117">
        <ele>533.32</ele>
        <time>2018-09-22T06:56:36Z</time>
      </trkpt>
      <trkpt lat="43.55443" lon="5.69088">
        <ele>530.86</ele>
        <time>2018-09-22T06:56:40Z</time>
      </trkpt>
      <trkpt lat="43.5544" lon="5.69062">
        <ele>528.99</ele>
        <time>2018-09-22T06:56:43Z</time>
      </trkpt>
      <trkpt lat="43.55437" lon="5.69033">
        <ele>527.3</ele>
        <time>2018-09-22T06:56:46Z</time>
      </trkpt>
      <trkpt lat="43.5544" lon="5.69007">
        <ele>527.12</ele>
        <time>2018-09-22T06:56:49Z</time>
      </trkpt>
      <trkpt lat="43.55447" lon="5.68984">
        <ele>527.98</ele>
        <time>2018-09-22T06:56:52Z</time>
      </trkpt>
      <trkpt lat="43.55454" lon="5.68957">
        <ele>529.13</ele>
        <time>2018-09-22T06:56:56Z</time>
      </trkpt>
      <trkpt lat="43.55456" lon="5.68932">
        <ele>529.86</ele>
        <time>2018-09-22T06:57:02Z</time>
      </trkpt>
      <trkpt lat="43.55449" lon="5.68909">
        <ele>530.51</ele>
        <time>2018-09-22T06:57:07Z</time>
      </trkpt>
      <trkpt lat="43.55444" lon="5.68883">
        <ele>532.96</ele>
        <time>2018-09-22T06:57:16Z</time>
      </trkpt>
      <trkpt lat="43.5544" lon="5.68857">
        <ele>534.79</ele>
        <time>2018-09-22T06:57:25Z</time>
      </trkpt>
      <trkpt lat="43.55434" lon="5.68832">
        <ele>537.01</ele>
        <time>2018-09-22T06:57:33Z</time>
      </trkpt>
      <trkpt lat="43.55427" lon="5.68808">
        <ele>541.22</ele>
        <time>2018-09-22T06:57:41Z</time>
      </trkpt>
      <trkpt lat="43.55421" lon="5.68783">
        <ele>542.68</ele>
        <time>2018-09-22T06:57:51Z</time>
      </trkpt>
      <trkpt lat="43.55415" lon="5.68757">
        <ele>543.16</ele>
        <time>2018-09-22T06:57:59Z</time>
      </trkpt>
      <trkpt lat="43.5541" lon="5.6873">
        <ele>546.92</ele>
        <time>2018-09-22T06:58:08Z</time>
      </trkpt>
      <trkpt lat="43.55412" lon="5.68704">
        <ele>549.52</ele>
        <time>2018-09-22T06:58:19Z</time>
      </trkpt>
      <trkpt lat="43.55417" lon="5.68678">
        <ele>550.25</ele>
        <time>2018-09-22T06:58:31Z</time>
      </trkpt>
      <trkpt lat="43.55427" lon="5.68656">
        <ele>551.32</ele>
        <time>2018-09-22T06:58:43Z</time>
      </trkpt>
      <trkpt lat="43.5544" lon="5.68638">
        <ele>553.05</ele>
        <time>2018-09-22T06:58:55Z</time>
      </trkpt>
      <trkpt lat="43.55457" lon="5.68626">
        <ele>555.57</ele>
        <time>2018-09-22T06:59:04Z</time>
      </trkpt>
      <trkpt lat="43.55474" lon="5.68611">
        <ele>558.58</ele>
        <time>2018-09-22T06:59:14Z</time>
      </trkpt>
      <trkpt lat="43.55488" lon="5.68596">
        <ele>555.54</ele>
        <time>2018-09-22T06:59:23Z</time>
      </trkpt>
      <trkpt lat="43.55502" lon="5.68577">
        <ele>554.88</ele>
        <time>2018-09-22T06:59:34Z</time>
      </trkpt>
      <trkpt lat="43.5552" lon="5.68563">
        <ele>555.59</ele>
        <time>2018-09-22T06:59:42Z</time>
      </trkpt>
      <trkpt lat="43.55541" lon="5.68558">
        <ele>554.4</ele>
        <time>2018-09-22T06:59:49Z</time>
      </trkpt>
      <trkpt lat="43.55554" lon="5.68575">
        <ele>553.19</ele>
        <time>2018-09-22T07:06:39Z</time>
      </trkpt>
      <trkpt lat="43.55568" lon="5.68593">
        <ele>552.26</ele>
        <time>2018-09-22T07:06:45Z</time>
      </trkpt>
      <trkpt lat="43.55581" lon="5.68614">
        <ele>549.22</ele>
        <time>2018-09-22T07:06:50Z</time>
      </trkpt>
      <trkpt lat="43.55592" lon="5.68634">
        <ele>548.68</ele>
        <time>2018-09-22T07:06:53Z</time>
      </trkpt>
      <trkpt lat="43.55603" lon="5.68657">
        <ele>549</ele>
        <time>2018-09-22T07:06:58Z</time>
      </trkpt>
      <trkpt lat="43.55614" lon="5.68687">
        <ele>546.67</ele>
        <time>2018-09-22T07:07:02Z</time>
      </trkpt>
      <trkpt lat="43.55623" lon="5.68709">
        <ele>545.25</ele>
        <time>2018-09-22T07:07:05Z</time>
      </trkpt>
      <trkpt lat="43.55626" lon="5.68734">
        <ele>544.77</ele>
        <time>2018-09-22T07:07:07Z</time>
      </trkpt>
      <trkpt lat="43.5562" lon="5.6876">
        <ele>544.47</ele>
        <time>2018-09-22T07:07:12Z</time>
      </trkpt>
      <trkpt lat="43.55629" lon="5.68787">
        <ele>544.04</ele>
        <time>2018-09-22T07:07:17Z</time>
      </trkpt>
      <trkpt lat="43.55647" lon="5.68794">
        <ele>542.92</ele>
        <time>2018-09-22T07:07:21Z</time>
      </trkpt>
      <trkpt lat="43.55667" lon="5.68796">
        <ele>542.05</ele>
        <time>2018-09-22T07:07:25Z</time>
      </trkpt>
      <trkpt lat="43.5569" lon="5.68786">
        <ele>542.02</ele>
        <time>2018-09-22T07:07:29Z</time>
      </trkpt>
      <trkpt lat="43.55713" lon="5.68789">
        <ele>540.79</ele>
        <time>2018-09-22T07:07:32Z</time>
      </trkpt>
      <trkpt lat="43.55734" lon="5.68794">
        <ele>540.17</ele>
        <time>2018-09-22T07:07:35Z</time>
      </trkpt>
      <trkpt lat="43.55756" lon="5.68802">
        <ele>541.09</ele>
        <time>2018-09-22T07:07:39Z</time>
      </trkpt>
      <trkpt lat="43.55772" lon="5.68817">
        <ele>540.92</ele>
        <time>2018-09-22T07:07:42Z</time>
      </trkpt>
      <trkpt lat="43.5579" lon="5.68838">
        <ele>540.73</ele>
        <time>2018-09-22T07:07:46Z</time>
      </trkpt>
      <trkpt lat="43.55806" lon="5.68851">
        <ele>541.28</ele>
        <time>2018-09-22T07:07:49Z</time>
      </trkpt>
      <trkpt lat="43.55825" lon="5.68863">
        <ele>542.15</ele>
        <time>2018-09-22T07:07:52Z</time>
      </trkpt>
      <trkpt lat="43.5584" lon="5.68876">
        <ele>541.41</ele>
        <time>2018-09-22T07:07:55Z</time>
      </trkpt>
      <trkpt lat="43.55859" lon="5.68883">
        <ele>541.09</ele>
        <time>2018-09-22T07:08:00Z</time>
      </trkpt>
      <trkpt lat="43.55882" lon="5.68878">
        <ele>539.15</ele>
        <time>2018-09-22T07:08:07Z</time>
      </trkpt>
      <trkpt lat="43.55902" lon="5.68881">
        <ele>541.56</ele>
        <time>2018-09-22T07:08:21Z</time>
      </trkpt>
      <trkpt lat="43.55921" lon="5.68874">
        <ele>542.13</ele>
        <time>2018-09-22T07:08:29Z</time>
      </trkpt>
      <trkpt lat="43.5594" lon="5.68867">
        <ele>544.59</ele>
        <time>2018-09-22T07:08:41Z</time>
      </trkpt>
      <trkpt lat="43.55958" lon="5.68872">
        <ele>547.54</ele>
        <time>2018-09-22T07:08:52Z</time>
      </trkpt>
      <trkpt lat="43.55976" lon="5.6888">
        <ele>548.93</ele>
        <time>2018-09-22T07:09:04Z</time>
      </trkpt>
      <trkpt lat="43.55989" lon="5.68862">
        <ele>548.77</ele>
        <time>2018-09-22T07:09:15Z</time>
      </trkpt>
      <trkpt lat="43.56007" lon="5.68853">
        <ele>551.49</ele>
        <time>2018-09-22T07:09:27Z</time>
      </trkpt>
      <trkpt lat="43.56024" lon="5.68843">
        <ele>555.98</ele>
        <time>2018-09-22T07:09:41Z</time>
      </trkpt>
      <trkpt lat="43.5604" lon="5.6883">
        <ele>559.68</ele>
        <time>2018-09-22T07:09:54Z</time>
      </trkpt>
      <trkpt lat="43.56058" lon="5.68824">
        <ele>558.81</ele>
        <time>2018-09-22T07:11:06Z</time>
      </trkpt>
      <trkpt lat="43.56076" lon="5.6883">
        <ele>560.9</ele>
        <time>2018-09-22T07:12:10Z</time>
      </trkpt>
      <trkpt lat="43.56092" lon="5.68841">
        <ele>559.72</ele>
        <time>2018-09-22T07:12:20Z</time>
      </trkpt>
      <trkpt lat="43.5611" lon="5.68842">
        <ele>560.23</ele>
        <time>2018-09-22T07:12:26Z</time>
      </trkpt>
      <trkpt lat="43.5613" lon="5.68851">
        <ele>562.04</ele>
        <time>2018-09-22T07:12:33Z</time>
      </trkpt>
      <trkpt lat="43.56148" lon="5.68855">
        <ele>560.96</ele>
        <time>2018-09-22T07:12:38Z</time>
      </trkpt>
      <trkpt lat="43.56166" lon="5.68869">
        <ele>556.84</ele>
        <time>2018-09-22T07:12:42Z</time>
      </trkpt>
      <trkpt lat="43.56183" lon="5.68885">
        <ele>556.3</ele>
        <time>2018-09-22T07:12:47Z</time>
      </trkpt>
      <trkpt lat="43.56202" lon="5.68896">
        <ele>556.07</ele>
        <time>2018-09-22T07:12:52Z</time>
      </trkpt>
      <trkpt lat="43.56221" lon="5.68905">
        <ele>557.93</ele>
        <time>2018-09-22T07:12:57Z</time>
      </trkpt>
      <trkpt lat="43.56239" lon="5.68922">
        <ele>557.24</ele>
        <time>2018-09-22T07:13:02Z</time>
      </trkpt>
      <trkpt lat="43.5626" lon="5.6893">
        <ele>557.23</ele>
        <time>2018-09-22T07:13:08Z</time>
      </trkpt>
      <trkpt lat="43.56275" lon="5.68917">
        <ele>554.44</ele>
        <time>2018-09-22T07:13:13Z</time>
      </trkpt>
      <trkpt lat="43.56282" lon="5.68893">
        <ele>554.86</ele>
        <time>2018-09-22T07:13:18Z</time>
      </trkpt>
      <trkpt lat="43.56284" lon="5.68867">
        <ele>554.1</ele>
        <time>2018-09-22T07:13:23Z</time>
      </trkpt>
      <trkpt lat="43.56282" lon="5.68841">
        <ele>552.2</ele>
        <time>2018-09-22T07:13:27Z</time>
      </trkpt>
      <trkpt lat="43.56282" lon="5.68813">
        <ele>550.44</ele>
        <time>2018-09-22T07:13:31Z</time>
      </trkpt>
      <trkpt lat="43.56273" lon="5.68787">
        <ele>550.6</ele>
        <time>2018-09-22T07:13:35Z</time>
      </trkpt>
      <trkpt lat="43.56257" lon="5.68768">
        <ele>552.16</ele>
        <time>2018-09-22T07:13:40Z</time>
      </trkpt>
      <trkpt lat="43.56241" lon="5.68755">
        <ele>557.39</ele>
        <time>2018-09-22T07:13:51Z</time>
      </trkpt>
      <trkpt lat="43.56222" lon="5.68744">
        <ele>560.24</ele>
        <time>2018-09-22T07:14:03Z</time>
      </trkpt>
      <trkpt lat="43.56207" lon="5.6873">
        <ele>562.76</ele>
        <time>2018-09-22T07:14:13Z</time>
      </trkpt>
      <trkpt lat="43.56195" lon="5.68709">
        <ele>564.82</ele>
        <time>2018-09-22T07:14:23Z</time>
      </trkpt>
      <trkpt lat="43.56184" lon="5.68688">
        <ele>564.14</ele>
        <time>2018-09-22T07:14:30Z</time>
      </trkpt>
      <trkpt lat="43.5618" lon="5.68661">
        <ele>564.76</ele>
        <time>2018-09-22T07:14:38Z</time>
      </trkpt>
      <trkpt lat="43.56181" lon="5.68634">
        <ele>564.63</ele>
        <time>2018-09-22T07:14:46Z</time>
      </trkpt>
      <trkpt lat="43.56181" lon="5.68608">
        <ele>563.23</ele>
        <time>2018-09-22T07:14:54Z</time>
      </trkpt>
      <trkpt lat="43.56178" lon="5.68583">
        <ele>562.19</ele>
        <time>2018-09-22T07:15:02Z</time>
      </trkpt>
      <trkpt lat="43.56174" lon="5.68556">
        <ele>562.42</ele>
        <time>2018-09-22T07:15:10Z</time>
      </trkpt>
      <trkpt lat="43.56163" lon="5.68534">
        <ele>564.14</ele>
        <time>2018-09-22T07:15:18Z</time>
      </trkpt>
      <trkpt lat="43.56146" lon="5.6852">
        <ele>561.74</ele>
        <time>2018-09-22T07:15:25Z</time>
      </trkpt>
      <trkpt lat="43.56132" lon="5.68505">
        <ele>566.66</ele>
        <time>2018-09-22T07:15:32Z</time>
      </trkpt>
      <trkpt lat="43.56115" lon="5.68491">
        <ele>568.01</ele>
        <time>2018-09-22T07:15:41Z</time>
      </trkpt>
      <trkpt lat="43.56105" lon="5.6847">
        <ele>568.45</ele>
        <time>2018-09-22T07:15:50Z</time>
      </trkpt>
      <trkpt lat="43.56095" lon="5.68446">
        <ele>569.53</ele>
        <time>2018-09-22T07:16:00Z</time>
      </trkpt>
      <trkpt lat="43.56089" lon="5.68421">
        <ele>567.96</ele>
        <time>2018-09-22T07:16:10Z</time>
      </trkpt>
      <trkpt lat="43.56083" lon="5.68395">
        <ele>571.55</ele>
        <time>2018-09-22T07:16:19Z</time>
      </trkpt>
      <trkpt lat="43.56083" lon="5.68367">
        <ele>570.63</ele>
        <time>2018-09-22T07:16:27Z</time>
      </trkpt>
      <trkpt lat="43.56088" lon="5.68342">
        <ele>571.41</ele>
        <time>2018-09-22T07:16:35Z</time>
      </trkpt>
      <trkpt lat="43.56095" lon="5.68318">
        <ele>571.65</ele>
        <time>2018-09-22T07:16:42Z</time>
      </trkpt>
      <trkpt lat="43.56101" lon="5.68294">
        <ele>571.94</ele>
        <time>2018-09-22T07:16:49Z</time>
      </trkpt>
      <trkpt lat="43.56115" lon="5.68275">
        <ele>572.25</ele>
        <time>2018-09-22T07:16:57Z</time>
      </trkpt>
      <trkpt lat="43.56131" lon="5.68261">
        <ele>571.43</ele>
        <time>2018-09-22T07:17:02Z</time>
      </trkpt>
      <trkpt lat="43.56144" lon="5.68243">
        <ele>571.5</ele>
        <time>2018-09-22T07:17:05Z</time>
      </trkpt>
      <trkpt lat="43.5615" lon="5.68219">
        <ele>573.26</ele>
        <time>2018-09-22T07:17:10Z</time>
      </trkpt>
      <trkpt lat="43.56154" lon="5.68194">
        <ele>573.64</ele>
        <time>2018-09-22T07:17:16Z</time>
      </trkpt>
      <trkpt lat="43.5617" lon="5.68178">
        <ele>574.26</ele>
        <time>2018-09-22T07:17:41Z</time>
      </trkpt>
      <trkpt lat="43.56181" lon="5.68158">
        <ele>577.73</ele>
        <time>2018-09-22T07:17:48Z</time>
      </trkpt>
      <trkpt lat="43.56195" lon="5.6814">
        <ele>576.78</ele>
        <time>2018-09-22T07:17:55Z</time>
      </trkpt>
      <trkpt lat="43.56208" lon="5.6812">
        <ele>576.81</ele>
        <time>2018-09-22T07:18:01Z</time>
      </trkpt>
      <trkpt lat="43.56226" lon="5.68104">
        <ele>575.6</ele>
        <time>2018-09-22T07:18:08Z</time>
      </trkpt>
      <trkpt lat="43.56243" lon="5.6809">
        <ele>574.43</ele>
        <time>2018-09-22T07:18:14Z</time>
      </trkpt>
      <trkpt lat="43.5625" lon="5.68064">
        <ele>573.06</ele>
        <time>2018-09-22T07:18:22Z</time>
      </trkpt>
      <trkpt lat="43.56258" lon="5.68038">
        <ele>570.93</ele>
        <time>2018-09-22T07:18:29Z</time>
      </trkpt>
      <trkpt lat="43.56263" lon="5.68012">
        <ele>570.4</ele>
        <time>2018-09-22T07:18:36Z</time>
      </trkpt>
      <trkpt lat="43.56267" lon="5.67986">
        <ele>569.83</ele>
        <time>2018-09-22T07:18:42Z</time>
      </trkpt>
      <trkpt lat="43.5627" lon="5.67958">
        <ele>568.73</ele>
        <time>2018-09-22T07:18:52Z</time>
      </trkpt>
      <trkpt lat="43.56274" lon="5.67931">
        <ele>570.16</ele>
        <time>2018-09-22T07:19:00Z</time>
      </trkpt>
      <trkpt lat="43.56276" lon="5.67905">
        <ele>570.47</ele>
        <time>2018-09-22T07:19:12Z</time>
      </trkpt>
      <trkpt lat="43.5626" lon="5.67888">
        <ele>567.11</ele>
        <time>2018-09-22T07:19:22Z</time>
      </trkpt>
      <trkpt lat="43.56239" lon="5.67889">
        <ele>566.33</ele>
        <time>2018-09-22T07:19:29Z</time>
      </trkpt>
      <trkpt lat="43.56256" lon="5.67872">
        <ele>563.55</ele>
        <time>2018-09-22T07:19:37Z</time>
      </trkpt>
      <trkpt lat="43.56273" lon="5.67862">
        <ele>560.92</ele>
        <time>2018-09-22T07:19:42Z</time>
      </trkpt>
      <trkpt lat="43.56283" lon="5.67839">
        <ele>561</ele>
        <time>2018-09-22T07:19:49Z</time>
      </trkpt>
      <trkpt lat="43.56281" lon="5.67812">
        <ele>557.62</ele>
        <time>2018-09-22T07:19:56Z</time>
      </trkpt>
      <trkpt lat="43.56284" lon="5.67787">
        <ele>560.27</ele>
        <time>2018-09-22T07:20:03Z</time>
      </trkpt>
      <trkpt lat="43.56293" lon="5.67766">
        <ele>562.22</ele>
        <time>2018-09-22T07:20:10Z</time>
      </trkpt>
      <trkpt lat="43.56307" lon="5.67747">
        <ele>562.7</ele>
        <time>2018-09-22T07:20:17Z</time>
      </trkpt>
      <trkpt lat="43.56324" lon="5.67733">
        <ele>564.44</ele>
        <time>2018-09-22T07:20:25Z</time>
      </trkpt>
      <trkpt lat="43.5633" lon="5.67709">
        <ele>567.44</ele>
        <time>2018-09-22T07:20:34Z</time>
      </trkpt>
      <trkpt lat="43.56325" lon="5.67685">
        <ele>568.27</ele>
        <time>2018-09-22T07:20:42Z</time>
      </trkpt>
      <trkpt lat="43.56312" lon="5.67667">
        <ele>566.28</ele>
        <time>2018-09-22T07:20:50Z</time>
      </trkpt>
      <trkpt lat="43.56296" lon="5.67652">
        <ele>567.78</ele>
        <time>2018-09-22T07:21:00Z</time>
      </trkpt>
      <trkpt lat="43.56284" lon="5.67633">
        <ele>571.63</ele>
        <time>2018-09-22T07:21:09Z</time>
      </trkpt>
      <trkpt lat="43.56277" lon="5.67609">
        <ele>571.56</ele>
        <time>2018-09-22T07:21:17Z</time>
      </trkpt>
      <trkpt lat="43.56278" lon="5.67584">
        <ele>573.44</ele>
        <time>2018-09-22T07:21:25Z</time>
      </trkpt>
      <trkpt lat="43.56282" lon="5.67559">
        <ele>573.52</ele>
        <time>2018-09-22T07:21:34Z</time>
      </trkpt>
      <trkpt lat="43.56291" lon="5.67537">
        <ele>573.25</ele>
        <time>2018-09-22T07:21:43Z</time>
      </trkpt>
      <trkpt lat="43.56302" lon="5.67514">
        <ele>572.19</ele>
        <time>2018-09-22T07:21:50Z</time>
      </trkpt>
      <trkpt lat="43.56318" lon="5.67498">
        <ele>573.91</ele>
        <time>2018-09-22T07:21:58Z</time>
      </trkpt>
      <trkpt lat="43.56325" lon="5.67472">
        <ele>574.7</ele>
        <time>2018-09-22T07:22:08Z</time>
      </trkpt>
      <trkpt lat="43.56328" lon="5.67447">
        <ele>576.92</ele>
        <time>2018-09-22T07:22:16Z</time>
      </trkpt>
      <trkpt lat="43.56331" lon="5.67422">
        <ele>579</ele>
        <time>2018-09-22T07:22:24Z</time>
      </trkpt>
      <trkpt lat="43.56335" lon="5.67397">
        <ele>581.17</ele>
        <time>2018-09-22T07:22:33Z</time>
      </trkpt>
      <trkpt lat="43.5633" lon="5.67372">
        <ele>582.54</ele>
        <time>2018-09-22T07:22:43Z</time>
      </trkpt>
      <trkpt lat="43.56321" lon="5.6735">
        <ele>582.56</ele>
        <time>2018-09-22T07:22:53Z</time>
      </trkpt>
      <trkpt lat="43.56305" lon="5.67337">
        <ele>583</ele>
        <time>2018-09-22T07:23:04Z</time>
      </trkpt>
      <trkpt lat="43.56287" lon="5.67333">
        <ele>586.38</ele>
        <time>2018-09-22T07:23:14Z</time>
      </trkpt>
      <trkpt lat="43.56269" lon="5.67326">
        <ele>585.46</ele>
        <time>2018-09-22T07:23:22Z</time>
      </trkpt>
      <trkpt lat="43.5626" lon="5.67303">
        <ele>586.23</ele>
        <time>2018-09-22T07:23:31Z</time>
      </trkpt>
      <trkpt lat="43.56253" lon="5.67278">
        <ele>586.38</ele>
        <time>2018-09-22T07:23:41Z</time>
      </trkpt>
      <trkpt lat="43.56253" lon="5.67251">
        <ele>585.65</ele>
        <time>2018-09-22T07:23:52Z</time>
      </trkpt>
      <trkpt lat="43.5625" lon="5.67223">
        <ele>587.09</ele>
        <time>2018-09-22T07:24:02Z</time>
      </trkpt>
      <trkpt lat="43.5625" lon="5.67198">
        <ele>589.98</ele>
        <time>2018-09-22T07:24:12Z</time>
      </trkpt>
      <trkpt lat="43.56251" lon="5.67172">
        <ele>591.05</ele>
        <time>2018-09-22T07:24:23Z</time>
      </trkpt>
      <trkpt lat="43.5625" lon="5.67145">
        <ele>592.98</ele>
        <time>2018-09-22T07:24:34Z</time>
      </trkpt>
      <trkpt lat="43.56247" lon="5.6712">
        <ele>594.16</ele>
        <time>2018-09-22T07:24:44Z</time>
      </trkpt>
      <trkpt lat="43.56244" lon="5.67092">
        <ele>594.42</ele>
        <time>2018-09-22T07:24:54Z</time>
      </trkpt>
      <trkpt lat="43.56239" lon="5.67065">
        <ele>597.25</ele>
        <time>2018-09-22T07:25:05Z</time>
      </trkpt>
      <trkpt lat="43.56237" lon="5.67039">
        <ele>599.47</ele>
        <time>2018-09-22T07:25:17Z</time>
      </trkpt>
      <trkpt lat="43.56236" lon="5.67011">
        <ele>602.03</ele>
        <time>2018-09-22T07:25:26Z</time>
      </trkpt>
      <trkpt lat="43.56231" lon="5.66987">
        <ele>602.14</ele>
        <time>2018-09-22T07:25:37Z</time>
      </trkpt>
      <trkpt lat="43.5622" lon="5.66967">
        <ele>600.78</ele>
        <time>2018-09-22T07:25:47Z</time>
      </trkpt>
      <trkpt lat="43.56203" lon="5.66953">
        <ele>603.72</ele>
        <time>2018-09-22T07:25:59Z</time>
      </trkpt>
      <trkpt lat="43.56196" lon="5.66928">
        <ele>605.39</ele>
        <time>2018-09-22T07:26:10Z</time>
      </trkpt>
      <trkpt lat="43.56196" lon="5.66899">
        <ele>601.53</ele>
        <time>2018-09-22T07:26:21Z</time>
      </trkpt>
      <trkpt lat="43.56202" lon="5.66873">
        <ele>606.63</ele>
        <time>2018-09-22T07:26:31Z</time>
      </trkpt>
      <trkpt lat="43.56205" lon="5.66848">
        <ele>607.79</ele>
        <time>2018-09-22T07:26:41Z</time>
      </trkpt>
      <trkpt lat="43.56208" lon="5.66821">
        <ele>607.6</ele>
        <time>2018-09-22T07:26:50Z</time>
      </trkpt>
      <trkpt lat="43.56209" lon="5.66795">
        <ele>607.63</ele>
        <time>2018-09-22T07:26:59Z</time>
      </trkpt>
      <trkpt lat="43.56215" lon="5.66769">
        <ele>609.31</ele>
        <time>2018-09-22T07:27:09Z</time>
      </trkpt>
      <trkpt lat="43.56221" lon="5.66746">
        <ele>609.43</ele>
        <time>2018-09-22T07:27:18Z</time>
      </trkpt>
      <trkpt lat="43.56226" lon="5.6672">
        <ele>610.09</ele>
        <time>2018-09-22T07:27:27Z</time>
      </trkpt>
      <trkpt lat="43.56227" lon="5.66694">
        <ele>612.27</ele>
        <time>2018-09-22T07:27:37Z</time>
      </trkpt>
      <trkpt lat="43.56226" lon="5.66667">
        <ele>611.87</ele>
        <time>2018-09-22T07:27:47Z</time>
      </trkpt>
      <trkpt lat="43.56227" lon="5.66641">
        <ele>614.34</ele>
        <time>2018-09-22T07:27:55Z</time>
      </trkpt>
      <trkpt lat="43.56231" lon="5.66616">
        <ele>616.14</ele>
        <time>2018-09-22T07:28:05Z</time>
      </trkpt>
      <trkpt lat="43.56235" lon="5.6659">
        <ele>618.26</ele>
        <time>2018-09-22T07:28:16Z</time>
      </trkpt>
      <trkpt lat="43.56241" lon="5.66566">
        <ele>620.86</ele>
        <time>2018-09-22T07:28:25Z</time>
      </trkpt>
      <trkpt lat="43.56251" lon="5.66543">
        <ele>622.65</ele>
        <time>2018-09-22T07:28:36Z</time>
      </trkpt>
      <trkpt lat="43.56254" lon="5.66516">
        <ele>623.14</ele>
        <time>2018-09-22T07:28:46Z</time>
      </trkpt>
      <trkpt lat="43.56255" lon="5.6649">
        <ele>623.3</ele>
        <time>2018-09-22T07:28:56Z</time>
      </trkpt>
      <trkpt lat="43.56257" lon="5.66463">
        <ele>624.65</ele>
        <time>2018-09-22T07:29:07Z</time>
      </trkpt>
      <trkpt lat="43.56253" lon="5.66436">
        <ele>626.66</ele>
        <time>2018-09-22T07:29:18Z</time>
      </trkpt>
      <trkpt lat="43.56251" lon="5.66412">
        <ele>628.1</ele>
        <time>2018-09-22T07:29:30Z</time>
      </trkpt>
      <trkpt lat="43.56253" lon="5.66386">
        <ele>627.74</ele>
        <time>2018-09-22T07:29:45Z</time>
      </trkpt>
      <trkpt lat="43.56256" lon="5.6636">
        <ele>627.43</ele>
        <time>2018-09-22T07:29:56Z</time>
      </trkpt>
      <trkpt lat="43.56243" lon="5.66339">
        <ele>632.33</ele>
        <time>2018-09-22T07:30:09Z</time>
      </trkpt>
      <trkpt lat="43.56227" lon="5.66323">
        <ele>629.71</ele>
        <time>2018-09-22T07:30:18Z</time>
      </trkpt>
      <trkpt lat="43.56211" lon="5.66311">
        <ele>631.21</ele>
        <time>2018-09-22T07:30:27Z</time>
      </trkpt>
      <trkpt lat="43.56201" lon="5.66289">
        <ele>630.62</ele>
        <time>2018-09-22T07:30:35Z</time>
      </trkpt>
      <trkpt lat="43.56197" lon="5.66264">
        <ele>633.49</ele>
        <time>2018-09-22T07:30:43Z</time>
      </trkpt>
      <trkpt lat="43.5619" lon="5.66241">
        <ele>634.49</ele>
        <time>2018-09-22T07:30:52Z</time>
      </trkpt>
      <trkpt lat="43.56179" lon="5.66219">
        <ele>634.27</ele>
        <time>2018-09-22T07:31:01Z</time>
      </trkpt>
      <trkpt lat="43.56171" lon="5.66196">
        <ele>634.65</ele>
        <time>2018-09-22T07:31:10Z</time>
      </trkpt>
      <trkpt lat="43.56175" lon="5.66171">
        <ele>632.08</ele>
        <time>2018-09-22T07:31:18Z</time>
      </trkpt>
      <trkpt lat="43.56193" lon="5.6617">
        <ele>630.97</ele>
        <time>2018-09-22T07:31:22Z</time>
      </trkpt>
      <trkpt lat="43.56214" lon="5.66169">
        <ele>631.56</ele>
        <time>2018-09-22T07:31:26Z</time>
      </trkpt>
      <trkpt lat="43.56231" lon="5.66157">
        <ele>632.19</ele>
        <time>2018-09-22T07:31:31Z</time>
      </trkpt>
      <trkpt lat="43.56239" lon="5.66131">
        <ele>631.67</ele>
        <time>2018-09-22T07:31:37Z</time>
      </trkpt>
      <trkpt lat="43.5625" lon="5.6611">
        <ele>630.95</ele>
        <time>2018-09-22T07:31:43Z</time>
      </trkpt>
      <trkpt lat="43.56262" lon="5.66089">
        <ele>631.42</ele>
        <time>2018-09-22T07:31:51Z</time>
      </trkpt>
      <trkpt lat="43.56273" lon="5.66066">
        <ele>630.21</ele>
        <time>2018-09-22T07:31:56Z</time>
      </trkpt>
      <trkpt lat="43.56279" lon="5.6604">
        <ele>629.35</ele>
        <time>2018-09-22T07:32:02Z</time>
      </trkpt>
      <trkpt lat="43.56282" lon="5.66013">
        <ele>629.31</ele>
        <time>2018-09-22T07:32:08Z</time>
      </trkpt>
      <trkpt lat="43.56284" lon="5.65985">
        <ele>628.94</ele>
        <time>2018-09-22T07:32:12Z</time>
      </trkpt>
      <trkpt lat="43.56286" lon="5.65953">
        <ele>627.86</ele>
        <time>2018-09-22T07:32:15Z</time>
      </trkpt>
      <trkpt lat="43.56289" lon="5.65926">
        <ele>630.12</ele>
        <time>2018-09-22T07:32:19Z</time>
      </trkpt>
      <trkpt lat="43.56295" lon="5.65899">
        <ele>630.08</ele>
        <time>2018-09-22T07:32:25Z</time>
      </trkpt>
      <trkpt lat="43.56301" lon="5.65875">
        <ele>630.38</ele>
        <time>2018-09-22T07:32:32Z</time>
      </trkpt>
      <trkpt lat="43.56307" lon="5.65849">
        <ele>630.7</ele>
        <time>2018-09-22T07:32:41Z</time>
      </trkpt>
      <trkpt lat="43.56309" lon="5.65821">
        <ele>629.85</ele>
        <time>2018-09-22T07:32:50Z</time>
      </trkpt>
      <trkpt lat="43.56317" lon="5.65797">
        <ele>630.66</ele>
        <time>2018-09-22T07:32:58Z</time>
      </trkpt>
      <trkpt lat="43.56326" lon="5.65771">
        <ele>630.34</ele>
        <time>2018-09-22T07:33:04Z</time>
      </trkpt>
      <trkpt lat="43.56332" lon="5.65747">
        <ele>630.13</ele>
        <time>2018-09-22T07:33:10Z</time>
      </trkpt>
      <trkpt lat="43.56343" lon="5.65725">
        <ele>630.17</ele>
        <time>2018-09-22T07:33:16Z</time>
      </trkpt>
      <trkpt lat="43.56348" lon="5.657">
        <ele>630.13</ele>
        <time>2018-09-22T07:33:22Z</time>
      </trkpt>
      <trkpt lat="43.56352" lon="5.65672">
        <ele>629.77</ele>
        <time>2018-09-22T07:33:29Z</time>
      </trkpt>
      <trkpt lat="43.56351" lon="5.65646">
        <ele>631.08</ele>
        <time>2018-09-22T07:33:36Z</time>
      </trkpt>
      <trkpt lat="43.56349" lon="5.65617">
        <ele>632.97</ele>
        <time>2018-09-22T07:33:43Z</time>
      </trkpt>
      <trkpt lat="43.56345" lon="5.6559">
        <ele>634.53</ele>
        <time>2018-09-22T07:33:50Z</time>
      </trkpt>
      <trkpt lat="43.56341" lon="5.65564">
        <ele>634.92</ele>
        <time>2018-09-22T07:33:58Z</time>
      </trkpt>
      <trkpt lat="43.56347" lon="5.6554">
        <ele>633.81</ele>
        <time>2018-09-22T07:34:07Z</time>
      </trkpt>
      <trkpt lat="43.56364" lon="5.6552">
        <ele>632</ele>
        <time>2018-09-22T07:34:14Z</time>
      </trkpt>
      <trkpt lat="43.56382" lon="5.65506">
        <ele>633.17</ele>
        <time>2018-09-22T07:34:18Z</time>
      </trkpt>
      <trkpt lat="43.56398" lon="5.65494">
        <ele>633.51</ele>
        <time>2018-09-22T07:34:24Z</time>
      </trkpt>
      <trkpt lat="43.56414" lon="5.65479">
        <ele>634.58</ele>
        <time>2018-09-22T07:34:31Z</time>
      </trkpt>
      <trkpt lat="43.5643" lon="5.65465">
        <ele>634.52</ele>
        <time>2018-09-22T07:34:38Z</time>
      </trkpt>
      <trkpt lat="43.56448" lon="5.65454">
        <ele>634.84</ele>
        <time>2018-09-22T07:34:43Z</time>
      </trkpt>
      <trkpt lat="43.56466" lon="5.65435">
        <ele>633.48</ele>
        <time>2018-09-22T07:34:47Z</time>
      </trkpt>
      <trkpt lat="43.56483" lon="5.65419">
        <ele>633.92</ele>
        <time>2018-09-22T07:34:51Z</time>
      </trkpt>
      <trkpt lat="43.565" lon="5.65407">
        <ele>636.77</ele>
        <time>2018-09-22T07:34:56Z</time>
      </trkpt>
      <trkpt lat="43.56516" lon="5.65395">
        <ele>636.96</ele>
        <time>2018-09-22T07:35:02Z</time>
      </trkpt>
      <trkpt lat="43.56531" lon="5.65381">
        <ele>637.71</ele>
        <time>2018-09-22T07:35:10Z</time>
      </trkpt>
      <trkpt lat="43.56548" lon="5.6537">
        <ele>639.52</ele>
        <time>2018-09-22T07:35:17Z</time>
      </trkpt>
      <trkpt lat="43.56566" lon="5.65359">
        <ele>643.3</ele>
        <time>2018-09-22T07:35:26Z</time>
      </trkpt>
      <trkpt lat="43.56583" lon="5.65347">
        <ele>645.79</ele>
        <time>2018-09-22T07:35:36Z</time>
      </trkpt>
      <trkpt lat="43.566" lon="5.65333">
        <ele>642.78</ele>
        <time>2018-09-22T07:35:45Z</time>
      </trkpt>
      <trkpt lat="43.56617" lon="5.6532">
        <ele>644.32</ele>
        <time>2018-09-22T07:35:55Z</time>
      </trkpt>
      <trkpt lat="43.56633" lon="5.65306">
        <ele>645.98</ele>
        <time>2018-09-22T07:36:04Z</time>
      </trkpt>
      <trkpt lat="43.56647" lon="5.65292">
        <ele>645.74</ele>
        <time>2018-09-22T07:36:13Z</time>
      </trkpt>
      <trkpt lat="43.56662" lon="5.65276">
        <ele>647.02</ele>
        <time>2018-09-22T07:36:23Z</time>
      </trkpt>
      <trkpt lat="43.56677" lon="5.65261">
        <ele>647.1</ele>
        <time>2018-09-22T07:36:33Z</time>
      </trkpt>
      <trkpt lat="43.56689" lon="5.65242">
        <ele>647.55</ele>
        <time>2018-09-22T07:36:43Z</time>
      </trkpt>
      <trkpt lat="43.567" lon="5.6522">
        <ele>649.82</ele>
        <time>2018-09-22T07:36:54Z</time>
      </trkpt>
      <trkpt lat="43.56706" lon="5.65197">
        <ele>649.08</ele>
        <time>2018-09-22T07:37:03Z</time>
      </trkpt>
      <trkpt lat="43.56712" lon="5.65173">
        <ele>650.8</ele>
        <time>2018-09-22T07:37:12Z</time>
      </trkpt>
      <trkpt lat="43.56716" lon="5.65148">
        <ele>650.66</ele>
        <time>2018-09-22T07:37:21Z</time>
      </trkpt>
      <trkpt lat="43.56721" lon="5.65121">
        <ele>651.04</ele>
        <time>2018-09-22T07:37:31Z</time>
      </trkpt>
      <trkpt lat="43.56726" lon="5.65096">
        <ele>652.03</ele>
        <time>2018-09-22T07:37:40Z</time>
      </trkpt>
      <trkpt lat="43.56733" lon="5.65071">
        <ele>652.67</ele>
        <time>2018-09-22T07:37:49Z</time>
      </trkpt>
      <trkpt lat="43.56734" lon="5.65043">
        <ele>655.81</ele>
        <time>2018-09-22T07:37:58Z</time>
      </trkpt>
      <trkpt lat="43.56739" lon="5.65018">
        <ele>656.2</ele>
        <time>2018-09-22T07:38:07Z</time>
      </trkpt>
      <trkpt lat="43.56744" lon="5.64993">
        <ele>657.55</ele>
        <time>2018-09-22T07:38:15Z</time>
      </trkpt>
      <trkpt lat="43.56749" lon="5.64966">
        <ele>657.04</ele>
        <time>2018-09-22T07:38:23Z</time>
      </trkpt>
      <trkpt lat="43.56753" lon="5.64941">
        <ele>657.21</ele>
        <time>2018-09-22T07:38:30Z</time>
      </trkpt>
      <trkpt lat="43.56757" lon="5.64915">
        <ele>656.64</ele>
        <time>2018-09-22T07:38:36Z</time>
      </trkpt>
      <trkpt lat="43.56763" lon="5.64889">
        <ele>655.2</ele>
        <time>2018-09-22T07:38:41Z</time>
      </trkpt>
      <trkpt lat="43.56768" lon="5.64862">
        <ele>654.71</ele>
        <time>2018-09-22T07:38:46Z</time>
      </trkpt>
      <trkpt lat="43.56772" lon="5.64834">
        <ele>654.01</ele>
        <time>2018-09-22T07:38:51Z</time>
      </trkpt>
      <trkpt lat="43.56777" lon="5.64808">
        <ele>653.76</ele>
        <time>2018-09-22T07:38:56Z</time>
      </trkpt>
      <trkpt lat="43.56782" lon="5.64783">
        <ele>653.93</ele>
        <time>2018-09-22T07:39:01Z</time>
      </trkpt>
      <trkpt lat="43.56788" lon="5.64754">
        <ele>653.1</ele>
        <time>2018-09-22T07:39:06Z</time>
      </trkpt>
      <trkpt lat="43.56793" lon="5.64726">
        <ele>652.35</ele>
        <time>2018-09-22T07:39:11Z</time>
      </trkpt>
      <trkpt lat="43.56798" lon="5.64698">
        <ele>651.22</ele>
        <time>2018-09-22T07:39:16Z</time>
      </trkpt>
      <trkpt lat="43.56805" lon="5.6467">
        <ele>649.2</ele>
        <time>2018-09-22T07:39:21Z</time>
      </trkpt>
      <trkpt lat="43.5681" lon="5.64639">
        <ele>648.66</ele>
        <time>2018-09-22T07:39:26Z</time>
      </trkpt>
      <trkpt lat="43.56813" lon="5.64614">
        <ele>648.06</ele>
        <time>2018-09-22T07:39:30Z</time>
      </trkpt>
      <trkpt lat="43.56818" lon="5.64588">
        <ele>648.35</ele>
        <time>2018-09-22T07:39:35Z</time>
      </trkpt>
      <trkpt lat="43.56824" lon="5.64562">
        <ele>649.38</ele>
        <time>2018-09-22T07:39:41Z</time>
      </trkpt>
      <trkpt lat="43.56832" lon="5.64539">
        <ele>647.68</ele>
        <time>2018-09-22T07:39:49Z</time>
      </trkpt>
      <trkpt lat="43.5681" lon="5.64529">
        <ele>646.24</ele>
        <time>2018-09-22T07:41:25Z</time>
      </trkpt>
      <trkpt lat="43.56793" lon="5.64521">
        <ele>646.11</ele>
        <time>2018-09-22T07:41:29Z</time>
      </trkpt>
      <trkpt lat="43.56775" lon="5.64514">
        <ele>645.96</ele>
        <time>2018-09-22T07:41:35Z</time>
      </trkpt>
      <trkpt lat="43.56752" lon="5.64505">
        <ele>644.93</ele>
        <time>2018-09-22T07:41:40Z</time>
      </trkpt>
      <trkpt lat="43.56735" lon="5.64495">
        <ele>643.41</ele>
        <time>2018-09-22T07:41:44Z</time>
      </trkpt>
      <trkpt lat="43.56718" lon="5.64484">
        <ele>651.68</ele>
        <time>2018-09-22T07:41:56Z</time>
      </trkpt>
      <trkpt lat="43.56721" lon="5.64459">
        <ele>651.66</ele>
        <time>2018-09-22T07:42:18Z</time>
      </trkpt>
      <trkpt lat="43.56721" lon="5.64433">
        <ele>652.36</ele>
        <time>2018-09-22T07:42:30Z</time>
      </trkpt>
      <trkpt lat="43.56717" lon="5.64407">
        <ele>649.61</ele>
        <time>2018-09-22T07:42:38Z</time>
      </trkpt>
      <trkpt lat="43.56718" lon="5.64379">
        <ele>650.46</ele>
        <time>2018-09-22T07:42:46Z</time>
      </trkpt>
      <trkpt lat="43.56719" lon="5.64353">
        <ele>650.94</ele>
        <time>2018-09-22T07:42:53Z</time>
      </trkpt>
      <trkpt lat="43.56722" lon="5.64327">
        <ele>650.35</ele>
        <time>2018-09-22T07:42:59Z</time>
      </trkpt>
      <trkpt lat="43.5672" lon="5.64302">
        <ele>650.97</ele>
        <time>2018-09-22T07:43:05Z</time>
      </trkpt>
      <trkpt lat="43.56712" lon="5.64279">
        <ele>651.09</ele>
        <time>2018-09-22T07:43:11Z</time>
      </trkpt>
      <trkpt lat="43.56705" lon="5.64252">
        <ele>651.81</ele>
        <time>2018-09-22T07:43:17Z</time>
      </trkpt>
      <trkpt lat="43.56698" lon="5.64225">
        <ele>651.57</ele>
        <time>2018-09-22T07:43:23Z</time>
      </trkpt>
      <trkpt lat="43.56691" lon="5.64199">
        <ele>652.7</ele>
        <time>2018-09-22T07:43:29Z</time>
      </trkpt>
      <trkpt lat="43.56684" lon="5.64175">
        <ele>653.85</ele>
        <time>2018-09-22T07:43:34Z</time>
      </trkpt>
      <trkpt lat="43.56678" lon="5.6415">
        <ele>655.46</ele>
        <time>2018-09-22T07:43:40Z</time>
      </trkpt>
      <trkpt lat="43.56668" lon="5.64129">
        <ele>656.92</ele>
        <time>2018-09-22T07:43:45Z</time>
      </trkpt>
      <trkpt lat="43.5666" lon="5.64101">
        <ele>656.95</ele>
        <time>2018-09-22T07:43:51Z</time>
      </trkpt>
      <trkpt lat="43.56657" lon="5.64074">
        <ele>654.8</ele>
        <time>2018-09-22T07:43:57Z</time>
      </trkpt>
      <trkpt lat="43.56656" lon="5.64047">
        <ele>653.75</ele>
        <time>2018-09-22T07:44:02Z</time>
      </trkpt>
      <trkpt lat="43.56653" lon="5.64019">
        <ele>652.72</ele>
        <time>2018-09-22T07:44:07Z</time>
      </trkpt>
      <trkpt lat="43.5665" lon="5.6399">
        <ele>651.42</ele>
        <time>2018-09-22T07:44:12Z</time>
      </trkpt>
      <trkpt lat="43.5665" lon="5.63962">
        <ele>651.21</ele>
        <time>2018-09-22T07:44:16Z</time>
      </trkpt>
      <trkpt lat="43.5665" lon="5.63936">
        <ele>650</ele>
        <time>2018-09-22T07:44:20Z</time>
      </trkpt>
      <trkpt lat="43.56651" lon="5.63908">
        <ele>648.57</ele>
        <time>2018-09-22T07:44:24Z</time>
      </trkpt>
      <trkpt lat="43.56649" lon="5.63883">
        <ele>648.33</ele>
        <time>2018-09-22T07:44:28Z</time>
      </trkpt>
      <trkpt lat="43.56649" lon="5.63855">
        <ele>649.13</ele>
        <time>2018-09-22T07:44:32Z</time>
      </trkpt>
      <trkpt lat="43.56649" lon="5.63828">
        <ele>647.11</ele>
        <time>2018-09-22T07:44:36Z</time>
      </trkpt>
      <trkpt lat="43.56646" lon="5.63803">
        <ele>644.3</ele>
        <time>2018-09-22T07:44:39Z</time>
      </trkpt>
      <trkpt lat="43.56649" lon="5.63778">
        <ele>642.94</ele>
        <time>2018-09-22T07:44:42Z</time>
      </trkpt>
      <trkpt lat="43.56651" lon="5.63752">
        <ele>641.67</ele>
        <time>2018-09-22T07:44:45Z</time>
      </trkpt>
      <trkpt lat="43.56653" lon="5.63725">
        <ele>640.26</ele>
        <time>2018-09-22T07:44:48Z</time>
      </trkpt>
      <trkpt lat="43.56655" lon="5.63698">
        <ele>639.78</ele>
        <time>2018-09-22T07:44:51Z</time>
      </trkpt>
      <trkpt lat="43.5666" lon="5.6367">
        <ele>639.36</ele>
        <time>2018-09-22T07:44:53Z</time>
      </trkpt>
      <trkpt lat="43.56666" lon="5.63643">
        <ele>639.86</ele>
        <time>2018-09-22T07:44:57Z</time>
      </trkpt>
      <trkpt lat="43.56671" lon="5.63617">
        <ele>639.37</ele>
        <time>2018-09-22T07:45:00Z</time>
      </trkpt>
      <trkpt lat="43.56677" lon="5.63593">
        <ele>638.81</ele>
        <time>2018-09-22T07:45:03Z</time>
      </trkpt>
      <trkpt lat="43.56695" lon="5.63588">
        <ele>640.35</ele>
        <time>2018-09-22T07:45:08Z</time>
      </trkpt>
      <trkpt lat="43.56709" lon="5.6357">
        <ele>639.07</ele>
        <time>2018-09-22T07:45:15Z</time>
      </trkpt>
      <trkpt lat="43.56728" lon="5.63555">
        <ele>637.42</ele>
        <time>2018-09-22T07:45:20Z</time>
      </trkpt>
      <trkpt lat="43.56735" lon="5.63526">
        <ele>636.1</ele>
        <time>2018-09-22T07:45:23Z</time>
      </trkpt>
      <trkpt lat="43.56738" lon="5.63496">
        <ele>635.41</ele>
        <time>2018-09-22T07:45:26Z</time>
      </trkpt>
      <trkpt lat="43.56748" lon="5.63472">
        <ele>633.27</ele>
        <time>2018-09-22T07:45:31Z</time>
      </trkpt>
      <trkpt lat="43.56757" lon="5.63448">
        <ele>633.13</ele>
        <time>2018-09-22T07:45:35Z</time>
      </trkpt>
      <trkpt lat="43.56768" lon="5.63424">
        <ele>634.77</ele>
        <time>2018-09-22T07:45:39Z</time>
      </trkpt>
      <trkpt lat="43.56773" lon="5.63399">
        <ele>632.39</ele>
        <time>2018-09-22T07:45:43Z</time>
      </trkpt>
      <trkpt lat="43.56774" lon="5.6337">
        <ele>632.08</ele>
        <time>2018-09-22T07:45:47Z</time>
      </trkpt>
      <trkpt lat="43.56774" lon="5.63344">
        <ele>630.35</ele>
        <time>2018-09-22T07:45:50Z</time>
      </trkpt>
      <trkpt lat="43.56778" lon="5.63317">
        <ele>628.41</ele>
        <time>2018-09-22T07:45:53Z</time>
      </trkpt>
      <trkpt lat="43.56786" lon="5.63288">
        <ele>625.88</ele>
        <time>2018-09-22T07:45:56Z</time>
      </trkpt>
      <trkpt lat="43.56796" lon="5.63263">
        <ele>622.96</ele>
        <time>2018-09-22T07:45:59Z</time>
      </trkpt>
      <trkpt lat="43.5681" lon="5.63239">
        <ele>622.88</ele>
        <time>2018-09-22T07:46:02Z</time>
      </trkpt>
      <trkpt lat="43.56822" lon="5.63211">
        <ele>619.2</ele>
        <time>2018-09-22T07:46:05Z</time>
      </trkpt>
      <trkpt lat="43.56828" lon="5.63177">
        <ele>616.81</ele>
        <time>2018-09-22T07:46:08Z</time>
      </trkpt>
      <trkpt lat="43.56833" lon="5.63144">
        <ele>615.56</ele>
        <time>2018-09-22T07:46:10Z</time>
      </trkpt>
      <trkpt lat="43.56841" lon="5.63111">
        <ele>615.08</ele>
        <time>2018-09-22T07:46:14Z</time>
      </trkpt>
      <trkpt lat="43.56855" lon="5.63086">
        <ele>613.32</ele>
        <time>2018-09-22T07:46:17Z</time>
      </trkpt>
      <trkpt lat="43.5686" lon="5.63061">
        <ele>611.87</ele>
        <time>2018-09-22T07:46:19Z</time>
      </trkpt>
      <trkpt lat="43.56866" lon="5.63036">
        <ele>609.48</ele>
        <time>2018-09-22T07:46:21Z</time>
      </trkpt>
      <trkpt lat="43.56871" lon="5.63011">
        <ele>607.93</ele>
        <time>2018-09-22T07:46:23Z</time>
      </trkpt>
      <trkpt lat="43.56875" lon="5.62986">
        <ele>606.13</ele>
        <time>2018-09-22T07:46:25Z</time>
      </trkpt>
      <trkpt lat="43.56879" lon="5.6296">
        <ele>602.71</ele>
        <time>2018-09-22T07:46:27Z</time>
      </trkpt>
      <trkpt lat="43.56882" lon="5.62934">
        <ele>600.29</ele>
        <time>2018-09-22T07:46:29Z</time>
      </trkpt>
      <trkpt lat="43.56885" lon="5.62906">
        <ele>598.23</ele>
        <time>2018-09-22T07:46:31Z</time>
      </trkpt>
      <trkpt lat="43.56889" lon="5.62878">
        <ele>596.38</ele>
        <time>2018-09-22T07:46:33Z</time>
      </trkpt>
      <trkpt lat="43.56893" lon="5.62852">
        <ele>594.25</ele>
        <time>2018-09-22T07:46:35Z</time>
      </trkpt>
      <trkpt lat="43.56897" lon="5.62823">
        <ele>592.67</ele>
        <time>2018-09-22T07:46:37Z</time>
      </trkpt>
      <trkpt lat="43.56901" lon="5.62795">
        <ele>590.69</ele>
        <time>2018-09-22T07:46:39Z</time>
      </trkpt>
      <trkpt lat="43.56903" lon="5.62768">
        <ele>589.87</ele>
        <time>2018-09-22T07:46:41Z</time>
      </trkpt>
      <trkpt lat="43.56905" lon="5.62741">
        <ele>588.37</ele>
        <time>2018-09-22T07:46:43Z</time>
      </trkpt>
      <trkpt lat="43.56907" lon="5.62716">
        <ele>586.17</ele>
        <time>2018-09-22T07:46:45Z</time>
      </trkpt>
      <trkpt lat="43.56907" lon="5.62691">
        <ele>583.47</ele>
        <time>2018-09-22T07:46:47Z</time>
      </trkpt>
      <trkpt lat="43.56907" lon="5.62662">
        <ele>582.05</ele>
        <time>2018-09-22T07:46:49Z</time>
      </trkpt>
      <trkpt lat="43.56904" lon="5.62635">
        <ele>581.12</ele>
        <time>2018-09-22T07:46:51Z</time>
      </trkpt>
      <trkpt lat="43.56901" lon="5.62607">
        <ele>581.31</ele>
        <time>2018-09-22T07:46:53Z</time>
      </trkpt>
      <trkpt lat="43.569" lon="5.62577">
        <ele>580.8</ele>
        <time>2018-09-22T07:46:55Z</time>
      </trkpt>
      <trkpt lat="43.56897" lon="5.62541">
        <ele>579.7</ele>
        <time>2018-09-22T07:46:58Z</time>
      </trkpt>
      <trkpt lat="43.56905" lon="5.6251">
        <ele>579.03</ele>
        <time>2018-09-22T07:47:01Z</time>
      </trkpt>
      <trkpt lat="43.56914" lon="5.6248">
        <ele>578.43</ele>
        <time>2018-09-22T07:47:04Z</time>
      </trkpt>
      <trkpt lat="43.56925" lon="5.6245">
        <ele>577.79</ele>
        <time>2018-09-22T07:47:07Z</time>
      </trkpt>
      <trkpt lat="43.56943" lon="5.62446">
        <ele>576.64</ele>
        <time>2018-09-22T07:47:09Z</time>
      </trkpt>
      <trkpt lat="43.56958" lon="5.6246">
        <ele>576.88</ele>
        <time>2018-09-22T07:47:13Z</time>
      </trkpt>
      <trkpt lat="43.56978" lon="5.62475">
        <ele>575.97</ele>
        <time>2018-09-22T07:47:19Z</time>
      </trkpt>
      <trkpt lat="43.56996" lon="5.62482">
        <ele>574.35</ele>
        <time>2018-09-22T07:47:23Z</time>
      </trkpt>
      <trkpt lat="43.57015" lon="5.62495">
        <ele>573.96</ele>
        <time>2018-09-22T07:47:27Z</time>
      </trkpt>
      <trkpt lat="43.5703" lon="5.6251">
        <ele>571.39</ele>
        <time>2018-09-22T07:47:30Z</time>
      </trkpt>
      <trkpt lat="43.57046" lon="5.62528">
        <ele>570.44</ele>
        <time>2018-09-22T07:47:33Z</time>
      </trkpt>
      <trkpt lat="43.57062" lon="5.62547">
        <ele>569.87</ele>
        <time>2018-09-22T07:47:36Z</time>
      </trkpt>
      <trkpt lat="43.57076" lon="5.6257">
        <ele>569.55</ele>
        <time>2018-09-22T07:47:39Z</time>
      </trkpt>
      <trkpt lat="43.57097" lon="5.62592">
        <ele>569.13</ele>
        <time>2018-09-22T07:47:42Z</time>
      </trkpt>
      <trkpt lat="43.57118" lon="5.62606">
        <ele>569.03</ele>
        <time>2018-09-22T07:47:45Z</time>
      </trkpt>
      <trkpt lat="43.57141" lon="5.62615">
        <ele>569.02</ele>
        <time>2018-09-22T07:47:49Z</time>
      </trkpt>
      <trkpt lat="43.57162" lon="5.62603">
        <ele>568.97</ele>
        <time>2018-09-22T07:47:52Z</time>
      </trkpt>
      <trkpt lat="43.57181" lon="5.62594">
        <ele>566.51</ele>
        <time>2018-09-22T07:47:55Z</time>
      </trkpt>
      <trkpt lat="43.57198" lon="5.62585">
        <ele>565.71</ele>
        <time>2018-09-22T07:48:00Z</time>
      </trkpt>
      <trkpt lat="43.57217" lon="5.62581">
        <ele>562.72</ele>
        <time>2018-09-22T07:48:04Z</time>
      </trkpt>
      <trkpt lat="43.57232" lon="5.62563">
        <ele>562</ele>
        <time>2018-09-22T07:48:13Z</time>
      </trkpt>
      <trkpt lat="43.57244" lon="5.6254">
        <ele>561.54</ele>
        <time>2018-09-22T07:48:26Z</time>
      </trkpt>
      <trkpt lat="43.57251" lon="5.62516">
        <ele>567.52</ele>
        <time>2018-09-22T07:48:35Z</time>
      </trkpt>
      <trkpt lat="43.57266" lon="5.62501">
        <ele>568.9</ele>
        <time>2018-09-22T07:48:46Z</time>
      </trkpt>
      <trkpt lat="43.57281" lon="5.62482">
        <ele>569.55</ele>
        <time>2018-09-22T07:48:53Z</time>
      </trkpt>
      <trkpt lat="43.57295" lon="5.62464">
        <ele>569.19</ele>
        <time>2018-09-22T07:49:04Z</time>
      </trkpt>
      <trkpt lat="43.57299" lon="5.62439">
        <ele>572.06</ele>
        <time>2018-09-22T07:49:11Z</time>
      </trkpt>
      <trkpt lat="43.5731" lon="5.62415">
        <ele>575.53</ele>
        <time>2018-09-22T07:49:21Z</time>
      </trkpt>
      <trkpt lat="43.5732" lon="5.62393">
        <ele>575.47</ele>
        <time>2018-09-22T07:54:34Z</time>
      </trkpt>
      <trkpt lat="43.5731" lon="5.6237">
        <ele>575.33</ele>
        <time>2018-09-22T07:54:42Z</time>
      </trkpt>
      <trkpt lat="43.57305" lon="5.62345">
        <ele>578.41</ele>
        <time>2018-09-22T07:54:51Z</time>
      </trkpt>
      <trkpt lat="43.57306" lon="5.62318">
        <ele>577.72</ele>
        <time>2018-09-22T07:55:00Z</time>
      </trkpt>
      <trkpt lat="43.57313" lon="5.62294">
        <ele>576.38</ele>
        <time>2018-09-22T07:55:05Z</time>
      </trkpt>
      <trkpt lat="43.57319" lon="5.62267">
        <ele>576.44</ele>
        <time>2018-09-22T07:55:10Z</time>
      </trkpt>
      <trkpt lat="43.57326" lon="5.62242">
        <ele>575.37</ele>
        <time>2018-09-22T07:55:14Z</time>
      </trkpt>
      <trkpt lat="43.57334" lon="5.62217">
        <ele>574.98</ele>
        <time>2018-09-22T07:55:18Z</time>
      </trkpt>
      <trkpt lat="43.5734" lon="5.62187">
        <ele>573.93</ele>
        <time>2018-09-22T07:55:22Z</time>
      </trkpt>
      <trkpt lat="43.57348" lon="5.62162">
        <ele>572.1</ele>
        <time>2018-09-22T07:55:26Z</time>
      </trkpt>
      <trkpt lat="43.57358" lon="5.62136">
        <ele>572.19</ele>
        <time>2018-09-22T07:55:31Z</time>
      </trkpt>
      <trkpt lat="43.57361" lon="5.62106">
        <ele>572.79</ele>
        <time>2018-09-22T07:55:35Z</time>
      </trkpt>
      <trkpt lat="43.57368" lon="5.62074">
        <ele>572.43</ele>
        <time>2018-09-22T07:55:39Z</time>
      </trkpt>
      <trkpt lat="43.57375" lon="5.62047">
        <ele>572.64</ele>
        <time>2018-09-22T07:55:43Z</time>
      </trkpt>
      <trkpt lat="43.57382" lon="5.62021">
        <ele>572.54</ele>
        <time>2018-09-22T07:55:47Z</time>
      </trkpt>
      <trkpt lat="43.57386" lon="5.61996">
        <ele>570.9</ele>
        <time>2018-09-22T07:55:51Z</time>
      </trkpt>
      <trkpt lat="43.57395" lon="5.61974">
        <ele>568.18</ele>
        <time>2018-09-22T07:55:55Z</time>
      </trkpt>
      <trkpt lat="43.57397" lon="5.61947">
        <ele>568.2</ele>
        <time>2018-09-22T07:55:59Z</time>
      </trkpt>
      <trkpt lat="43.57394" lon="5.61917">
        <ele>566.72</ele>
        <time>2018-09-22T07:56:03Z</time>
      </trkpt>
      <trkpt lat="43.57393" lon="5.61887">
        <ele>565.84</ele>
        <time>2018-09-22T07:56:07Z</time>
      </trkpt>
      <trkpt lat="43.57391" lon="5.61857">
        <ele>565.47</ele>
        <time>2018-09-22T07:56:11Z</time>
      </trkpt>
      <trkpt lat="43.57384" lon="5.61832">
        <ele>563.71</ele>
        <time>2018-09-22T07:56:15Z</time>
      </trkpt>
      <trkpt lat="43.57375" lon="5.61801">
        <ele>563.44</ele>
        <time>2018-09-22T07:56:19Z</time>
      </trkpt>
      <trkpt lat="43.57367" lon="5.61778">
        <ele>563.26</ele>
        <time>2018-09-22T07:56:22Z</time>
      </trkpt>
      <trkpt lat="43.57358" lon="5.61749">
        <ele>557.35</ele>
        <time>2018-09-22T07:56:27Z</time>
      </trkpt>
      <trkpt lat="43.57349" lon="5.61726">
        <ele>550.51</ele>
        <time>2018-09-22T07:56:32Z</time>
      </trkpt>
      <trkpt lat="43.57331" lon="5.61715">
        <ele>549.98</ele>
        <time>2018-09-22T07:56:37Z</time>
      </trkpt>
      <trkpt lat="43.57343" lon="5.61695">
        <ele>552.42</ele>
        <time>2018-09-22T07:56:56Z</time>
      </trkpt>
      <trkpt lat="43.57354" lon="5.61672">
        <ele>553.69</ele>
        <time>2018-09-22T07:57:04Z</time>
      </trkpt>
      <trkpt lat="43.57359" lon="5.61645">
        <ele>554.3</ele>
        <time>2018-09-22T07:57:15Z</time>
      </trkpt>
      <trkpt lat="43.57358" lon="5.6162">
        <ele>559.53</ele>
        <time>2018-09-22T07:57:27Z</time>
      </trkpt>
      <trkpt lat="43.57353" lon="5.61596">
        <ele>564.59</ele>
        <time>2018-09-22T07:57:36Z</time>
      </trkpt>
      <trkpt lat="43.5735" lon="5.61571">
        <ele>566.4</ele>
        <time>2018-09-22T07:57:46Z</time>
      </trkpt>
      <trkpt lat="43.57348" lon="5.61545">
        <ele>565.32</ele>
        <time>2018-09-22T07:57:57Z</time>
      </trkpt>
      <trkpt lat="43.57344" lon="5.61521">
        <ele>564.23</ele>
        <time>2018-09-22T07:58:06Z</time>
      </trkpt>
      <trkpt lat="43.57341" lon="5.61494">
        <ele>566.96</ele>
        <time>2018-09-22T07:58:17Z</time>
      </trkpt>
      <trkpt lat="43.5734" lon="5.61467">
        <ele>565.09</ele>
        <time>2018-09-22T07:58:30Z</time>
      </trkpt>
      <trkpt lat="43.57337" lon="5.6144">
        <ele>565.7</ele>
        <time>2018-09-22T07:58:42Z</time>
      </trkpt>
      <trkpt lat="43.57342" lon="5.61413">
        <ele>569.31</ele>
        <time>2018-09-22T07:58:57Z</time>
      </trkpt>
      <trkpt lat="43.57345" lon="5.61387">
        <ele>573.1</ele>
        <time>2018-09-22T07:59:09Z</time>
      </trkpt>
      <trkpt lat="43.57348" lon="5.61361">
        <ele>575.62</ele>
        <time>2018-09-22T07:59:20Z</time>
      </trkpt>
      <trkpt lat="43.57348" lon="5.61335">
        <ele>577.09</ele>
        <time>2018-09-22T07:59:30Z</time>
      </trkpt>
      <trkpt lat="43.5735" lon="5.61308">
        <ele>577.83</ele>
        <time>2018-09-22T07:59:42Z</time>
      </trkpt>
      <trkpt lat="43.57355" lon="5.61282">
        <ele>576.14</ele>
        <time>2018-09-22T07:59:53Z</time>
      </trkpt>
      <trkpt lat="43.57361" lon="5.61253">
        <ele>577.05</ele>
        <time>2018-09-22T08:00:03Z</time>
      </trkpt>
      <trkpt lat="43.57366" lon="5.61228">
        <ele>577.87</ele>
        <time>2018-09-22T08:00:11Z</time>
      </trkpt>
      <trkpt lat="43.57372" lon="5.61201">
        <ele>579.53</ele>
        <time>2018-09-22T08:00:19Z</time>
      </trkpt>
      <trkpt lat="43.57378" lon="5.61175">
        <ele>578.77</ele>
        <time>2018-09-22T08:00:27Z</time>
      </trkpt>
      <trkpt lat="43.57382" lon="5.61148">
        <ele>581.67</ele>
        <time>2018-09-22T08:00:35Z</time>
      </trkpt>
      <trkpt lat="43.5739" lon="5.61122">
        <ele>580.59</ele>
        <time>2018-09-22T08:00:43Z</time>
      </trkpt>
      <trkpt lat="43.57393" lon="5.61097">
        <ele>579.42</ele>
        <time>2018-09-22T08:00:49Z</time>
      </trkpt>
      <trkpt lat="43.57399" lon="5.61071">
        <ele>581.26</ele>
        <time>2018-09-22T08:00:57Z</time>
      </trkpt>
      <trkpt lat="43.57405" lon="5.61045">
        <ele>582.06</ele>
        <time>2018-09-22T08:01:04Z</time>
      </trkpt>
      <trkpt lat="43.57411" lon="5.61021">
        <ele>580.7</ele>
        <time>2018-09-22T08:01:10Z</time>
      </trkpt>
      <trkpt lat="43.57418" lon="5.60996">
        <ele>580.07</ele>
        <time>2018-09-22T08:01:17Z</time>
      </trkpt>
      <trkpt lat="43.57422" lon="5.60966">
        <ele>581.67</ele>
        <time>2018-09-22T08:01:24Z</time>
      </trkpt>
      <trkpt lat="43.57425" lon="5.60939">
        <ele>581.57</ele>
        <time>2018-09-22T08:01:32Z</time>
      </trkpt>
      <trkpt lat="43.57427" lon="5.60912">
        <ele>580.44</ele>
        <time>2018-09-22T08:01:39Z</time>
      </trkpt>
      <trkpt lat="43.57429" lon="5.60886">
        <ele>580.61</ele>
        <time>2018-09-22T08:01:45Z</time>
      </trkpt>
      <trkpt lat="43.5743" lon="5.6086">
        <ele>581.37</ele>
        <time>2018-09-22T08:01:49Z</time>
      </trkpt>
      <trkpt lat="43.5743" lon="5.60834">
        <ele>582.3</ele>
        <time>2018-09-22T08:01:53Z</time>
      </trkpt>
      <trkpt lat="43.57433" lon="5.60809">
        <ele>582.03</ele>
        <time>2018-09-22T08:01:59Z</time>
      </trkpt>
      <trkpt lat="43.57433" lon="5.60782">
        <ele>582.41</ele>
        <time>2018-09-22T08:02:06Z</time>
      </trkpt>
      <trkpt lat="43.57426" lon="5.60756">
        <ele>581.58</ele>
        <time>2018-09-22T08:02:12Z</time>
      </trkpt>
      <trkpt lat="43.57422" lon="5.60725">
        <ele>581.02</ele>
        <time>2018-09-22T08:02:17Z</time>
      </trkpt>
      <trkpt lat="43.57415" lon="5.60701">
        <ele>581.21</ele>
        <time>2018-09-22T08:02:21Z</time>
      </trkpt>
      <trkpt lat="43.57407" lon="5.60676">
        <ele>580.69</ele>
        <time>2018-09-22T08:02:26Z</time>
      </trkpt>
      <trkpt lat="43.57401" lon="5.60647">
        <ele>580.3</ele>
        <time>2018-09-22T08:02:31Z</time>
      </trkpt>
      <trkpt lat="43.57394" lon="5.60621">
        <ele>580.6</ele>
        <time>2018-09-22T08:02:35Z</time>
      </trkpt>
      <trkpt lat="43.57388" lon="5.60593">
        <ele>578.78</ele>
        <time>2018-09-22T08:02:39Z</time>
      </trkpt>
      <trkpt lat="43.57383" lon="5.60566">
        <ele>576.88</ele>
        <time>2018-09-22T08:02:43Z</time>
      </trkpt>
      <trkpt lat="43.57379" lon="5.60535">
        <ele>576.43</ele>
        <time>2018-09-22T08:02:47Z</time>
      </trkpt>
      <trkpt lat="43.57377" lon="5.60505">
        <ele>576.42</ele>
        <time>2018-09-22T08:02:51Z</time>
      </trkpt>
      <trkpt lat="43.57369" lon="5.60476">
        <ele>576.09</ele>
        <time>2018-09-22T08:02:55Z</time>
      </trkpt>
      <trkpt lat="43.57363" lon="5.60447">
        <ele>576.28</ele>
        <time>2018-09-22T08:03:00Z</time>
      </trkpt>
      <trkpt lat="43.57364" lon="5.6042">
        <ele>576.86</ele>
        <time>2018-09-22T08:03:06Z</time>
      </trkpt>
      <trkpt lat="43.57354" lon="5.60397">
        <ele>576.59</ele>
        <time>2018-09-22T08:03:12Z</time>
      </trkpt>
      <trkpt lat="43.57343" lon="5.60374">
        <ele>576.72</ele>
        <time>2018-09-22T08:03:19Z</time>
      </trkpt>
      <trkpt lat="43.57331" lon="5.60353">
        <ele>579.18</ele>
        <time>2018-09-22T08:03:25Z</time>
      </trkpt>
      <trkpt lat="43.57322" lon="5.6033">
        <ele>581.79</ele>
        <time>2018-09-22T08:03:31Z</time>
      </trkpt>
      <trkpt lat="43.57313" lon="5.60306">
        <ele>581.6</ele>
        <time>2018-09-22T08:03:37Z</time>
      </trkpt>
      <trkpt lat="43.57305" lon="5.60282">
        <ele>581.23</ele>
        <time>2018-09-22T08:03:43Z</time>
      </trkpt>
      <trkpt lat="43.57302" lon="5.60255">
        <ele>580.84</ele>
        <time>2018-09-22T08:03:49Z</time>
      </trkpt>
      <trkpt lat="43.57306" lon="5.60227">
        <ele>582.05</ele>
        <time>2018-09-22T08:03:55Z</time>
      </trkpt>
      <trkpt lat="43.57308" lon="5.60201">
        <ele>582.92</ele>
        <time>2018-09-22T08:04:01Z</time>
      </trkpt>
      <trkpt lat="43.57304" lon="5.60173">
        <ele>582.56</ele>
        <time>2018-09-22T08:04:06Z</time>
      </trkpt>
      <trkpt lat="43.57303" lon="5.60148">
        <ele>583.82</ele>
        <time>2018-09-22T08:04:12Z</time>
      </trkpt>
      <trkpt lat="43.57295" lon="5.60124">
        <ele>582.21</ele>
        <time>2018-09-22T08:04:16Z</time>
      </trkpt>
      <trkpt lat="43.57287" lon="5.60098">
        <ele>581.31</ele>
        <time>2018-09-22T08:04:21Z</time>
      </trkpt>
      <trkpt lat="43.57282" lon="5.60073">
        <ele>581.48</ele>
        <time>2018-09-22T08:04:26Z</time>
      </trkpt>
      <trkpt lat="43.5727" lon="5.60048">
        <ele>581.54</ele>
        <time>2018-09-22T08:04:32Z</time>
      </trkpt>
      <trkpt lat="43.57258" lon="5.60028">
        <ele>580.88</ele>
        <time>2018-09-22T08:04:36Z</time>
      </trkpt>
      <trkpt lat="43.57247" lon="5.60003">
        <ele>580.22</ele>
        <time>2018-09-22T08:04:42Z</time>
      </trkpt>
      <trkpt lat="43.57239" lon="5.59979">
        <ele>578.8</ele>
        <time>2018-09-22T08:04:46Z</time>
      </trkpt>
      <trkpt lat="43.57225" lon="5.59963">
        <ele>577.84</ele>
        <time>2018-09-22T08:04:50Z</time>
      </trkpt>
      <trkpt lat="43.57207" lon="5.59955">
        <ele>578.15</ele>
        <time>2018-09-22T08:04:54Z</time>
      </trkpt>
      <trkpt lat="43.57189" lon="5.59949">
        <ele>574.69</ele>
        <time>2018-09-22T08:04:58Z</time>
      </trkpt>
      <trkpt lat="43.5717" lon="5.5995">
        <ele>576.13</ele>
        <time>2018-09-22T08:05:02Z</time>
      </trkpt>
      <trkpt lat="43.57147" lon="5.59941">
        <ele>574.16</ele>
        <time>2018-09-22T08:05:07Z</time>
      </trkpt>
      <trkpt lat="43.57129" lon="5.59922">
        <ele>573.92</ele>
        <time>2018-09-22T08:05:11Z</time>
      </trkpt>
      <trkpt lat="43.57117" lon="5.59898">
        <ele>573.26</ele>
        <time>2018-09-22T08:05:15Z</time>
      </trkpt>
      <trkpt lat="43.57112" lon="5.59872">
        <ele>574.17</ele>
        <time>2018-09-22T08:05:18Z</time>
      </trkpt>
      <trkpt lat="43.57105" lon="5.59848">
        <ele>574.46</ele>
        <time>2018-09-22T08:05:23Z</time>
      </trkpt>
      <trkpt lat="43.57097" lon="5.59825">
        <ele>574.5</ele>
        <time>2018-09-22T08:05:27Z</time>
      </trkpt>
      <trkpt lat="43.57089" lon="5.59802">
        <ele>575.29</ele>
        <time>2018-09-22T08:05:31Z</time>
      </trkpt>
      <trkpt lat="43.57081" lon="5.59773">
        <ele>574.29</ele>
        <time>2018-09-22T08:05:36Z</time>
      </trkpt>
      <trkpt lat="43.5707" lon="5.5975">
        <ele>574.61</ele>
        <time>2018-09-22T08:05:40Z</time>
      </trkpt>
      <trkpt lat="43.57062" lon="5.59726">
        <ele>576.09</ele>
        <time>2018-09-22T08:05:44Z</time>
      </trkpt>
      <trkpt lat="43.57052" lon="5.597">
        <ele>574.77</ele>
        <time>2018-09-22T08:05:49Z</time>
      </trkpt>
      <trkpt lat="43.57044" lon="5.59674">
        <ele>575.07</ele>
        <time>2018-09-22T08:05:54Z</time>
      </trkpt>
      <trkpt lat="43.57036" lon="5.59649">
        <ele>575.9</ele>
        <time>2018-09-22T08:05:59Z</time>
      </trkpt>
      <trkpt lat="43.57027" lon="5.59622">
        <ele>577.67</ele>
        <time>2018-09-22T08:06:05Z</time>
      </trkpt>
      <trkpt lat="43.57021" lon="5.59597">
        <ele>577.48</ele>
        <time>2018-09-22T08:06:11Z</time>
      </trkpt>
      <trkpt lat="43.57014" lon="5.59574">
        <ele>583.06</ele>
        <time>2018-09-22T08:06:16Z</time>
      </trkpt>
      <trkpt lat="43.57007" lon="5.59547">
        <ele>582.9</ele>
        <time>2018-09-22T08:06:23Z</time>
      </trkpt>
      <trkpt lat="43.56995" lon="5.59528">
        <ele>584.56</ele>
        <time>2018-09-22T08:06:29Z</time>
      </trkpt>
      <trkpt lat="43.56981" lon="5.59508">
        <ele>585.66</ele>
        <time>2018-09-22T08:06:36Z</time>
      </trkpt>
      <trkpt lat="43.5697" lon="5.59486">
        <ele>584.52</ele>
        <time>2018-09-22T08:06:43Z</time>
      </trkpt>
      <trkpt lat="43.56957" lon="5.59463">
        <ele>584.95</ele>
        <time>2018-09-22T08:06:50Z</time>
      </trkpt>
      <trkpt lat="43.56945" lon="5.59444">
        <ele>584.97</ele>
        <time>2018-09-22T08:06:57Z</time>
      </trkpt>
      <trkpt lat="43.56933" lon="5.59426">
        <ele>586.14</ele>
        <time>2018-09-22T08:07:05Z</time>
      </trkpt>
      <trkpt lat="43.56921" lon="5.59405">
        <ele>586.98</ele>
        <time>2018-09-22T08:07:14Z</time>
      </trkpt>
      <trkpt lat="43.5691" lon="5.59383">
        <ele>587.28</ele>
        <time>2018-09-22T08:07:22Z</time>
      </trkpt>
      <trkpt lat="43.56901" lon="5.59361">
        <ele>586.97</ele>
        <time>2018-09-22T08:07:29Z</time>
      </trkpt>
      <trkpt lat="43.56888" lon="5.59343">
        <ele>589.48</ele>
        <time>2018-09-22T08:07:36Z</time>
      </trkpt>
      <trkpt lat="43.56873" lon="5.59329">
        <ele>591.62</ele>
        <time>2018-09-22T08:07:43Z</time>
      </trkpt>
      <trkpt lat="43.56861" lon="5.59307">
        <ele>591.82</ele>
        <time>2018-09-22T08:07:51Z</time>
      </trkpt>
      <trkpt lat="43.56851" lon="5.59282">
        <ele>591.83</ele>
        <time>2018-09-22T08:07:58Z</time>
      </trkpt>
      <trkpt lat="43.56842" lon="5.5926">
        <ele>590.63</ele>
        <time>2018-09-22T08:08:06Z</time>
      </trkpt>
      <trkpt lat="43.56832" lon="5.59237">
        <ele>591.4</ele>
        <time>2018-09-22T08:08:14Z</time>
      </trkpt>
      <trkpt lat="43.5682" lon="5.59214">
        <ele>591.4</ele>
        <time>2018-09-22T08:08:20Z</time>
      </trkpt>
      <trkpt lat="43.56808" lon="5.59192">
        <ele>589.64</ele>
        <time>2018-09-22T08:08:25Z</time>
      </trkpt>
      <trkpt lat="43.568" lon="5.59167">
        <ele>588.22</ele>
        <time>2018-09-22T08:08:30Z</time>
      </trkpt>
      <trkpt lat="43.56787" lon="5.59145">
        <ele>586.91</ele>
        <time>2018-09-22T08:08:35Z</time>
      </trkpt>
      <trkpt lat="43.56772" lon="5.59126">
        <ele>587.97</ele>
        <time>2018-09-22T08:08:41Z</time>
      </trkpt>
      <trkpt lat="43.56758" lon="5.59107">
        <ele>589.01</ele>
        <time>2018-09-22T08:08:48Z</time>
      </trkpt>
      <trkpt lat="43.56744" lon="5.59086">
        <ele>590.06</ele>
        <time>2018-09-22T08:08:55Z</time>
      </trkpt>
      <trkpt lat="43.5673" lon="5.59067">
        <ele>590.4</ele>
        <time>2018-09-22T08:09:01Z</time>
      </trkpt>
      <trkpt lat="43.56718" lon="5.59048">
        <ele>591.29</ele>
        <time>2018-09-22T08:09:06Z</time>
      </trkpt>
      <trkpt lat="43.56704" lon="5.59029">
        <ele>592.66</ele>
        <time>2018-09-22T08:09:11Z</time>
      </trkpt>
      <trkpt lat="43.56695" lon="5.59007">
        <ele>592.97</ele>
        <time>2018-09-22T08:09:16Z</time>
      </trkpt>
      <trkpt lat="43.56685" lon="5.58985">
        <ele>593.77</ele>
        <time>2018-09-22T08:09:22Z</time>
      </trkpt>
      <trkpt lat="43.56673" lon="5.58963">
        <ele>592.94</ele>
        <time>2018-09-22T08:09:27Z</time>
      </trkpt>
      <trkpt lat="43.56658" lon="5.58941">
        <ele>593.03</ele>
        <time>2018-09-22T08:09:32Z</time>
      </trkpt>
      <trkpt lat="43.56646" lon="5.58917">
        <ele>590.05</ele>
        <time>2018-09-22T08:09:37Z</time>
      </trkpt>
      <trkpt lat="43.56636" lon="5.58896">
        <ele>590.89</ele>
        <time>2018-09-22T08:09:42Z</time>
      </trkpt>
      <trkpt lat="43.56628" lon="5.58873">
        <ele>591.3</ele>
        <time>2018-09-22T08:09:47Z</time>
      </trkpt>
      <trkpt lat="43.56621" lon="5.5885">
        <ele>591.4</ele>
        <time>2018-09-22T08:09:52Z</time>
      </trkpt>
      <trkpt lat="43.56614" lon="5.58826">
        <ele>590.99</ele>
        <time>2018-09-22T08:09:57Z</time>
      </trkpt>
      <trkpt lat="43.56607" lon="5.58803">
        <ele>589.96</ele>
        <time>2018-09-22T08:10:02Z</time>
      </trkpt>
      <trkpt lat="43.56596" lon="5.58779">
        <ele>590.44</ele>
        <time>2018-09-22T08:10:07Z</time>
      </trkpt>
      <trkpt lat="43.56586" lon="5.58756">
        <ele>589.98</ele>
        <time>2018-09-22T08:10:11Z</time>
      </trkpt>
      <trkpt lat="43.56576" lon="5.58734">
        <ele>590.08</ele>
        <time>2018-09-22T08:10:17Z</time>
      </trkpt>
      <trkpt lat="43.56565" lon="5.58713">
        <ele>591.87</ele>
        <time>2018-09-22T08:10:26Z</time>
      </trkpt>
      <trkpt lat="43.56553" lon="5.5869">
        <ele>591.14</ele>
        <time>2018-09-22T08:10:34Z</time>
      </trkpt>
      <trkpt lat="43.56542" lon="5.58669">
        <ele>589.25</ele>
        <time>2018-09-22T08:10:39Z</time>
      </trkpt>
      <trkpt lat="43.56531" lon="5.58648">
        <ele>589.01</ele>
        <time>2018-09-22T08:10:44Z</time>
      </trkpt>
      <trkpt lat="43.56519" lon="5.58626">
        <ele>588.71</ele>
        <time>2018-09-22T08:10:49Z</time>
      </trkpt>
      <trkpt lat="43.56507" lon="5.58602">
        <ele>588.39</ele>
        <time>2018-09-22T08:10:54Z</time>
      </trkpt>
      <trkpt lat="43.56495" lon="5.58582">
        <ele>590.18</ele>
        <time>2018-09-22T08:10:59Z</time>
      </trkpt>
      <trkpt lat="43.56484" lon="5.58557">
        <ele>590.83</ele>
        <time>2018-09-22T08:11:05Z</time>
      </trkpt>
      <trkpt lat="43.56474" lon="5.58532">
        <ele>591.76</ele>
        <time>2018-09-22T08:11:11Z</time>
      </trkpt>
      <trkpt lat="43.56465" lon="5.58508">
        <ele>592.16</ele>
        <time>2018-09-22T08:11:16Z</time>
      </trkpt>
      <trkpt lat="43.56455" lon="5.58483">
        <ele>593.27</ele>
        <time>2018-09-22T08:11:22Z</time>
      </trkpt>
      <trkpt lat="43.56446" lon="5.58461">
        <ele>594.9</ele>
        <time>2018-09-22T08:11:28Z</time>
      </trkpt>
      <trkpt lat="43.56437" lon="5.58436">
        <ele>595.19</ele>
        <time>2018-09-22T08:11:34Z</time>
      </trkpt>
      <trkpt lat="43.56428" lon="5.58411">
        <ele>597.05</ele>
        <time>2018-09-22T08:11:39Z</time>
      </trkpt>
      <trkpt lat="43.56417" lon="5.58391">
        <ele>597.68</ele>
        <time>2018-09-22T08:11:46Z</time>
      </trkpt>
      <trkpt lat="43.56403" lon="5.58374">
        <ele>599.04</ele>
        <time>2018-09-22T08:11:54Z</time>
      </trkpt>
      <trkpt lat="43.56391" lon="5.58352">
        <ele>601.73</ele>
        <time>2018-09-22T08:12:03Z</time>
      </trkpt>
      <trkpt lat="43.56382" lon="5.5833">
        <ele>604.5</ele>
        <time>2018-09-22T08:12:12Z</time>
      </trkpt>
      <trkpt lat="43.56373" lon="5.58305">
        <ele>606.36</ele>
        <time>2018-09-22T08:12:22Z</time>
      </trkpt>
      <trkpt lat="43.56366" lon="5.5828">
        <ele>607.84</ele>
        <time>2018-09-22T08:12:31Z</time>
      </trkpt>
      <trkpt lat="43.56355" lon="5.58258">
        <ele>607.73</ele>
        <time>2018-09-22T08:12:40Z</time>
      </trkpt>
      <trkpt lat="43.56343" lon="5.58237">
        <ele>608.79</ele>
        <time>2018-09-22T08:12:48Z</time>
      </trkpt>
      <trkpt lat="43.5633" lon="5.58218">
        <ele>610.74</ele>
        <time>2018-09-22T08:12:56Z</time>
      </trkpt>
      <trkpt lat="43.56318" lon="5.58198">
        <ele>611.49</ele>
        <time>2018-09-22T08:13:04Z</time>
      </trkpt>
      <trkpt lat="43.56311" lon="5.58173">
        <ele>612.73</ele>
        <time>2018-09-22T08:13:13Z</time>
      </trkpt>
      <trkpt lat="43.5631" lon="5.58147">
        <ele>612.79</ele>
        <time>2018-09-22T08:13:23Z</time>
      </trkpt>
      <trkpt lat="43.56308" lon="5.58122">
        <ele>613.33</ele>
        <time>2018-09-22T08:18:18Z</time>
      </trkpt>
      <trkpt lat="43.56306" lon="5.58097">
        <ele>614.52</ele>
        <time>2018-09-22T08:18:27Z</time>
      </trkpt>
      <trkpt lat="43.56305" lon="5.58072">
        <ele>615.05</ele>
        <time>2018-09-22T08:18:36Z</time>
      </trkpt>
      <trkpt lat="43.56304" lon="5.58047">
        <ele>617.3</ele>
        <time>2018-09-22T08:24:13Z</time>
      </trkpt>
      <trkpt lat="43.56298" lon="5.58021">
        <ele>619.19</ele>
        <time>2018-09-22T08:24:26Z</time>
      </trkpt>
      <trkpt lat="43.56293" lon="5.57997">
        <ele>618.67</ele>
        <time>2018-09-22T08:24:35Z</time>
      </trkpt>
      <trkpt lat="43.56291" lon="5.57971">
        <ele>617.17</ele>
        <time>2018-09-22T08:24:44Z</time>
      </trkpt>
      <trkpt lat="43.56285" lon="5.57943">
        <ele>620.72</ele>
        <time>2018-09-22T08:24:52Z</time>
      </trkpt>
      <trkpt lat="43.5628" lon="5.57919">
        <ele>621.73</ele>
        <time>2018-09-22T08:25:00Z</time>
      </trkpt>
      <trkpt lat="43.56268" lon="5.57897">
        <ele>620.7</ele>
        <time>2018-09-22T08:25:09Z</time>
      </trkpt>
      <trkpt lat="43.5625" lon="5.57901">
        <ele>620.16</ele>
        <time>2018-09-22T08:25:19Z</time>
      </trkpt>
      <trkpt lat="43.56237" lon="5.5792">
        <ele>622.04</ele>
        <time>2018-09-22T08:25:27Z</time>
      </trkpt>
      <trkpt lat="43.56225" lon="5.57941">
        <ele>623.98</ele>
        <time>2018-09-22T08:25:36Z</time>
      </trkpt>
      <trkpt lat="43.56212" lon="5.57963">
        <ele>625.68</ele>
        <time>2018-09-22T08:25:45Z</time>
      </trkpt>
      <trkpt lat="43.56202" lon="5.57984">
        <ele>625.56</ele>
        <time>2018-09-22T08:25:53Z</time>
      </trkpt>
      <trkpt lat="43.56191" lon="5.58005">
        <ele>625.33</ele>
        <time>2018-09-22T08:26:02Z</time>
      </trkpt>
      <trkpt lat="43.56179" lon="5.58025">
        <ele>625.97</ele>
        <time>2018-09-22T08:26:10Z</time>
      </trkpt>
      <trkpt lat="43.56167" lon="5.58046">
        <ele>628.17</ele>
        <time>2018-09-22T08:26:19Z</time>
      </trkpt>
      <trkpt lat="43.56158" lon="5.5807">
        <ele>626.6</ele>
        <time>2018-09-22T08:26:27Z</time>
      </trkpt>
      <trkpt lat="43.56149" lon="5.58094">
        <ele>627.02</ele>
        <time>2018-09-22T08:26:36Z</time>
      </trkpt>
      <trkpt lat="43.56138" lon="5.58118">
        <ele>625.5</ele>
        <time>2018-09-22T08:26:44Z</time>
      </trkpt>
      <trkpt lat="43.56129" lon="5.58142">
        <ele>628.41</ele>
        <time>2018-09-22T08:26:52Z</time>
      </trkpt>
      <trkpt lat="43.56122" lon="5.58169">
        <ele>627.91</ele>
        <time>2018-09-22T08:26:59Z</time>
      </trkpt>
      <trkpt lat="43.56124" lon="5.58194">
        <ele>628.1</ele>
        <time>2018-09-22T08:27:06Z</time>
      </trkpt>
      <trkpt lat="43.5612" lon="5.5822">
        <ele>628.31</ele>
        <time>2018-09-22T08:27:14Z</time>
      </trkpt>
      <trkpt lat="43.56113" lon="5.58246">
        <ele>628.2</ele>
        <time>2018-09-22T08:27:22Z</time>
      </trkpt>
      <trkpt lat="43.56104" lon="5.58268">
        <ele>628.08</ele>
        <time>2018-09-22T08:27:30Z</time>
      </trkpt>
      <trkpt lat="43.56095" lon="5.58294">
        <ele>628.49</ele>
        <time>2018-09-22T08:27:37Z</time>
      </trkpt>
      <trkpt lat="43.56092" lon="5.58319">
        <ele>628.04</ele>
        <time>2018-09-22T08:27:44Z</time>
      </trkpt>
      <trkpt lat="43.5609" lon="5.58346">
        <ele>628.24</ele>
        <time>2018-09-22T08:27:50Z</time>
      </trkpt>
      <trkpt lat="43.56089" lon="5.58374">
        <ele>625.8</ele>
        <time>2018-09-22T08:27:57Z</time>
      </trkpt>
      <trkpt lat="43.5609" lon="5.58403">
        <ele>623.38</ele>
        <time>2018-09-22T08:28:04Z</time>
      </trkpt>
      <trkpt lat="43.56092" lon="5.58429">
        <ele>619.36</ele>
        <time>2018-09-22T08:28:11Z</time>
      </trkpt>
      <trkpt lat="43.56094" lon="5.58456">
        <ele>617.46</ele>
        <time>2018-09-22T08:28:17Z</time>
      </trkpt>
      <trkpt lat="43.56093" lon="5.58484">
        <ele>615.48</ele>
        <time>2018-09-22T08:28:22Z</time>
      </trkpt>
      <trkpt lat="43.56093" lon="5.5851">
        <ele>615.46</ele>
        <time>2018-09-22T08:28:30Z</time>
      </trkpt>
      <trkpt lat="43.56091" lon="5.5854">
        <ele>615.91</ele>
        <time>2018-09-22T08:28:39Z</time>
      </trkpt>
      <trkpt lat="43.5609" lon="5.58565">
        <ele>623.97</ele>
        <time>2018-09-22T08:28:45Z</time>
      </trkpt>
      <trkpt lat="43.56095" lon="5.58595">
        <ele>627.76</ele>
        <time>2018-09-22T08:28:51Z</time>
      </trkpt>
      <trkpt lat="43.56095" lon="5.5862">
        <ele>630.31</ele>
        <time>2018-09-22T08:28:58Z</time>
      </trkpt>
      <trkpt lat="43.56087" lon="5.58643">
        <ele>627.12</ele>
        <time>2018-09-22T08:29:05Z</time>
      </trkpt>
      <trkpt lat="43.56072" lon="5.58659">
        <ele>617.09</ele>
        <time>2018-09-22T08:29:14Z</time>
      </trkpt>
      <trkpt lat="43.56065" lon="5.58684">
        <ele>616.04</ele>
        <time>2018-09-22T08:29:25Z</time>
      </trkpt>
      <trkpt lat="43.56067" lon="5.58711">
        <ele>614.83</ele>
        <time>2018-09-22T08:29:34Z</time>
      </trkpt>
      <trkpt lat="43.56066" lon="5.5874">
        <ele>608.42</ele>
        <time>2018-09-22T08:29:42Z</time>
      </trkpt>
      <trkpt lat="43.56064" lon="5.58768">
        <ele>599.69</ele>
        <time>2018-09-22T08:29:50Z</time>
      </trkpt>
      <trkpt lat="43.56058" lon="5.58793">
        <ele>593.14</ele>
        <time>2018-09-22T08:29:57Z</time>
      </trkpt>
      <trkpt lat="43.56053" lon="5.58818">
        <ele>590.5</ele>
        <time>2018-09-22T08:30:08Z</time>
      </trkpt>
      <trkpt lat="43.56061" lon="5.58841">
        <ele>593.79</ele>
        <time>2018-09-22T08:30:23Z</time>
      </trkpt>
      <trkpt lat="43.56065" lon="5.58865">
        <ele>592.8</ele>
        <time>2018-09-22T08:31:28Z</time>
      </trkpt>
      <trkpt lat="43.56073" lon="5.5889">
        <ele>595.46</ele>
        <time>2018-09-22T08:31:52Z</time>
      </trkpt>
      <trkpt lat="43.56068" lon="5.58916">
        <ele>593.06</ele>
        <time>2018-09-22T08:32:04Z</time>
      </trkpt>
      <trkpt lat="43.56069" lon="5.58942">
        <ele>595.73</ele>
        <time>2018-09-22T08:32:29Z</time>
      </trkpt>
      <trkpt lat="43.5606" lon="5.58967">
        <ele>600.6</ele>
        <time>2018-09-22T08:32:39Z</time>
      </trkpt>
      <trkpt lat="43.5606" lon="5.58994">
        <ele>601.22</ele>
        <time>2018-09-22T08:32:46Z</time>
      </trkpt>
      <trkpt lat="43.56056" lon="5.59019">
        <ele>597.41</ele>
        <time>2018-09-22T08:32:56Z</time>
      </trkpt>
      <trkpt lat="43.56054" lon="5.59048">
        <ele>595.66</ele>
        <time>2018-09-22T08:33:04Z</time>
      </trkpt>
      <trkpt lat="43.56046" lon="5.59076">
        <ele>592.51</ele>
        <time>2018-09-22T08:33:12Z</time>
      </trkpt>
      <trkpt lat="43.56047" lon="5.59101">
        <ele>591.72</ele>
        <time>2018-09-22T08:33:20Z</time>
      </trkpt>
      <trkpt lat="43.56049" lon="5.59127">
        <ele>588.49</ele>
        <time>2018-09-22T08:33:27Z</time>
      </trkpt>
      <trkpt lat="43.56047" lon="5.59154">
        <ele>585.51</ele>
        <time>2018-09-22T08:34:13Z</time>
      </trkpt>
      <trkpt lat="43.56041" lon="5.59179">
        <ele>579.74</ele>
        <time>2018-09-22T08:34:18Z</time>
      </trkpt>
      <trkpt lat="43.56035" lon="5.59203">
        <ele>580</ele>
        <time>2018-09-22T08:34:24Z</time>
      </trkpt>
      <trkpt lat="43.56031" lon="5.59231">
        <ele>578.48</ele>
        <time>2018-09-22T08:34:30Z</time>
      </trkpt>
      <trkpt lat="43.5603" lon="5.59259">
        <ele>576.78</ele>
        <time>2018-09-22T08:34:40Z</time>
      </trkpt>
      <trkpt lat="43.56022" lon="5.59282">
        <ele>573.76</ele>
        <time>2018-09-22T08:34:46Z</time>
      </trkpt>
      <trkpt lat="43.5602" lon="5.59307">
        <ele>577.75</ele>
        <time>2018-09-22T08:34:58Z</time>
      </trkpt>
      <trkpt lat="43.56019" lon="5.59336">
        <ele>577.7</ele>
        <time>2018-09-22T08:35:05Z</time>
      </trkpt>
      <trkpt lat="43.56012" lon="5.59363">
        <ele>578.49</ele>
        <time>2018-09-22T08:35:17Z</time>
      </trkpt>
      <trkpt lat="43.56017" lon="5.5939">
        <ele>581.24</ele>
        <time>2018-09-22T08:35:24Z</time>
      </trkpt>
      <trkpt lat="43.5602" lon="5.59417">
        <ele>578.98</ele>
        <time>2018-09-22T08:35:32Z</time>
      </trkpt>
      <trkpt lat="43.56024" lon="5.59443">
        <ele>581.58</ele>
        <time>2018-09-22T08:35:39Z</time>
      </trkpt>
      <trkpt lat="43.56023" lon="5.59469">
        <ele>577.55</ele>
        <time>2018-09-22T08:37:07Z</time>
      </trkpt>
      <trkpt lat="43.5602" lon="5.59495">
        <ele>581.41</ele>
        <time>2018-09-22T08:38:22Z</time>
      </trkpt>
      <trkpt lat="43.56022" lon="5.59521">
        <ele>581.35</ele>
        <time>2018-09-22T08:38:26Z</time>
      </trkpt>
      <trkpt lat="43.56011" lon="5.59545">
        <ele>587.16</ele>
        <time>2018-09-22T08:38:33Z</time>
      </trkpt>
      <trkpt lat="43.56011" lon="5.59571">
        <ele>582.71</ele>
        <time>2018-09-22T08:38:40Z</time>
      </trkpt>
      <trkpt lat="43.56009" lon="5.59598">
        <ele>584.14</ele>
        <time>2018-09-22T08:38:46Z</time>
      </trkpt>
      <trkpt lat="43.56005" lon="5.59626">
        <ele>584.11</ele>
        <time>2018-09-22T08:39:06Z</time>
      </trkpt>
      <trkpt lat="43.56007" lon="5.59651">
        <ele>581.81</ele>
        <time>2018-09-22T08:39:12Z</time>
      </trkpt>
      <trkpt lat="43.55996" lon="5.59673">
        <ele>583.41</ele>
        <time>2018-09-22T08:39:30Z</time>
      </trkpt>
      <trkpt lat="43.5599" lon="5.59705">
        <ele>579.56</ele>
        <time>2018-09-22T08:39:35Z</time>
      </trkpt>
      <trkpt lat="43.55988" lon="5.5973">
        <ele>576.02</ele>
        <time>2018-09-22T08:39:39Z</time>
      </trkpt>
      <trkpt lat="43.55985" lon="5.59756">
        <ele>571.86</ele>
        <time>2018-09-22T08:39:45Z</time>
      </trkpt>
      <trkpt lat="43.55982" lon="5.59783">
        <ele>573.69</ele>
        <time>2018-09-22T08:39:53Z</time>
      </trkpt>
      <trkpt lat="43.55986" lon="5.59809">
        <ele>571.31</ele>
        <time>2018-09-22T08:40:00Z</time>
      </trkpt>
      <trkpt lat="43.55991" lon="5.59838">
        <ele>573.9</ele>
        <time>2018-09-22T08:40:07Z</time>
      </trkpt>
      <trkpt lat="43.56002" lon="5.59861">
        <ele>577.3</ele>
        <time>2018-09-22T08:40:13Z</time>
      </trkpt>
      <trkpt lat="43.56003" lon="5.59889">
        <ele>576.86</ele>
        <time>2018-09-22T08:40:19Z</time>
      </trkpt>
      <trkpt lat="43.55999" lon="5.59914">
        <ele>578.63</ele>
        <time>2018-09-22T08:40:23Z</time>
      </trkpt>
      <trkpt lat="43.55994" lon="5.59941">
        <ele>582.46</ele>
        <time>2018-09-22T08:40:30Z</time>
      </trkpt>
      <trkpt lat="43.55975" lon="5.5995">
        <ele>581.03</ele>
        <time>2018-09-22T08:40:36Z</time>
      </trkpt>
      <trkpt lat="43.5596" lon="5.59964">
        <ele>584.33</ele>
        <time>2018-09-22T08:40:41Z</time>
      </trkpt>
      <trkpt lat="43.55951" lon="5.59986">
        <ele>585.78</ele>
        <time>2018-09-22T08:40:46Z</time>
      </trkpt>
      <trkpt lat="43.55949" lon="5.60011">
        <ele>584.44</ele>
        <time>2018-09-22T08:40:51Z</time>
      </trkpt>
      <trkpt lat="43.55943" lon="5.60036">
        <ele>583.29</ele>
        <time>2018-09-22T08:40:58Z</time>
      </trkpt>
      <trkpt lat="43.55941" lon="5.60063">
        <ele>582.13</ele>
        <time>2018-09-22T08:41:04Z</time>
      </trkpt>
      <trkpt lat="43.55941" lon="5.60088">
        <ele>581.61</ele>
        <time>2018-09-22T08:42:30Z</time>
      </trkpt>
      <trkpt lat="43.55955" lon="5.60105">
        <ele>579.48</ele>
        <time>2018-09-22T08:42:36Z</time>
      </trkpt>
      <trkpt lat="43.55974" lon="5.6012">
        <ele>581.21</ele>
        <time>2018-09-22T08:42:41Z</time>
      </trkpt>
      <trkpt lat="43.55994" lon="5.60131">
        <ele>577.67</ele>
        <time>2018-09-22T08:42:46Z</time>
      </trkpt>
      <trkpt lat="43.56011" lon="5.60143">
        <ele>577.31</ele>
        <time>2018-09-22T08:42:52Z</time>
      </trkpt>
      <trkpt lat="43.56028" lon="5.60152">
        <ele>574.46</ele>
        <time>2018-09-22T08:42:56Z</time>
      </trkpt>
      <trkpt lat="43.56046" lon="5.60168">
        <ele>576.68</ele>
        <time>2018-09-22T08:43:01Z</time>
      </trkpt>
      <trkpt lat="43.56062" lon="5.60185">
        <ele>575.83</ele>
        <time>2018-09-22T08:43:06Z</time>
      </trkpt>
      <trkpt lat="43.56081" lon="5.60188">
        <ele>578.2</ele>
        <time>2018-09-22T08:43:12Z</time>
      </trkpt>
      <trkpt lat="43.56099" lon="5.60194">
        <ele>578.35</ele>
        <time>2018-09-22T08:43:16Z</time>
      </trkpt>
      <trkpt lat="43.56111" lon="5.60215">
        <ele>570.83</ele>
        <time>2018-09-22T08:43:47Z</time>
      </trkpt>
      <trkpt lat="43.56108" lon="5.6024">
        <ele>572.65</ele>
        <time>2018-09-22T08:43:55Z</time>
      </trkpt>
      <trkpt lat="43.56111" lon="5.60267">
        <ele>574.52</ele>
        <time>2018-09-22T08:44:00Z</time>
      </trkpt>
      <trkpt lat="43.56106" lon="5.60296">
        <ele>574.72</ele>
        <time>2018-09-22T08:44:07Z</time>
      </trkpt>
      <trkpt lat="43.56107" lon="5.6032">
        <ele>575.14</ele>
        <time>2018-09-22T08:44:13Z</time>
      </trkpt>
      <trkpt lat="43.56115" lon="5.60342">
        <ele>574.59</ele>
        <time>2018-09-22T08:44:18Z</time>
      </trkpt>
      <trkpt lat="43.56125" lon="5.60366">
        <ele>575.65</ele>
        <time>2018-09-22T08:44:26Z</time>
      </trkpt>
      <trkpt lat="43.56135" lon="5.60389">
        <ele>577.16</ele>
        <time>2018-09-22T08:44:32Z</time>
      </trkpt>
      <trkpt lat="43.56143" lon="5.60414">
        <ele>578.78</ele>
        <time>2018-09-22T08:44:37Z</time>
      </trkpt>
      <trkpt lat="43.56146" lon="5.60442">
        <ele>578.08</ele>
        <time>2018-09-22T08:44:44Z</time>
      </trkpt>
      <trkpt lat="43.56152" lon="5.60468">
        <ele>580.05</ele>
        <time>2018-09-22T08:44:50Z</time>
      </trkpt>
      <trkpt lat="43.56169" lon="5.60483">
        <ele>576.3</ele>
        <time>2018-09-22T08:44:56Z</time>
      </trkpt>
      <trkpt lat="43.56173" lon="5.6051">
        <ele>567.53</ele>
        <time>2018-09-22T08:45:05Z</time>
      </trkpt>
      <trkpt lat="43.56174" lon="5.60538">
        <ele>573.05</ele>
        <time>2018-09-22T08:45:12Z</time>
      </trkpt>
      <trkpt lat="43.56172" lon="5.60564">
        <ele>574.81</ele>
        <time>2018-09-22T08:45:17Z</time>
      </trkpt>
      <trkpt lat="43.56155" lon="5.60578">
        <ele>574.57</ele>
        <time>2018-09-22T08:45:25Z</time>
      </trkpt>
      <trkpt lat="43.56166" lon="5.60598">
        <ele>576.42</ele>
        <time>2018-09-22T08:45:31Z</time>
      </trkpt>
      <trkpt lat="43.56173" lon="5.60624">
        <ele>573.73</ele>
        <time>2018-09-22T08:45:38Z</time>
      </trkpt>
      <trkpt lat="43.56169" lon="5.60649">
        <ele>574.57</ele>
        <time>2018-09-22T08:45:44Z</time>
      </trkpt>
      <trkpt lat="43.56153" lon="5.60663">
        <ele>576.54</ele>
        <time>2018-09-22T08:45:52Z</time>
      </trkpt>
      <trkpt lat="43.56167" lon="5.60682">
        <ele>577.27</ele>
        <time>2018-09-22T08:45:57Z</time>
      </trkpt>
      <trkpt lat="43.56168" lon="5.60708">
        <ele>579.94</ele>
        <time>2018-09-22T08:46:01Z</time>
      </trkpt>
      <trkpt lat="43.56179" lon="5.60727">
        <ele>582.22</ele>
        <time>2018-09-22T08:46:07Z</time>
      </trkpt>
      <trkpt lat="43.56189" lon="5.60749">
        <ele>580.23</ele>
        <time>2018-09-22T08:46:14Z</time>
      </trkpt>
      <trkpt lat="43.56203" lon="5.60766">
        <ele>578.68</ele>
        <time>2018-09-22T08:46:21Z</time>
      </trkpt>
      <trkpt lat="43.56221" lon="5.60776">
        <ele>580.09</ele>
        <time>2018-09-22T08:46:28Z</time>
      </trkpt>
      <trkpt lat="43.56236" lon="5.60794">
        <ele>581.8</ele>
        <time>2018-09-22T08:46:34Z</time>
      </trkpt>
      <trkpt lat="43.56255" lon="5.60804">
        <ele>580.76</ele>
        <time>2018-09-22T08:46:40Z</time>
      </trkpt>
      <trkpt lat="43.56267" lon="5.60827">
        <ele>585.94</ele>
        <time>2018-09-22T08:47:14Z</time>
      </trkpt>
      <trkpt lat="43.56283" lon="5.60845">
        <ele>585.9</ele>
        <time>2018-09-22T08:47:20Z</time>
      </trkpt>
      <trkpt lat="43.56297" lon="5.60864">
        <ele>585.41</ele>
        <time>2018-09-22T08:47:25Z</time>
      </trkpt>
      <trkpt lat="43.56303" lon="5.60891">
        <ele>583.78</ele>
        <time>2018-09-22T08:47:29Z</time>
      </trkpt>
      <trkpt lat="43.56322" lon="5.60901">
        <ele>580.18</ele>
        <time>2018-09-22T08:47:34Z</time>
      </trkpt>
      <trkpt lat="43.56341" lon="5.60921">
        <ele>578.29</ele>
        <time>2018-09-22T08:47:38Z</time>
      </trkpt>
      <trkpt lat="43.56356" lon="5.60937">
        <ele>579.37</ele>
        <time>2018-09-22T08:47:42Z</time>
      </trkpt>
      <trkpt lat="43.5636" lon="5.60934">
        <ele>567.13</ele>
        <time>2018-09-22T08:51:07Z</time>
      </trkpt>
      <trkpt lat="43.56375" lon="5.60921">
        <ele>567.56</ele>
        <time>2018-09-22T08:51:11Z</time>
      </trkpt>
      <trkpt lat="43.56392" lon="5.6091">
        <ele>567.45</ele>
        <time>2018-09-22T08:51:14Z</time>
      </trkpt>
      <trkpt lat="43.56413" lon="5.60916">
        <ele>566.29</ele>
        <time>2018-09-22T08:51:16Z</time>
      </trkpt>
      <trkpt lat="43.56433" lon="5.60917">
        <ele>564.13</ele>
        <time>2018-09-22T08:51:19Z</time>
      </trkpt>
      <trkpt lat="43.56454" lon="5.60917">
        <ele>563.82</ele>
        <time>2018-09-22T08:51:22Z</time>
      </trkpt>
      <trkpt lat="43.56476" lon="5.60916">
        <ele>564.12</ele>
        <time>2018-09-22T08:51:25Z</time>
      </trkpt>
      <trkpt lat="43.56495" lon="5.60904">
        <ele>564.8</ele>
        <time>2018-09-22T08:51:30Z</time>
      </trkpt>
      <trkpt lat="43.5652" lon="5.60911">
        <ele>562.79</ele>
        <time>2018-09-22T08:51:35Z</time>
      </trkpt>
      <trkpt lat="43.56541" lon="5.60917">
        <ele>559.79</ele>
        <time>2018-09-22T08:51:38Z</time>
      </trkpt>
      <trkpt lat="43.56557" lon="5.60931">
        <ele>557.28</ele>
        <time>2018-09-22T08:51:42Z</time>
      </trkpt>
      <trkpt lat="43.56579" lon="5.60938">
        <ele>557.53</ele>
        <time>2018-09-22T08:51:46Z</time>
      </trkpt>
      <trkpt lat="43.566" lon="5.60937">
        <ele>557.69</ele>
        <time>2018-09-22T08:51:50Z</time>
      </trkpt>
      <trkpt lat="43.5662" lon="5.6094">
        <ele>557.96</ele>
        <time>2018-09-22T08:51:53Z</time>
      </trkpt>
      <trkpt lat="43.56638" lon="5.60941">
        <ele>556.25</ele>
        <time>2018-09-22T08:51:56Z</time>
      </trkpt>
      <trkpt lat="43.56659" lon="5.60938">
        <ele>555.57</ele>
        <time>2018-09-22T08:51:59Z</time>
      </trkpt>
      <trkpt lat="43.5668" lon="5.60931">
        <ele>552.26</ele>
        <time>2018-09-22T08:52:02Z</time>
      </trkpt>
      <trkpt lat="43.56698" lon="5.60939">
        <ele>552.23</ele>
        <time>2018-09-22T08:52:05Z</time>
      </trkpt>
      <trkpt lat="43.56707" lon="5.60964">
        <ele>552.13</ele>
        <time>2018-09-22T08:52:10Z</time>
      </trkpt>
      <trkpt lat="43.56707" lon="5.60993">
        <ele>546.52</ele>
        <time>2018-09-22T08:52:18Z</time>
      </trkpt>
      <trkpt lat="43.56704" lon="5.61022">
        <ele>544.29</ele>
        <time>2018-09-22T08:52:23Z</time>
      </trkpt>
      <trkpt lat="43.56693" lon="5.61043">
        <ele>542.05</ele>
        <time>2018-09-22T08:52:26Z</time>
      </trkpt>
      <trkpt lat="43.56678" lon="5.61065">
        <ele>541.6</ele>
        <time>2018-09-22T08:52:30Z</time>
      </trkpt>
      <trkpt lat="43.56686" lon="5.61093">
        <ele>541.72</ele>
        <time>2018-09-22T08:52:34Z</time>
      </trkpt>
      <trkpt lat="43.56705" lon="5.61107">
        <ele>538.48</ele>
        <time>2018-09-22T08:52:38Z</time>
      </trkpt>
      <trkpt lat="43.56722" lon="5.61114">
        <ele>536.01</ele>
        <time>2018-09-22T08:52:41Z</time>
      </trkpt>
      <trkpt lat="43.56743" lon="5.61124">
        <ele>534.83</ele>
        <time>2018-09-22T08:52:44Z</time>
      </trkpt>
      <trkpt lat="43.56765" lon="5.61137">
        <ele>535.84</ele>
        <time>2018-09-22T08:52:47Z</time>
      </trkpt>
      <trkpt lat="43.56778" lon="5.61158">
        <ele>536.74</ele>
        <time>2018-09-22T08:52:50Z</time>
      </trkpt>
      <trkpt lat="43.56778" lon="5.61189">
        <ele>535.11</ele>
        <time>2018-09-22T08:52:53Z</time>
      </trkpt>
      <trkpt lat="43.56772" lon="5.61222">
        <ele>534.07</ele>
        <time>2018-09-22T08:52:56Z</time>
      </trkpt>
      <trkpt lat="43.56755" lon="5.61248">
        <ele>532.47</ele>
        <time>2018-09-22T08:53:00Z</time>
      </trkpt>
      <trkpt lat="43.56744" lon="5.61268">
        <ele>532.28</ele>
        <time>2018-09-22T08:53:03Z</time>
      </trkpt>
      <trkpt lat="43.56748" lon="5.61293">
        <ele>531.44</ele>
        <time>2018-09-22T08:53:06Z</time>
      </trkpt>
      <trkpt lat="43.56759" lon="5.61321">
        <ele>531.83</ele>
        <time>2018-09-22T08:53:09Z</time>
      </trkpt>
      <trkpt lat="43.56774" lon="5.61346">
        <ele>531.27</ele>
        <time>2018-09-22T08:53:12Z</time>
      </trkpt>
      <trkpt lat="43.56788" lon="5.61371">
        <ele>531.67</ele>
        <time>2018-09-22T08:53:15Z</time>
      </trkpt>
      <trkpt lat="43.56792" lon="5.61396">
        <ele>530.8</ele>
        <time>2018-09-22T08:53:19Z</time>
      </trkpt>
      <trkpt lat="43.56777" lon="5.6141">
        <ele>537.7</ele>
        <time>2018-09-22T08:53:53Z</time>
      </trkpt>
      <trkpt lat="43.56769" lon="5.61434">
        <ele>535.69</ele>
        <time>2018-09-22T08:54:02Z</time>
      </trkpt>
      <trkpt lat="43.56764" lon="5.61461">
        <ele>534</ele>
        <time>2018-09-22T08:54:06Z</time>
      </trkpt>
      <trkpt lat="43.56763" lon="5.6149">
        <ele>535.1</ele>
        <time>2018-09-22T08:54:11Z</time>
      </trkpt>
      <trkpt lat="43.56766" lon="5.61515">
        <ele>532.95</ele>
        <time>2018-09-22T08:54:16Z</time>
      </trkpt>
      <trkpt lat="43.56781" lon="5.6154">
        <ele>530.69</ele>
        <time>2018-09-22T08:54:20Z</time>
      </trkpt>
      <trkpt lat="43.5679" lon="5.61563">
        <ele>529.48</ele>
        <time>2018-09-22T08:54:24Z</time>
      </trkpt>
      <trkpt lat="43.56804" lon="5.61588">
        <ele>529.72</ele>
        <time>2018-09-22T08:54:27Z</time>
      </trkpt>
      <trkpt lat="43.56813" lon="5.6161">
        <ele>527.16</ele>
        <time>2018-09-22T08:54:32Z</time>
      </trkpt>
      <trkpt lat="43.56822" lon="5.61634">
        <ele>528.39</ele>
        <time>2018-09-22T08:54:37Z</time>
      </trkpt>
      <trkpt lat="43.56832" lon="5.61657">
        <ele>528.07</ele>
        <time>2018-09-22T08:54:42Z</time>
      </trkpt>
      <trkpt lat="43.56839" lon="5.6168">
        <ele>527.18</ele>
        <time>2018-09-22T08:54:48Z</time>
      </trkpt>
      <trkpt lat="43.56827" lon="5.61699">
        <ele>526.34</ele>
        <time>2018-09-22T08:55:20Z</time>
      </trkpt>
      <trkpt lat="43.56839" lon="5.61721">
        <ele>524.37</ele>
        <time>2018-09-22T08:55:27Z</time>
      </trkpt>
      <trkpt lat="43.56842" lon="5.61746">
        <ele>525.25</ele>
        <time>2018-09-22T08:55:31Z</time>
      </trkpt>
      <trkpt lat="43.56853" lon="5.61769">
        <ele>525.68</ele>
        <time>2018-09-22T08:55:36Z</time>
      </trkpt>
      <trkpt lat="43.56863" lon="5.61792">
        <ele>525.35</ele>
        <time>2018-09-22T08:55:42Z</time>
      </trkpt>
      <trkpt lat="43.56877" lon="5.61812">
        <ele>526.17</ele>
        <time>2018-09-22T08:55:47Z</time>
      </trkpt>
      <trkpt lat="43.56892" lon="5.61831">
        <ele>525.51</ele>
        <time>2018-09-22T08:55:53Z</time>
      </trkpt>
      <trkpt lat="43.56904" lon="5.61853">
        <ele>523.71</ele>
        <time>2018-09-22T08:56:01Z</time>
      </trkpt>
      <trkpt lat="43.5691" lon="5.61876">
        <ele>524.96</ele>
        <time>2018-09-22T08:56:08Z</time>
      </trkpt>
      <trkpt lat="43.5692" lon="5.619">
        <ele>526.41</ele>
        <time>2018-09-22T08:56:17Z</time>
      </trkpt>
      <trkpt lat="43.56919" lon="5.61928">
        <ele>528.16</ele>
        <time>2018-09-22T08:56:25Z</time>
      </trkpt>
      <trkpt lat="43.5692" lon="5.61956">
        <ele>531.49</ele>
        <time>2018-09-22T08:56:35Z</time>
      </trkpt>
      <trkpt lat="43.56922" lon="5.61981">
        <ele>532.53</ele>
        <time>2018-09-22T08:56:44Z</time>
      </trkpt>
      <trkpt lat="43.56926" lon="5.62007">
        <ele>535.01</ele>
        <time>2018-09-22T08:56:53Z</time>
      </trkpt>
      <trkpt lat="43.56928" lon="5.62033">
        <ele>535.01</ele>
        <time>2018-09-22T08:57:00Z</time>
      </trkpt>
      <trkpt lat="43.56932" lon="5.62058">
        <ele>534.1</ele>
        <time>2018-09-22T08:57:08Z</time>
      </trkpt>
      <trkpt lat="43.56928" lon="5.62085">
        <ele>536.65</ele>
        <time>2018-09-22T08:57:17Z</time>
      </trkpt>
      <trkpt lat="43.5693" lon="5.6211">
        <ele>536.79</ele>
        <time>2018-09-22T08:57:25Z</time>
      </trkpt>
      <trkpt lat="43.56935" lon="5.62136">
        <ele>542.55</ele>
        <time>2018-09-22T08:57:33Z</time>
      </trkpt>
      <trkpt lat="43.56931" lon="5.62164">
        <ele>544.26</ele>
        <time>2018-09-22T08:57:40Z</time>
      </trkpt>
      <trkpt lat="43.56933" lon="5.62191">
        <ele>543.95</ele>
        <time>2018-09-22T08:57:49Z</time>
      </trkpt>
      <trkpt lat="43.56947" lon="5.62208">
        <ele>545.09</ele>
        <time>2018-09-22T08:57:59Z</time>
      </trkpt>
      <trkpt lat="43.56967" lon="5.62206">
        <ele>540.53</ele>
        <time>2018-09-22T08:58:35Z</time>
      </trkpt>
      <trkpt lat="43.56985" lon="5.62206">
        <ele>543.76</ele>
        <time>2018-09-22T08:58:47Z</time>
      </trkpt>
      <trkpt lat="43.57002" lon="5.62219">
        <ele>544.56</ele>
        <time>2018-09-22T08:58:54Z</time>
      </trkpt>
      <trkpt lat="43.57006" lon="5.62245">
        <ele>546.94</ele>
        <time>2018-09-22T08:59:02Z</time>
      </trkpt>
      <trkpt lat="43.57008" lon="5.62274">
        <ele>546.74</ele>
        <time>2018-09-22T08:59:10Z</time>
      </trkpt>
      <trkpt lat="43.57012" lon="5.623">
        <ele>544.11</ele>
        <time>2018-09-22T08:59:21Z</time>
      </trkpt>
      <trkpt lat="43.57022" lon="5.62322">
        <ele>548.06</ele>
        <time>2018-09-22T08:59:31Z</time>
      </trkpt>
      <trkpt lat="43.57033" lon="5.62343">
        <ele>549.32</ele>
        <time>2018-09-22T08:59:39Z</time>
      </trkpt>
      <trkpt lat="43.57036" lon="5.6237">
        <ele>551.98</ele>
        <time>2018-09-22T08:59:49Z</time>
      </trkpt>
      <trkpt lat="43.57043" lon="5.62393">
        <ele>556.95</ele>
        <time>2018-09-22T09:00:08Z</time>
      </trkpt>
      <trkpt lat="43.57049" lon="5.62419">
        <ele>554.38</ele>
        <time>2018-09-22T09:00:17Z</time>
      </trkpt>
      <trkpt lat="43.57067" lon="5.62434">
        <ele>552.43</ele>
        <time>2018-09-22T09:00:27Z</time>
      </trkpt>
      <trkpt lat="43.57076" lon="5.62457">
        <ele>553.7</ele>
        <time>2018-09-22T09:00:42Z</time>
      </trkpt>
      <trkpt lat="43.5707" lon="5.62482">
        <ele>551.94</ele>
        <time>2018-09-22T09:00:53Z</time>
      </trkpt>
      <trkpt lat="43.57085" lon="5.62496">
        <ele>555.67</ele>
        <time>2018-09-22T09:01:27Z</time>
      </trkpt>
      <trkpt lat="43.57096" lon="5.6252">
        <ele>557.07</ele>
        <time>2018-09-22T09:01:37Z</time>
      </trkpt>
      <trkpt lat="43.57101" lon="5.62545">
        <ele>557.23</ele>
        <time>2018-09-22T09:01:47Z</time>
      </trkpt>
      <trkpt lat="43.57114" lon="5.62567">
        <ele>561.11</ele>
        <time>2018-09-22T09:02:24Z</time>
      </trkpt>
      <trkpt lat="43.57129" lon="5.62583">
        <ele>564.19</ele>
        <time>2018-09-22T09:02:35Z</time>
      </trkpt>
      <trkpt lat="43.57137" lon="5.62607">
        <ele>564.49</ele>
        <time>2018-09-22T09:02:45Z</time>
      </trkpt>
      <trkpt lat="43.57156" lon="5.62598">
        <ele>564.42</ele>
        <time>2018-09-22T09:05:14Z</time>
      </trkpt>
      <trkpt lat="43.57175" lon="5.62596">
        <ele>562.69</ele>
        <time>2018-09-22T09:05:23Z</time>
      </trkpt>
      <trkpt lat="43.57193" lon="5.62589">
        <ele>565.84</ele>
        <time>2018-09-22T09:05:32Z</time>
      </trkpt>
      <trkpt lat="43.57207" lon="5.62574">
        <ele>568.52</ele>
        <time>2018-09-22T09:05:40Z</time>
      </trkpt>
      <trkpt lat="43.57226" lon="5.62566">
        <ele>570.99</ele>
        <time>2018-09-22T09:05:50Z</time>
      </trkpt>
      <trkpt lat="43.57243" lon="5.62557">
        <ele>574.33</ele>
        <time>2018-09-22T09:06:01Z</time>
      </trkpt>
      <trkpt lat="43.57249" lon="5.62533">
        <ele>576.03</ele>
        <time>2018-09-22T09:06:13Z</time>
      </trkpt>
      <trkpt lat="43.57258" lon="5.62511">
        <ele>575.27</ele>
        <time>2018-09-22T09:06:23Z</time>
      </trkpt>
      <trkpt lat="43.57272" lon="5.62496">
        <ele>578.06</ele>
        <time>2018-09-22T09:06:36Z</time>
      </trkpt>
      <trkpt lat="43.57287" lon="5.62475">
        <ele>579.7</ele>
        <time>2018-09-22T09:06:48Z</time>
      </trkpt>
      <trkpt lat="43.57293" lon="5.6245">
        <ele>580.42</ele>
        <time>2018-09-22T09:06:57Z</time>
      </trkpt>
      <trkpt lat="43.57304" lon="5.62429">
        <ele>580.15</ele>
        <time>2018-09-22T09:07:06Z</time>
      </trkpt>
      <trkpt lat="43.57315" lon="5.62407">
        <ele>580.84</ele>
        <time>2018-09-22T09:07:15Z</time>
      </trkpt>
      <trkpt lat="43.57327" lon="5.62428">
        <ele>577.87</ele>
        <time>2018-09-22T09:08:45Z</time>
      </trkpt>
      <trkpt lat="43.57334" lon="5.62453">
        <ele>572.22</ele>
        <time>2018-09-22T09:08:49Z</time>
      </trkpt>
      <trkpt lat="43.57339" lon="5.62477">
        <ele>567.86</ele>
        <time>2018-09-22T09:08:54Z</time>
      </trkpt>
      <trkpt lat="43.57343" lon="5.62501">
        <ele>568.61</ele>
        <time>2018-09-22T09:08:59Z</time>
      </trkpt>
      <trkpt lat="43.57344" lon="5.62526">
        <ele>568.76</ele>
        <time>2018-09-22T09:09:05Z</time>
      </trkpt>
      <trkpt lat="43.57347" lon="5.62554">
        <ele>572.61</ele>
        <time>2018-09-22T09:09:11Z</time>
      </trkpt>
      <trkpt lat="43.57351" lon="5.6258">
        <ele>571.52</ele>
        <time>2018-09-22T09:09:15Z</time>
      </trkpt>
      <trkpt lat="43.57351" lon="5.62606">
        <ele>571.63</ele>
        <time>2018-09-22T09:09:21Z</time>
      </trkpt>
      <trkpt lat="43.57349" lon="5.62632">
        <ele>570.52</ele>
        <time>2018-09-22T09:09:26Z</time>
      </trkpt>
      <trkpt lat="43.57347" lon="5.6266">
        <ele>572.15</ele>
        <time>2018-09-22T09:09:33Z</time>
      </trkpt>
      <trkpt lat="43.5735" lon="5.62686">
        <ele>574.96</ele>
        <time>2018-09-22T09:09:39Z</time>
      </trkpt>
      <trkpt lat="43.57341" lon="5.6271">
        <ele>573.48</ele>
        <time>2018-09-22T09:09:45Z</time>
      </trkpt>
      <trkpt lat="43.57331" lon="5.62732">
        <ele>576.21</ele>
        <time>2018-09-22T09:09:50Z</time>
      </trkpt>
      <trkpt lat="43.5733" lon="5.6276">
        <ele>577.09</ele>
        <time>2018-09-22T09:09:57Z</time>
      </trkpt>
      <trkpt lat="43.57326" lon="5.62787">
        <ele>574.95</ele>
        <time>2018-09-22T09:10:08Z</time>
      </trkpt>
      <trkpt lat="43.57317" lon="5.62812">
        <ele>575.77</ele>
        <time>2018-09-22T09:10:19Z</time>
      </trkpt>
      <trkpt lat="43.57316" lon="5.62838">
        <ele>580.12</ele>
        <time>2018-09-22T09:10:29Z</time>
      </trkpt>
      <trkpt lat="43.57322" lon="5.62863">
        <ele>584.38</ele>
        <time>2018-09-22T09:10:39Z</time>
      </trkpt>
      <trkpt lat="43.57318" lon="5.62889">
        <ele>588.08</ele>
        <time>2018-09-22T09:10:50Z</time>
      </trkpt>
      <trkpt lat="43.57311" lon="5.62913">
        <ele>589.99</ele>
        <time>2018-09-22T09:10:59Z</time>
      </trkpt>
      <trkpt lat="43.57304" lon="5.62938">
        <ele>588.6</ele>
        <time>2018-09-22T09:11:07Z</time>
      </trkpt>
      <trkpt lat="43.573" lon="5.62964">
        <ele>589.88</ele>
        <time>2018-09-22T09:11:17Z</time>
      </trkpt>
      <trkpt lat="43.57298" lon="5.62988">
        <ele>591.41</ele>
        <time>2018-09-22T09:11:25Z</time>
      </trkpt>
      <trkpt lat="43.57296" lon="5.63015">
        <ele>590.26</ele>
        <time>2018-09-22T09:11:33Z</time>
      </trkpt>
      <trkpt lat="43.57293" lon="5.63041">
        <ele>589.71</ele>
        <time>2018-09-22T09:11:42Z</time>
      </trkpt>
      <trkpt lat="43.57289" lon="5.63069">
        <ele>591.97</ele>
        <time>2018-09-22T09:11:53Z</time>
      </trkpt>
      <trkpt lat="43.57287" lon="5.63094">
        <ele>593.68</ele>
        <time>2018-09-22T09:12:00Z</time>
      </trkpt>
      <trkpt lat="43.57279" lon="5.63118">
        <ele>590.45</ele>
        <time>2018-09-22T09:12:08Z</time>
      </trkpt>
      <trkpt lat="43.57272" lon="5.63145">
        <ele>591.51</ele>
        <time>2018-09-22T09:12:16Z</time>
      </trkpt>
      <trkpt lat="43.57274" lon="5.6317">
        <ele>600.8</ele>
        <time>2018-09-22T09:12:24Z</time>
      </trkpt>
      <trkpt lat="43.57287" lon="5.63188">
        <ele>603.01</ele>
        <time>2018-09-22T09:12:36Z</time>
      </trkpt>
      <trkpt lat="43.57293" lon="5.63215">
        <ele>602.51</ele>
        <time>2018-09-22T09:15:28Z</time>
      </trkpt>
      <trkpt lat="43.57308" lon="5.63235">
        <ele>600.16</ele>
        <time>2018-09-22T09:15:34Z</time>
      </trkpt>
      <trkpt lat="43.57327" lon="5.63249">
        <ele>600.14</ele>
        <time>2018-09-22T09:15:38Z</time>
      </trkpt>
      <trkpt lat="43.57338" lon="5.63268">
        <ele>599.63</ele>
        <time>2018-09-22T09:15:43Z</time>
      </trkpt>
      <trkpt lat="43.57344" lon="5.63295">
        <ele>599</ele>
        <time>2018-09-22T09:15:48Z</time>
      </trkpt>
      <trkpt lat="43.57341" lon="5.63324">
        <ele>599.32</ele>
        <time>2018-09-22T09:15:53Z</time>
      </trkpt>
      <trkpt lat="43.57335" lon="5.63349">
        <ele>599.15</ele>
        <time>2018-09-22T09:15:58Z</time>
      </trkpt>
      <trkpt lat="43.5734" lon="5.63379">
        <ele>597.79</ele>
        <time>2018-09-22T09:16:04Z</time>
      </trkpt>
      <trkpt lat="43.57345" lon="5.63403">
        <ele>597.12</ele>
        <time>2018-09-22T09:16:08Z</time>
      </trkpt>
      <trkpt lat="43.57344" lon="5.63434">
        <ele>596.78</ele>
        <time>2018-09-22T09:16:13Z</time>
      </trkpt>
      <trkpt lat="43.57346" lon="5.63463">
        <ele>596.52</ele>
        <time>2018-09-22T09:16:17Z</time>
      </trkpt>
      <trkpt lat="43.57351" lon="5.63491">
        <ele>594.41</ele>
        <time>2018-09-22T09:16:20Z</time>
      </trkpt>
      <trkpt lat="43.57358" lon="5.63518">
        <ele>591.72</ele>
        <time>2018-09-22T09:16:26Z</time>
      </trkpt>
      <trkpt lat="43.57368" lon="5.63548">
        <ele>591.87</ele>
        <time>2018-09-22T09:16:31Z</time>
      </trkpt>
      <trkpt lat="43.57378" lon="5.63575">
        <ele>596.17</ele>
        <time>2018-09-22T09:16:35Z</time>
      </trkpt>
      <trkpt lat="43.57397" lon="5.63584">
        <ele>593.76</ele>
        <time>2018-09-22T09:16:41Z</time>
      </trkpt>
      <trkpt lat="43.57417" lon="5.63575">
        <ele>591.29</ele>
        <time>2018-09-22T09:16:47Z</time>
      </trkpt>
      <trkpt lat="43.57435" lon="5.63576">
        <ele>591.36</ele>
        <time>2018-09-22T09:16:53Z</time>
      </trkpt>
      <trkpt lat="43.57443" lon="5.63601">
        <ele>589.02</ele>
        <time>2018-09-22T09:17:03Z</time>
      </trkpt>
      <trkpt lat="43.57447" lon="5.63628">
        <ele>589.27</ele>
        <time>2018-09-22T09:17:08Z</time>
      </trkpt>
      <trkpt lat="43.57452" lon="5.63657">
        <ele>590.23</ele>
        <time>2018-09-22T09:17:14Z</time>
      </trkpt>
      <trkpt lat="43.57459" lon="5.63683">
        <ele>590.15</ele>
        <time>2018-09-22T09:17:18Z</time>
      </trkpt>
      <trkpt lat="43.57463" lon="5.63707">
        <ele>589.61</ele>
        <time>2018-09-22T09:17:22Z</time>
      </trkpt>
      <trkpt lat="43.57463" lon="5.63735">
        <ele>590.37</ele>
        <time>2018-09-22T09:17:25Z</time>
      </trkpt>
      <trkpt lat="43.57462" lon="5.63768">
        <ele>591.37</ele>
        <time>2018-09-22T09:17:30Z</time>
      </trkpt>
      <trkpt lat="43.57457" lon="5.63793">
        <ele>591.16</ele>
        <time>2018-09-22T09:17:33Z</time>
      </trkpt>
      <trkpt lat="43.57453" lon="5.6382">
        <ele>590.88</ele>
        <time>2018-09-22T09:17:37Z</time>
      </trkpt>
      <trkpt lat="43.57451" lon="5.63848">
        <ele>590.11</ele>
        <time>2018-09-22T09:17:41Z</time>
      </trkpt>
      <trkpt lat="43.57455" lon="5.63873">
        <ele>589.5</ele>
        <time>2018-09-22T09:17:43Z</time>
      </trkpt>
      <trkpt lat="43.57457" lon="5.63901">
        <ele>588.69</ele>
        <time>2018-09-22T09:17:47Z</time>
      </trkpt>
      <trkpt lat="43.57452" lon="5.63927">
        <ele>587.55</ele>
        <time>2018-09-22T09:17:50Z</time>
      </trkpt>
      <trkpt lat="43.57443" lon="5.63953">
        <ele>587.6</ele>
        <time>2018-09-22T09:17:54Z</time>
      </trkpt>
      <trkpt lat="43.57436" lon="5.63979">
        <ele>586.66</ele>
        <time>2018-09-22T09:17:57Z</time>
      </trkpt>
      <trkpt lat="43.57435" lon="5.64007">
        <ele>585.14</ele>
        <time>2018-09-22T09:17:59Z</time>
      </trkpt>
      <trkpt lat="43.5743" lon="5.64032">
        <ele>584.22</ele>
        <time>2018-09-22T09:18:01Z</time>
      </trkpt>
      <trkpt lat="43.57424" lon="5.64056">
        <ele>583.61</ele>
        <time>2018-09-22T09:18:03Z</time>
      </trkpt>
      <trkpt lat="43.57428" lon="5.64092">
        <ele>582.29</ele>
        <time>2018-09-22T09:18:06Z</time>
      </trkpt>
      <trkpt lat="43.57434" lon="5.64121">
        <ele>577.04</ele>
        <time>2018-09-22T09:18:43Z</time>
      </trkpt>
      <trkpt lat="43.57435" lon="5.64146">
        <ele>577.28</ele>
        <time>2018-09-22T09:18:48Z</time>
      </trkpt>
      <trkpt lat="43.5744" lon="5.64174">
        <ele>576.16</ele>
        <time>2018-09-22T09:18:55Z</time>
      </trkpt>
      <trkpt lat="43.57442" lon="5.642">
        <ele>575.78</ele>
        <time>2018-09-22T09:19:01Z</time>
      </trkpt>
      <trkpt lat="43.57451" lon="5.64227">
        <ele>573.6</ele>
        <time>2018-09-22T09:19:07Z</time>
      </trkpt>
      <trkpt lat="43.57456" lon="5.64254">
        <ele>570.02</ele>
        <time>2018-09-22T09:19:12Z</time>
      </trkpt>
      <trkpt lat="43.5746" lon="5.64279">
        <ele>566.11</ele>
        <time>2018-09-22T09:19:19Z</time>
      </trkpt>
      <trkpt lat="43.57458" lon="5.64306">
        <ele>568.19</ele>
        <time>2018-09-22T09:19:29Z</time>
      </trkpt>
      <trkpt lat="43.57463" lon="5.64334">
        <ele>569.51</ele>
        <time>2018-09-22T09:19:37Z</time>
      </trkpt>
      <trkpt lat="43.5747" lon="5.64358">
        <ele>569.86</ele>
        <time>2018-09-22T09:19:43Z</time>
      </trkpt>
      <trkpt lat="43.57476" lon="5.64383">
        <ele>565.69</ele>
        <time>2018-09-22T09:19:49Z</time>
      </trkpt>
      <trkpt lat="43.57481" lon="5.64406">
        <ele>571.34</ele>
        <time>2018-09-22T09:19:59Z</time>
      </trkpt>
      <trkpt lat="43.57493" lon="5.64427">
        <ele>572.7</ele>
        <time>2018-09-22T09:20:10Z</time>
      </trkpt>
      <trkpt lat="43.57495" lon="5.64452">
        <ele>578.67</ele>
        <time>2018-09-22T09:20:18Z</time>
      </trkpt>
      <trkpt lat="43.57498" lon="5.6448">
        <ele>575.75</ele>
        <time>2018-09-22T09:20:28Z</time>
      </trkpt>
      <trkpt lat="43.575" lon="5.64505">
        <ele>576.1</ele>
        <time>2018-09-22T09:20:33Z</time>
      </trkpt>
      <trkpt lat="43.575" lon="5.64533">
        <ele>571.83</ele>
        <time>2018-09-22T09:20:42Z</time>
      </trkpt>
      <trkpt lat="43.575" lon="5.64561">
        <ele>580.28</ele>
        <time>2018-09-22T09:20:52Z</time>
      </trkpt>
      <trkpt lat="43.575" lon="5.64588">
        <ele>580.67</ele>
        <time>2018-09-22T09:21:01Z</time>
      </trkpt>
      <trkpt lat="43.57497" lon="5.64613">
        <ele>579.66</ele>
        <time>2018-09-22T09:21:13Z</time>
      </trkpt>
      <trkpt lat="43.57502" lon="5.64639">
        <ele>576.06</ele>
        <time>2018-09-22T09:21:23Z</time>
      </trkpt>
      <trkpt lat="43.57511" lon="5.64662">
        <ele>573.7</ele>
        <time>2018-09-22T09:21:30Z</time>
      </trkpt>
      <trkpt lat="43.57526" lon="5.6468">
        <ele>574.49</ele>
        <time>2018-09-22T09:21:36Z</time>
      </trkpt>
      <trkpt lat="43.57526" lon="5.64707">
        <ele>579.53</ele>
        <time>2018-09-22T09:21:46Z</time>
      </trkpt>
      <trkpt lat="43.57524" lon="5.64732">
        <ele>582.28</ele>
        <time>2018-09-22T09:21:56Z</time>
      </trkpt>
      <trkpt lat="43.5753" lon="5.64757">
        <ele>585.93</ele>
        <time>2018-09-22T09:22:06Z</time>
      </trkpt>
      <trkpt lat="43.57542" lon="5.64776">
        <ele>586.11</ele>
        <time>2018-09-22T09:22:16Z</time>
      </trkpt>
      <trkpt lat="43.5755" lon="5.64801">
        <ele>587.42</ele>
        <time>2018-09-22T09:22:27Z</time>
      </trkpt>
      <trkpt lat="43.57557" lon="5.64831">
        <ele>585.86</ele>
        <time>2018-09-22T09:22:34Z</time>
      </trkpt>
      <trkpt lat="43.57558" lon="5.64856">
        <ele>586.86</ele>
        <time>2018-09-22T09:22:39Z</time>
      </trkpt>
      <trkpt lat="43.57552" lon="5.64883">
        <ele>585.82</ele>
        <time>2018-09-22T09:22:45Z</time>
      </trkpt>
      <trkpt lat="43.57546" lon="5.6491">
        <ele>583.48</ele>
        <time>2018-09-22T09:22:50Z</time>
      </trkpt>
      <trkpt lat="43.57541" lon="5.64936">
        <ele>581.76</ele>
        <time>2018-09-22T09:22:56Z</time>
      </trkpt>
      <trkpt lat="43.5754" lon="5.64968">
        <ele>580.63</ele>
        <time>2018-09-22T09:23:01Z</time>
      </trkpt>
      <trkpt lat="43.57534" lon="5.64998">
        <ele>579.71</ele>
        <time>2018-09-22T09:23:05Z</time>
      </trkpt>
      <trkpt lat="43.57529" lon="5.65027">
        <ele>578.3</ele>
        <time>2018-09-22T09:23:08Z</time>
      </trkpt>
      <trkpt lat="43.57523" lon="5.65053">
        <ele>577.25</ele>
        <time>2018-09-22T09:23:11Z</time>
      </trkpt>
      <trkpt lat="43.57529" lon="5.65083">
        <ele>577.05</ele>
        <time>2018-09-22T09:23:13Z</time>
      </trkpt>
      <trkpt lat="43.57532" lon="5.65114">
        <ele>578.09</ele>
        <time>2018-09-22T09:23:17Z</time>
      </trkpt>
      <trkpt lat="43.57533" lon="5.6514">
        <ele>581.14</ele>
        <time>2018-09-22T09:23:19Z</time>
      </trkpt>
      <trkpt lat="43.57527" lon="5.65169">
        <ele>583.21</ele>
        <time>2018-09-22T09:23:23Z</time>
      </trkpt>
      <trkpt lat="43.57524" lon="5.652">
        <ele>580.55</ele>
        <time>2018-09-22T09:23:29Z</time>
      </trkpt>
      <trkpt lat="43.57516" lon="5.65229">
        <ele>581.27</ele>
        <time>2018-09-22T09:23:33Z</time>
      </trkpt>
      <trkpt lat="43.57509" lon="5.65254">
        <ele>581.93</ele>
        <time>2018-09-22T09:23:36Z</time>
      </trkpt>
      <trkpt lat="43.57517" lon="5.6528">
        <ele>580.54</ele>
        <time>2018-09-22T09:23:38Z</time>
      </trkpt>
      <trkpt lat="43.57521" lon="5.65308">
        <ele>580.63</ele>
        <time>2018-09-22T09:23:42Z</time>
      </trkpt>
      <trkpt lat="43.5752" lon="5.65336">
        <ele>580.49</ele>
        <time>2018-09-22T09:23:44Z</time>
      </trkpt>
      <trkpt lat="43.57522" lon="5.65363">
        <ele>579.56</ele>
        <time>2018-09-22T09:23:48Z</time>
      </trkpt>
      <trkpt lat="43.57519" lon="5.65391">
        <ele>578.41</ele>
        <time>2018-09-22T09:23:52Z</time>
      </trkpt>
      <trkpt lat="43.57519" lon="5.65419">
        <ele>579.67</ele>
        <time>2018-09-22T09:23:55Z</time>
      </trkpt>
      <trkpt lat="43.57519" lon="5.65453">
        <ele>580.6</ele>
        <time>2018-09-22T09:23:59Z</time>
      </trkpt>
      <trkpt lat="43.57521" lon="5.6548">
        <ele>580</ele>
        <time>2018-09-22T09:24:02Z</time>
      </trkpt>
      <trkpt lat="43.57527" lon="5.6551">
        <ele>581.72</ele>
        <time>2018-09-22T09:24:05Z</time>
      </trkpt>
      <trkpt lat="43.57527" lon="5.65542">
        <ele>576.62</ele>
        <time>2018-09-22T09:24:23Z</time>
      </trkpt>
      <trkpt lat="43.57529" lon="5.65574">
        <ele>575.19</ele>
        <time>2018-09-22T09:24:26Z</time>
      </trkpt>
      <trkpt lat="43.5753" lon="5.65601">
        <ele>567.33</ele>
        <time>2018-09-22T09:24:31Z</time>
      </trkpt>
      <trkpt lat="43.57509" lon="5.65601">
        <ele>559.88</ele>
        <time>2018-09-22T09:25:59Z</time>
      </trkpt>
      <trkpt lat="43.5749" lon="5.65599">
        <ele>557.6</ele>
        <time>2018-09-22T09:26:10Z</time>
      </trkpt>
      <trkpt lat="43.57471" lon="5.65604">
        <ele>553</ele>
        <time>2018-09-22T09:26:21Z</time>
      </trkpt>
      <trkpt lat="43.57451" lon="5.65609">
        <ele>550</ele>
        <time>2018-09-22T09:26:31Z</time>
      </trkpt>
      <trkpt lat="43.57429" lon="5.65598">
        <ele>546.4</ele>
        <time>2018-09-22T09:27:02Z</time>
      </trkpt>
      <trkpt lat="43.57412" lon="5.65586">
        <ele>535.03</ele>
        <time>2018-09-22T09:27:07Z</time>
      </trkpt>
      <trkpt lat="43.57392" lon="5.65597">
        <ele>536.1</ele>
        <time>2018-09-22T09:27:13Z</time>
      </trkpt>
      <trkpt lat="43.57405" lon="5.65617">
        <ele>535.12</ele>
        <time>2018-09-22T09:28:39Z</time>
      </trkpt>
      <trkpt lat="43.57405" lon="5.65644">
        <ele>530.89</ele>
        <time>2018-09-22T09:28:47Z</time>
      </trkpt>
      <trkpt lat="43.57399" lon="5.65668">
        <ele>530.31</ele>
        <time>2018-09-22T09:28:53Z</time>
      </trkpt>
      <trkpt lat="43.57391" lon="5.65699">
        <ele>534.88</ele>
        <time>2018-09-22T09:29:51Z</time>
      </trkpt>
      <trkpt lat="43.57379" lon="5.65719">
        <ele>534.33</ele>
        <time>2018-09-22T09:29:55Z</time>
      </trkpt>
      <trkpt lat="43.5738" lon="5.65747">
        <ele>532.17</ele>
        <time>2018-09-22T09:30:02Z</time>
      </trkpt>
      <trkpt lat="43.57373" lon="5.65771">
        <ele>531.55</ele>
        <time>2018-09-22T09:30:12Z</time>
      </trkpt>
      <trkpt lat="43.57367" lon="5.65799">
        <ele>536.68</ele>
        <time>2018-09-22T09:30:29Z</time>
      </trkpt>
      <trkpt lat="43.57357" lon="5.65778">
        <ele>532.42</ele>
        <time>2018-09-22T09:30:42Z</time>
      </trkpt>
      <trkpt lat="43.5734" lon="5.65793">
        <ele>540.13</ele>
        <time>2018-09-22T09:32:02Z</time>
      </trkpt>
      <trkpt lat="43.57337" lon="5.65819">
        <ele>547.06</ele>
        <time>2018-09-22T09:32:14Z</time>
      </trkpt>
      <trkpt lat="43.57319" lon="5.65827">
        <ele>550.44</ele>
        <time>2018-09-22T09:32:28Z</time>
      </trkpt>
      <trkpt lat="43.57311" lon="5.65854">
        <ele>546.13</ele>
        <time>2018-09-22T09:33:59Z</time>
      </trkpt>
      <trkpt lat="43.57305" lon="5.65882">
        <ele>546.84</ele>
        <time>2018-09-22T09:34:06Z</time>
      </trkpt>
      <trkpt lat="43.57301" lon="5.65906">
        <ele>545.52</ele>
        <time>2018-09-22T09:34:14Z</time>
      </trkpt>
      <trkpt lat="43.57294" lon="5.65931">
        <ele>547.62</ele>
        <time>2018-09-22T09:34:23Z</time>
      </trkpt>
      <trkpt lat="43.57278" lon="5.65949">
        <ele>548.04</ele>
        <time>2018-09-22T09:34:30Z</time>
      </trkpt>
      <trkpt lat="43.5726" lon="5.65957">
        <ele>552.79</ele>
        <time>2018-09-22T09:34:36Z</time>
      </trkpt>
      <trkpt lat="43.57242" lon="5.6597">
        <ele>555.37</ele>
        <time>2018-09-22T09:34:41Z</time>
      </trkpt>
      <trkpt lat="43.57226" lon="5.65983">
        <ele>553.91</ele>
        <time>2018-09-22T09:34:47Z</time>
      </trkpt>
      <trkpt lat="43.57225" lon="5.66009">
        <ele>551.7</ele>
        <time>2018-09-22T09:34:52Z</time>
      </trkpt>
      <trkpt lat="43.57215" lon="5.66034">
        <ele>549.2</ele>
        <time>2018-09-22T09:34:58Z</time>
      </trkpt>
      <trkpt lat="43.57213" lon="5.6606">
        <ele>548.98</ele>
        <time>2018-09-22T09:35:02Z</time>
      </trkpt>
      <trkpt lat="43.57213" lon="5.66093">
        <ele>544.4</ele>
        <time>2018-09-22T09:35:07Z</time>
      </trkpt>
      <trkpt lat="43.57215" lon="5.66123">
        <ele>543.32</ele>
        <time>2018-09-22T09:35:11Z</time>
      </trkpt>
      <trkpt lat="43.57216" lon="5.66148">
        <ele>541.76</ele>
        <time>2018-09-22T09:35:14Z</time>
      </trkpt>
      <trkpt lat="43.57216" lon="5.66178">
        <ele>541.31</ele>
        <time>2018-09-22T09:35:17Z</time>
      </trkpt>
      <trkpt lat="43.57202" lon="5.662">
        <ele>539.96</ele>
        <time>2018-09-22T09:35:21Z</time>
      </trkpt>
      <trkpt lat="43.57188" lon="5.6623">
        <ele>539.56</ele>
        <time>2018-09-22T09:35:26Z</time>
      </trkpt>
      <trkpt lat="43.57186" lon="5.66255">
        <ele>537.99</ele>
        <time>2018-09-22T09:35:41Z</time>
      </trkpt>
      <trkpt lat="43.57176" lon="5.66234">
        <ele>536.29</ele>
        <time>2018-09-22T09:35:49Z</time>
      </trkpt>
      <trkpt lat="43.57186" lon="5.66212">
        <ele>534.97</ele>
        <time>2018-09-22T09:35:57Z</time>
      </trkpt>
      <trkpt lat="43.57192" lon="5.66185">
        <ele>535.29</ele>
        <time>2018-09-22T09:36:06Z</time>
      </trkpt>
      <trkpt lat="43.57181" lon="5.66165">
        <ele>535.13</ele>
        <time>2018-09-22T09:36:12Z</time>
      </trkpt>
      <trkpt lat="43.57176" lon="5.66139">
        <ele>530.37</ele>
        <time>2018-09-22T09:36:19Z</time>
      </trkpt>
      <trkpt lat="43.5717" lon="5.66115">
        <ele>534.12</ele>
        <time>2018-09-22T09:36:25Z</time>
      </trkpt>
      <trkpt lat="43.5717" lon="5.66089">
        <ele>528.92</ele>
        <time>2018-09-22T09:36:35Z</time>
      </trkpt>
      <trkpt lat="43.57168" lon="5.66061">
        <ele>530.79</ele>
        <time>2018-09-22T09:36:43Z</time>
      </trkpt>
      <trkpt lat="43.57149" lon="5.66053">
        <ele>528.21</ele>
        <time>2018-09-22T09:36:49Z</time>
      </trkpt>
      <trkpt lat="43.57128" lon="5.66054">
        <ele>526.13</ele>
        <time>2018-09-22T09:36:55Z</time>
      </trkpt>
      <trkpt lat="43.57109" lon="5.6605">
        <ele>525.32</ele>
        <time>2018-09-22T09:37:00Z</time>
      </trkpt>
      <trkpt lat="43.57091" lon="5.66046">
        <ele>527.26</ele>
        <time>2018-09-22T09:37:09Z</time>
      </trkpt>
      <trkpt lat="43.57076" lon="5.66061">
        <ele>531.94</ele>
        <time>2018-09-22T09:37:21Z</time>
      </trkpt>
      <trkpt lat="43.5706" lon="5.66048">
        <ele>533.01</ele>
        <time>2018-09-22T09:37:32Z</time>
      </trkpt>
      <trkpt lat="43.57055" lon="5.66072">
        <ele>532.27</ele>
        <time>2018-09-22T09:37:43Z</time>
      </trkpt>
      <trkpt lat="43.57045" lon="5.66095">
        <ele>530.99</ele>
        <time>2018-09-22T09:37:57Z</time>
      </trkpt>
      <trkpt lat="43.5703" lon="5.6611">
        <ele>528.38</ele>
        <time>2018-09-22T09:38:05Z</time>
      </trkpt>
      <trkpt lat="43.57014" lon="5.66126">
        <ele>528.78</ele>
        <time>2018-09-22T09:38:13Z</time>
      </trkpt>
      <trkpt lat="43.56999" lon="5.66141">
        <ele>530.37</ele>
        <time>2018-09-22T09:38:22Z</time>
      </trkpt>
      <trkpt lat="43.56983" lon="5.66157">
        <ele>533.07</ele>
        <time>2018-09-22T09:38:32Z</time>
      </trkpt>
      <trkpt lat="43.56966" lon="5.6617">
        <ele>533.93</ele>
        <time>2018-09-22T09:38:40Z</time>
      </trkpt>
      <trkpt lat="43.5695" lon="5.66185">
        <ele>534.37</ele>
        <time>2018-09-22T09:38:47Z</time>
      </trkpt>
      <trkpt lat="43.56933" lon="5.66199">
        <ele>535.68</ele>
        <time>2018-09-22T09:38:52Z</time>
      </trkpt>
      <trkpt lat="43.56913" lon="5.66215">
        <ele>534.97</ele>
        <time>2018-09-22T09:38:59Z</time>
      </trkpt>
      <trkpt lat="43.56899" lon="5.6624">
        <ele>534.84</ele>
        <time>2018-09-22T09:39:03Z</time>
      </trkpt>
      <trkpt lat="43.56897" lon="5.66266">
        <ele>536.01</ele>
        <time>2018-09-22T09:39:07Z</time>
      </trkpt>
      <trkpt lat="43.56891" lon="5.66294">
        <ele>536.44</ele>
        <time>2018-09-22T09:39:13Z</time>
      </trkpt>
      <trkpt lat="43.56882" lon="5.66316">
        <ele>537.99</ele>
        <time>2018-09-22T09:39:20Z</time>
      </trkpt>
      <trkpt lat="43.56878" lon="5.66342">
        <ele>539.82</ele>
        <time>2018-09-22T09:39:27Z</time>
      </trkpt>
      <trkpt lat="43.56861" lon="5.66359">
        <ele>542.06</ele>
        <time>2018-09-22T09:39:37Z</time>
      </trkpt>
      <trkpt lat="43.56853" lon="5.66383">
        <ele>545.48</ele>
        <time>2018-09-22T09:39:44Z</time>
      </trkpt>
      <trkpt lat="43.56843" lon="5.66404">
        <ele>545.77</ele>
        <time>2018-09-22T09:39:52Z</time>
      </trkpt>
      <trkpt lat="43.56829" lon="5.6642">
        <ele>541.03</ele>
        <time>2018-09-22T09:40:00Z</time>
      </trkpt>
      <trkpt lat="43.56822" lon="5.66443">
        <ele>542.11</ele>
        <time>2018-09-22T09:40:13Z</time>
      </trkpt>
      <trkpt lat="43.5681" lon="5.66469">
        <ele>542.25</ele>
        <time>2018-09-22T09:40:38Z</time>
      </trkpt>
      <trkpt lat="43.56795" lon="5.66484">
        <ele>543.89</ele>
        <time>2018-09-22T09:40:44Z</time>
      </trkpt>
      <trkpt lat="43.56781" lon="5.66505">
        <ele>546.78</ele>
        <time>2018-09-22T09:40:53Z</time>
      </trkpt>
      <trkpt lat="43.56768" lon="5.6652">
        <ele>553.05</ele>
        <time>2018-09-22T09:41:05Z</time>
      </trkpt>
      <trkpt lat="43.5675" lon="5.66529">
        <ele>550.7</ele>
        <time>2018-09-22T09:41:18Z</time>
      </trkpt>
      <trkpt lat="43.56732" lon="5.66543">
        <ele>553.51</ele>
        <time>2018-09-22T09:41:32Z</time>
      </trkpt>
      <trkpt lat="43.56713" lon="5.66547">
        <ele>556.24</ele>
        <time>2018-09-22T09:41:56Z</time>
      </trkpt>
      <trkpt lat="43.56697" lon="5.66561">
        <ele>558.69</ele>
        <time>2018-09-22T09:42:05Z</time>
      </trkpt>
      <trkpt lat="43.56675" lon="5.66577">
        <ele>564.1</ele>
        <time>2018-09-22T09:47:06Z</time>
      </trkpt>
      <trkpt lat="43.56656" lon="5.66594">
        <ele>558.91</ele>
        <time>2018-09-22T09:47:08Z</time>
      </trkpt>
      <trkpt lat="43.56637" lon="5.66612">
        <ele>557.07</ele>
        <time>2018-09-22T09:47:10Z</time>
      </trkpt>
      <trkpt lat="43.56615" lon="5.66634">
        <ele>557.19</ele>
        <time>2018-09-22T09:47:12Z</time>
      </trkpt>
      <trkpt lat="43.56594" lon="5.66655">
        <ele>559.16</ele>
        <time>2018-09-22T09:47:14Z</time>
      </trkpt>
      <trkpt lat="43.5658" lon="5.66674">
        <ele>560.06</ele>
        <time>2018-09-22T09:47:18Z</time>
      </trkpt>
      <trkpt lat="43.56575" lon="5.66699">
        <ele>552.6</ele>
        <time>2018-09-22T09:47:26Z</time>
      </trkpt>
      <trkpt lat="43.56558" lon="5.66715">
        <ele>555.6</ele>
        <time>2018-09-22T09:47:36Z</time>
      </trkpt>
      <trkpt lat="43.56545" lon="5.66735">
        <ele>557.22</ele>
        <time>2018-09-22T09:47:50Z</time>
      </trkpt>
      <trkpt lat="43.56542" lon="5.66761">
        <ele>554.25</ele>
        <time>2018-09-22T09:48:01Z</time>
      </trkpt>
      <trkpt lat="43.56538" lon="5.66787">
        <ele>548.14</ele>
        <time>2018-09-22T09:48:12Z</time>
      </trkpt>
      <trkpt lat="43.56542" lon="5.66811">
        <ele>547.62</ele>
        <time>2018-09-22T09:48:23Z</time>
      </trkpt>
      <trkpt lat="43.56549" lon="5.66838">
        <ele>551.23</ele>
        <time>2018-09-22T09:48:35Z</time>
      </trkpt>
      <trkpt lat="43.56548" lon="5.66865">
        <ele>556.91</ele>
        <time>2018-09-22T09:48:45Z</time>
      </trkpt>
      <trkpt lat="43.56547" lon="5.66889">
        <ele>558.75</ele>
        <time>2018-09-22T09:48:57Z</time>
      </trkpt>
      <trkpt lat="43.56546" lon="5.66916">
        <ele>559.67</ele>
        <time>2018-09-22T09:49:06Z</time>
      </trkpt>
      <trkpt lat="43.56548" lon="5.66941">
        <ele>559.85</ele>
        <time>2018-09-22T09:49:16Z</time>
      </trkpt>
      <trkpt lat="43.56554" lon="5.66967">
        <ele>565.03</ele>
        <time>2018-09-22T09:49:26Z</time>
      </trkpt>
      <trkpt lat="43.56561" lon="5.66991">
        <ele>567.04</ele>
        <time>2018-09-22T09:49:35Z</time>
      </trkpt>
      <trkpt lat="43.56559" lon="5.67019">
        <ele>565.84</ele>
        <time>2018-09-22T09:49:43Z</time>
      </trkpt>
      <trkpt lat="43.56568" lon="5.67045">
        <ele>565.28</ele>
        <time>2018-09-22T09:49:51Z</time>
      </trkpt>
      <trkpt lat="43.56576" lon="5.67069">
        <ele>564.53</ele>
        <time>2018-09-22T09:49:58Z</time>
      </trkpt>
      <trkpt lat="43.56575" lon="5.67096">
        <ele>564.19</ele>
        <time>2018-09-22T09:50:05Z</time>
      </trkpt>
      <trkpt lat="43.56579" lon="5.67121">
        <ele>562.78</ele>
        <time>2018-09-22T09:50:15Z</time>
      </trkpt>
      <trkpt lat="43.5659" lon="5.67141">
        <ele>560.73</ele>
        <time>2018-09-22T09:50:29Z</time>
      </trkpt>
      <trkpt lat="43.56596" lon="5.67168">
        <ele>566.27</ele>
        <time>2018-09-22T09:50:41Z</time>
      </trkpt>
      <trkpt lat="43.56603" lon="5.67193">
        <ele>571.63</ele>
        <time>2018-09-22T09:50:54Z</time>
      </trkpt>
      <trkpt lat="43.56611" lon="5.67216">
        <ele>575.93</ele>
        <time>2018-09-22T09:51:07Z</time>
      </trkpt>
      <trkpt lat="43.56622" lon="5.67238">
        <ele>577.91</ele>
        <time>2018-09-22T09:51:18Z</time>
      </trkpt>
      <trkpt lat="43.56626" lon="5.67263">
        <ele>579.38</ele>
        <time>2018-09-22T09:51:36Z</time>
      </trkpt>
      <trkpt lat="43.56631" lon="5.67287">
        <ele>589.32</ele>
        <time>2018-09-22T10:04:43Z</time>
      </trkpt>
      <trkpt lat="43.56627" lon="5.67312">
        <ele>591.7</ele>
        <time>2018-09-22T10:04:57Z</time>
      </trkpt>
      <trkpt lat="43.56612" lon="5.67299">
        <ele>596.06</ele>
        <time>2018-09-22T10:05:12Z</time>
      </trkpt>
      <trkpt lat="43.56593" lon="5.67286">
        <ele>596.3</ele>
        <time>2018-09-22T10:05:32Z</time>
      </trkpt>
      <trkpt lat="43.56579" lon="5.67269">
        <ele>595.58</ele>
        <time>2018-09-22T10:05:50Z</time>
      </trkpt>
      <trkpt lat="43.56564" lon="5.67254">
        <ele>596.31</ele>
        <time>2018-09-22T10:06:04Z</time>
      </trkpt>
      <trkpt lat="43.5655" lon="5.6724">
        <ele>594.14</ele>
        <time>2018-09-22T10:06:17Z</time>
      </trkpt>
      <trkpt lat="43.56541" lon="5.67217">
        <ele>596.26</ele>
        <time>2018-09-22T10:06:32Z</time>
      </trkpt>
      <trkpt lat="43.56526" lon="5.672">
        <ele>598.28</ele>
        <time>2018-09-22T10:06:46Z</time>
      </trkpt>
      <trkpt lat="43.56515" lon="5.6718">
        <ele>599.6</ele>
        <time>2018-09-22T10:06:59Z</time>
      </trkpt>
      <trkpt lat="43.56505" lon="5.67158">
        <ele>603.18</ele>
        <time>2018-09-22T10:07:11Z</time>
      </trkpt>
      <trkpt lat="43.56493" lon="5.67139">
        <ele>601.09</ele>
        <time>2018-09-22T10:07:24Z</time>
      </trkpt>
      <trkpt lat="43.56483" lon="5.67118">
        <ele>602.56</ele>
        <time>2018-09-22T10:07:35Z</time>
      </trkpt>
      <trkpt lat="43.56469" lon="5.67098">
        <ele>602.1</ele>
        <time>2018-09-22T10:07:44Z</time>
      </trkpt>
      <trkpt lat="43.56459" lon="5.67075">
        <ele>605.29</ele>
        <time>2018-09-22T10:07:55Z</time>
      </trkpt>
      <trkpt lat="43.5645" lon="5.67052">
        <ele>606.58</ele>
        <time>2018-09-22T10:08:05Z</time>
      </trkpt>
      <trkpt lat="43.56437" lon="5.67032">
        <ele>606.95</ele>
        <time>2018-09-22T10:08:16Z</time>
      </trkpt>
      <trkpt lat="43.56419" lon="5.6704">
        <ele>611.31</ele>
        <time>2018-09-22T10:08:28Z</time>
      </trkpt>
      <trkpt lat="43.56397" lon="5.67049">
        <ele>615.01</ele>
        <time>2018-09-22T10:09:03Z</time>
      </trkpt>
      <trkpt lat="43.56377" lon="5.67049">
        <ele>615.7</ele>
        <time>2018-09-22T10:09:07Z</time>
      </trkpt>
      <trkpt lat="43.56355" lon="5.67054">
        <ele>615.02</ele>
        <time>2018-09-22T10:09:12Z</time>
      </trkpt>
      <trkpt lat="43.56336" lon="5.67059">
        <ele>615.45</ele>
        <time>2018-09-22T10:09:17Z</time>
      </trkpt>
      <trkpt lat="43.56316" lon="5.67063">
        <ele>615.74</ele>
        <time>2018-09-22T10:09:21Z</time>
      </trkpt>
      <trkpt lat="43.563" lon="5.67045">
        <ele>611.91</ele>
        <time>2018-09-22T10:09:28Z</time>
      </trkpt>
      <trkpt lat="43.56285" lon="5.67025">
        <ele>611.85</ele>
        <time>2018-09-22T10:09:33Z</time>
      </trkpt>
      <trkpt lat="43.56274" lon="5.67001">
        <ele>606.9</ele>
        <time>2018-09-22T10:09:38Z</time>
      </trkpt>
      <trkpt lat="43.56264" lon="5.6698">
        <ele>606.47</ele>
        <time>2018-09-22T10:09:42Z</time>
      </trkpt>
      <trkpt lat="43.56252" lon="5.66955">
        <ele>605.88</ele>
        <time>2018-09-22T10:09:46Z</time>
      </trkpt>
      <trkpt lat="43.56231" lon="5.66945">
        <ele>606.79</ele>
        <time>2018-09-22T10:09:51Z</time>
      </trkpt>
      <trkpt lat="43.56212" lon="5.66944">
        <ele>605.69</ele>
        <time>2018-09-22T10:09:56Z</time>
      </trkpt>
      <trkpt lat="43.56194" lon="5.66954">
        <ele>605.02</ele>
        <time>2018-09-22T10:10:00Z</time>
      </trkpt>
      <trkpt lat="43.56181" lon="5.66972">
        <ele>604.14</ele>
        <time>2018-09-22T10:10:05Z</time>
      </trkpt>
      <trkpt lat="43.56176" lon="5.66997">
        <ele>603.95</ele>
        <time>2018-09-22T10:10:14Z</time>
      </trkpt>
      <trkpt lat="43.56174" lon="5.67024">
        <ele>602.83</ele>
        <time>2018-09-22T10:10:21Z</time>
      </trkpt>
      <trkpt lat="43.56163" lon="5.67046">
        <ele>602.44</ele>
        <time>2018-09-22T10:10:27Z</time>
      </trkpt>
      <trkpt lat="43.56149" lon="5.67061">
        <ele>603.58</ele>
        <time>2018-09-22T10:10:32Z</time>
      </trkpt>
      <trkpt lat="43.56136" lon="5.67081">
        <ele>606.47</ele>
        <time>2018-09-22T10:10:38Z</time>
      </trkpt>
      <trkpt lat="43.56122" lon="5.67097">
        <ele>604.26</ele>
        <time>2018-09-22T10:10:42Z</time>
      </trkpt>
      <trkpt lat="43.56108" lon="5.67119">
        <ele>603.02</ele>
        <time>2018-09-22T10:10:47Z</time>
      </trkpt>
      <trkpt lat="43.56102" lon="5.67151">
        <ele>603.24</ele>
        <time>2018-09-22T10:10:52Z</time>
      </trkpt>
      <trkpt lat="43.56096" lon="5.6718">
        <ele>602.44</ele>
        <time>2018-09-22T10:10:56Z</time>
      </trkpt>
      <trkpt lat="43.56087" lon="5.67203">
        <ele>602.11</ele>
        <time>2018-09-22T10:10:59Z</time>
      </trkpt>
      <trkpt lat="43.56075" lon="5.67227">
        <ele>599.82</ele>
        <time>2018-09-22T10:11:02Z</time>
      </trkpt>
      <trkpt lat="43.56067" lon="5.67251">
        <ele>598.8</ele>
        <time>2018-09-22T10:11:05Z</time>
      </trkpt>
      <trkpt lat="43.5606" lon="5.67279">
        <ele>598.37</ele>
        <time>2018-09-22T10:11:08Z</time>
      </trkpt>
      <trkpt lat="43.56054" lon="5.67312">
        <ele>598.2</ele>
        <time>2018-09-22T10:11:11Z</time>
      </trkpt>
      <trkpt lat="43.56053" lon="5.67347">
        <ele>598.63</ele>
        <time>2018-09-22T10:11:14Z</time>
      </trkpt>
      <trkpt lat="43.56033" lon="5.67346">
        <ele>593.96</ele>
        <time>2018-09-22T10:11:23Z</time>
      </trkpt>
      <trkpt lat="43.5602" lon="5.67319">
        <ele>590.8</ele>
        <time>2018-09-22T10:11:27Z</time>
      </trkpt>
      <trkpt lat="43.56009" lon="5.67293">
        <ele>587.84</ele>
        <time>2018-09-22T10:11:31Z</time>
      </trkpt>
      <trkpt lat="43.55991" lon="5.67285">
        <ele>585.11</ele>
        <time>2018-09-22T10:11:36Z</time>
      </trkpt>
      <trkpt lat="43.55973" lon="5.67299">
        <ele>584.66</ele>
        <time>2018-09-22T10:11:40Z</time>
      </trkpt>
      <trkpt lat="43.55957" lon="5.67312">
        <ele>582.99</ele>
        <time>2018-09-22T10:11:44Z</time>
      </trkpt>
      <trkpt lat="43.55941" lon="5.67332">
        <ele>582.08</ele>
        <time>2018-09-22T10:11:50Z</time>
      </trkpt>
      <trkpt lat="43.55925" lon="5.67349">
        <ele>582.37</ele>
        <time>2018-09-22T10:11:56Z</time>
      </trkpt>
      <trkpt lat="43.55909" lon="5.6736">
        <ele>582.82</ele>
        <time>2018-09-22T10:12:03Z</time>
      </trkpt>
      <trkpt lat="43.55891" lon="5.67369">
        <ele>582.77</ele>
        <time>2018-09-22T10:12:13Z</time>
      </trkpt>
      <trkpt lat="43.55882" lon="5.67392">
        <ele>585.51</ele>
        <time>2018-09-22T10:12:24Z</time>
      </trkpt>
      <trkpt lat="43.55877" lon="5.67417">
        <ele>586.32</ele>
        <time>2018-09-22T10:12:35Z</time>
      </trkpt>
      <trkpt lat="43.55876" lon="5.67443">
        <ele>587.21</ele>
        <time>2018-09-22T10:12:44Z</time>
      </trkpt>
      <trkpt lat="43.55859" lon="5.67452">
        <ele>587.06</ele>
        <time>2018-09-22T10:12:51Z</time>
      </trkpt>
      <trkpt lat="43.5584" lon="5.67457">
        <ele>588.69</ele>
        <time>2018-09-22T10:12:59Z</time>
      </trkpt>
      <trkpt lat="43.55821" lon="5.67468">
        <ele>591.04</ele>
        <time>2018-09-22T10:13:07Z</time>
      </trkpt>
      <trkpt lat="43.55801" lon="5.67477">
        <ele>591.85</ele>
        <time>2018-09-22T10:13:15Z</time>
      </trkpt>
      <trkpt lat="43.55782" lon="5.67487">
        <ele>592.38</ele>
        <time>2018-09-22T10:13:22Z</time>
      </trkpt>
      <trkpt lat="43.55764" lon="5.67496">
        <ele>592.49</ele>
        <time>2018-09-22T10:13:28Z</time>
      </trkpt>
      <trkpt lat="43.55747" lon="5.67509">
        <ele>594.47</ele>
        <time>2018-09-22T10:14:56Z</time>
      </trkpt>
      <trkpt lat="43.5573" lon="5.67522">
        <ele>592.55</ele>
        <time>2018-09-22T10:15:01Z</time>
      </trkpt>
      <trkpt lat="43.55713" lon="5.67536">
        <ele>591.53</ele>
        <time>2018-09-22T10:15:04Z</time>
      </trkpt>
      <trkpt lat="43.55696" lon="5.67547">
        <ele>592.58</ele>
        <time>2018-09-22T10:15:10Z</time>
      </trkpt>
      <trkpt lat="43.5571" lon="5.6757">
        <ele>592.65</ele>
        <time>2018-09-22T10:16:29Z</time>
      </trkpt>
      <trkpt lat="43.55714" lon="5.67598">
        <ele>590.24</ele>
        <time>2018-09-22T10:16:33Z</time>
      </trkpt>
      <trkpt lat="43.55708" lon="5.67622">
        <ele>590.77</ele>
        <time>2018-09-22T10:16:43Z</time>
      </trkpt>
      <trkpt lat="43.55708" lon="5.67647">
        <ele>590.75</ele>
        <time>2018-09-22T10:16:50Z</time>
      </trkpt>
      <trkpt lat="43.55707" lon="5.67673">
        <ele>588.39</ele>
        <time>2018-09-22T10:16:57Z</time>
      </trkpt>
      <trkpt lat="43.55709" lon="5.67698">
        <ele>586.38</ele>
        <time>2018-09-22T10:17:04Z</time>
      </trkpt>
      <trkpt lat="43.55701" lon="5.6772">
        <ele>588.58</ele>
        <time>2018-09-22T10:17:13Z</time>
      </trkpt>
      <trkpt lat="43.55704" lon="5.67747">
        <ele>586.97</ele>
        <time>2018-09-22T10:17:16Z</time>
      </trkpt>
      <trkpt lat="43.55707" lon="5.67773">
        <ele>581.63</ele>
        <time>2018-09-22T10:17:23Z</time>
      </trkpt>
      <trkpt lat="43.55708" lon="5.67801">
        <ele>579.52</ele>
        <time>2018-09-22T10:17:28Z</time>
      </trkpt>
      <trkpt lat="43.55714" lon="5.67827">
        <ele>578.24</ele>
        <time>2018-09-22T10:17:33Z</time>
      </trkpt>
      <trkpt lat="43.5571" lon="5.67854">
        <ele>574.44</ele>
        <time>2018-09-22T10:17:40Z</time>
      </trkpt>
      <trkpt lat="43.55713" lon="5.67879">
        <ele>568.7</ele>
        <time>2018-09-22T10:17:47Z</time>
      </trkpt>
      <trkpt lat="43.55717" lon="5.67906">
        <ele>569.1</ele>
        <time>2018-09-22T10:17:53Z</time>
      </trkpt>
      <trkpt lat="43.5571" lon="5.67932">
        <ele>568.55</ele>
        <time>2018-09-22T10:18:00Z</time>
      </trkpt>
      <trkpt lat="43.55708" lon="5.67959">
        <ele>568.49</ele>
        <time>2018-09-22T10:18:05Z</time>
      </trkpt>
      <trkpt lat="43.55711" lon="5.67985">
        <ele>569.01</ele>
        <time>2018-09-22T10:18:09Z</time>
      </trkpt>
      <trkpt lat="43.55715" lon="5.68011">
        <ele>568.35</ele>
        <time>2018-09-22T10:18:13Z</time>
      </trkpt>
      <trkpt lat="43.55718" lon="5.68039">
        <ele>569.82</ele>
        <time>2018-09-22T10:18:17Z</time>
      </trkpt>
      <trkpt lat="43.55721" lon="5.68065">
        <ele>567.91</ele>
        <time>2018-09-22T10:18:22Z</time>
      </trkpt>
      <trkpt lat="43.55721" lon="5.68091">
        <ele>563.6</ele>
        <time>2018-09-22T10:18:26Z</time>
      </trkpt>
      <trkpt lat="43.5572" lon="5.6812">
        <ele>556.93</ele>
        <time>2018-09-22T10:18:30Z</time>
      </trkpt>
      <trkpt lat="43.55715" lon="5.68147">
        <ele>556.04</ele>
        <time>2018-09-22T10:18:34Z</time>
      </trkpt>
      <trkpt lat="43.55718" lon="5.68173">
        <ele>556.42</ele>
        <time>2018-09-22T10:18:38Z</time>
      </trkpt>
      <trkpt lat="43.55717" lon="5.68198">
        <ele>554.87</ele>
        <time>2018-09-22T10:18:43Z</time>
      </trkpt>
      <trkpt lat="43.55716" lon="5.68226">
        <ele>554.53</ele>
        <time>2018-09-22T10:18:48Z</time>
      </trkpt>
      <trkpt lat="43.55719" lon="5.68257">
        <ele>554.58</ele>
        <time>2018-09-22T10:18:53Z</time>
      </trkpt>
      <trkpt lat="43.55723" lon="5.68285">
        <ele>553.13</ele>
        <time>2018-09-22T10:18:59Z</time>
      </trkpt>
      <trkpt lat="43.55722" lon="5.6831">
        <ele>546.94</ele>
        <time>2018-09-22T10:19:06Z</time>
      </trkpt>
      <trkpt lat="43.55725" lon="5.68336">
        <ele>545.32</ele>
        <time>2018-09-22T10:19:39Z</time>
      </trkpt>
      <trkpt lat="43.5572" lon="5.68366">
        <ele>549.01</ele>
        <time>2018-09-22T10:19:45Z</time>
      </trkpt>
      <trkpt lat="43.55711" lon="5.68389">
        <ele>548.4</ele>
        <time>2018-09-22T10:19:49Z</time>
      </trkpt>
      <trkpt lat="43.55702" lon="5.68417">
        <ele>549.56</ele>
        <time>2018-09-22T10:19:54Z</time>
      </trkpt>
      <trkpt lat="43.55694" lon="5.68442">
        <ele>545.79</ele>
        <time>2018-09-22T10:19:59Z</time>
      </trkpt>
      <trkpt lat="43.55699" lon="5.68467">
        <ele>545.93</ele>
        <time>2018-09-22T10:20:05Z</time>
      </trkpt>
      <trkpt lat="43.55703" lon="5.68497">
        <ele>545.5</ele>
        <time>2018-09-22T10:20:10Z</time>
      </trkpt>
      <trkpt lat="43.55707" lon="5.68523">
        <ele>544.65</ele>
        <time>2018-09-22T10:20:13Z</time>
      </trkpt>
      <trkpt lat="43.55711" lon="5.68552">
        <ele>543.5</ele>
        <time>2018-09-22T10:20:18Z</time>
      </trkpt>
      <trkpt lat="43.55718" lon="5.68578">
        <ele>545.06</ele>
        <time>2018-09-22T10:20:21Z</time>
      </trkpt>
      <trkpt lat="43.55723" lon="5.68605">
        <ele>543.77</ele>
        <time>2018-09-22T10:20:26Z</time>
      </trkpt>
      <trkpt lat="43.55721" lon="5.68639">
        <ele>541.06</ele>
        <time>2018-09-22T10:20:31Z</time>
      </trkpt>
      <trkpt lat="43.55729" lon="5.68668">
        <ele>539.93</ele>
        <time>2018-09-22T10:20:34Z</time>
      </trkpt>
      <trkpt lat="43.55738" lon="5.68698">
        <ele>539.25</ele>
        <time>2018-09-22T10:20:39Z</time>
      </trkpt>
      <trkpt lat="43.55746" lon="5.68722">
        <ele>541.14</ele>
        <time>2018-09-22T10:20:42Z</time>
      </trkpt>
      <trkpt lat="43.55751" lon="5.68747">
        <ele>540.81</ele>
        <time>2018-09-22T10:20:45Z</time>
      </trkpt>
      <trkpt lat="43.55757" lon="5.68777">
        <ele>541.18</ele>
        <time>2018-09-22T10:20:49Z</time>
      </trkpt>
      <trkpt lat="43.55744" lon="5.68797">
        <ele>541.36</ele>
        <time>2018-09-22T10:21:15Z</time>
      </trkpt>
      <trkpt lat="43.55725" lon="5.68791">
        <ele>541.69</ele>
        <time>2018-09-22T10:21:28Z</time>
      </trkpt>
      <trkpt lat="43.55706" lon="5.68788">
        <ele>540.2</ele>
        <time>2018-09-22T10:21:35Z</time>
      </trkpt>
      <trkpt lat="43.55688" lon="5.68791">
        <ele>540.78</ele>
        <time>2018-09-22T10:21:43Z</time>
      </trkpt>
      <trkpt lat="43.55671" lon="5.68798">
        <ele>545.55</ele>
        <time>2018-09-22T10:21:53Z</time>
      </trkpt>
      <trkpt lat="43.55652" lon="5.68796">
        <ele>551.2</ele>
        <time>2018-09-22T10:21:59Z</time>
      </trkpt>
      <trkpt lat="43.55635" lon="5.6879">
        <ele>550.96</ele>
        <time>2018-09-22T10:22:07Z</time>
      </trkpt>
      <trkpt lat="43.55617" lon="5.68782">
        <ele>551.95</ele>
        <time>2018-09-22T10:22:17Z</time>
      </trkpt>
      <trkpt lat="43.55597" lon="5.68788">
        <ele>554.3</ele>
        <time>2018-09-22T10:22:26Z</time>
      </trkpt>
      <trkpt lat="43.55579" lon="5.68784">
        <ele>554.77</ele>
        <time>2018-09-22T10:22:33Z</time>
      </trkpt>
      <trkpt lat="43.5556" lon="5.68787">
        <ele>552.32</ele>
        <time>2018-09-22T10:22:40Z</time>
      </trkpt>
      <trkpt lat="43.55543" lon="5.68794">
        <ele>551.12</ele>
        <time>2018-09-22T10:22:47Z</time>
      </trkpt>
      <trkpt lat="43.55523" lon="5.68803">
        <ele>550.24</ele>
        <time>2018-09-22T10:22:52Z</time>
      </trkpt>
      <trkpt lat="43.55535" lon="5.68824">
        <ele>546.77</ele>
        <time>2018-09-22T10:23:21Z</time>
      </trkpt>
      <trkpt lat="43.55551" lon="5.68841">
        <ele>543.53</ele>
        <time>2018-09-22T10:23:28Z</time>
      </trkpt>
      <trkpt lat="43.55564" lon="5.68863">
        <ele>542.45</ele>
        <time>2018-09-22T10:23:34Z</time>
      </trkpt>
      <trkpt lat="43.55576" lon="5.68882">
        <ele>543.91</ele>
        <time>2018-09-22T10:23:40Z</time>
      </trkpt>
      <trkpt lat="43.55591" lon="5.68899">
        <ele>544.08</ele>
        <time>2018-09-22T10:23:48Z</time>
      </trkpt>
      <trkpt lat="43.55604" lon="5.68921">
        <ele>543.57</ele>
        <time>2018-09-22T10:23:55Z</time>
      </trkpt>
      <trkpt lat="43.55615" lon="5.68943">
        <ele>544.3</ele>
        <time>2018-09-22T10:24:01Z</time>
      </trkpt>
      <trkpt lat="43.55624" lon="5.68965">
        <ele>544.28</ele>
        <time>2018-09-22T10:24:06Z</time>
      </trkpt>
      <trkpt lat="43.55634" lon="5.68987">
        <ele>544.93</ele>
        <time>2018-09-22T10:24:11Z</time>
      </trkpt>
      <trkpt lat="43.55648" lon="5.69009">
        <ele>546.15</ele>
        <time>2018-09-22T10:24:17Z</time>
      </trkpt>
      <trkpt lat="43.55661" lon="5.69031">
        <ele>546.81</ele>
        <time>2018-09-22T10:24:23Z</time>
      </trkpt>
      <trkpt lat="43.55672" lon="5.69055">
        <ele>546.92</ele>
        <time>2018-09-22T10:24:29Z</time>
      </trkpt>
      <trkpt lat="43.55676" lon="5.6908">
        <ele>546.9</ele>
        <time>2018-09-22T10:24:36Z</time>
      </trkpt>
      <trkpt lat="43.55684" lon="5.69106">
        <ele>547.64</ele>
        <time>2018-09-22T10:24:45Z</time>
      </trkpt>
      <trkpt lat="43.55693" lon="5.69129">
        <ele>548.64</ele>
        <time>2018-09-22T10:24:53Z</time>
      </trkpt>
      <trkpt lat="43.55701" lon="5.69153">
        <ele>550.04</ele>
        <time>2018-09-22T10:25:01Z</time>
      </trkpt>
      <trkpt lat="43.55708" lon="5.69178">
        <ele>553.35</ele>
        <time>2018-09-22T10:25:09Z</time>
      </trkpt>
      <trkpt lat="43.55709" lon="5.69203">
        <ele>556.33</ele>
        <time>2018-09-22T10:25:20Z</time>
      </trkpt>
      <trkpt lat="43.55711" lon="5.69228">
        <ele>555.45</ele>
        <time>2018-09-22T10:25:29Z</time>
      </trkpt>
      <trkpt lat="43.55715" lon="5.69255">
        <ele>555.36</ele>
        <time>2018-09-22T10:25:38Z</time>
      </trkpt>
      <trkpt lat="43.55716" lon="5.6928">
        <ele>556.94</ele>
        <time>2018-09-22T10:25:47Z</time>
      </trkpt>
      <trkpt lat="43.5572" lon="5.69305">
        <ele>558.05</ele>
        <time>2018-09-22T10:25:57Z</time>
      </trkpt>
      <trkpt lat="43.55724" lon="5.69333">
        <ele>560.06</ele>
        <time>2018-09-22T10:26:06Z</time>
      </trkpt>
      <trkpt lat="43.55726" lon="5.69359">
        <ele>558.3</ele>
        <time>2018-09-22T10:26:15Z</time>
      </trkpt>
      <trkpt lat="43.5573" lon="5.69385">
        <ele>559.99</ele>
        <time>2018-09-22T10:26:24Z</time>
      </trkpt>
      <trkpt lat="43.55732" lon="5.69411">
        <ele>561.86</ele>
        <time>2018-09-22T10:26:33Z</time>
      </trkpt>
      <trkpt lat="43.55739" lon="5.69438">
        <ele>560.73</ele>
        <time>2018-09-22T10:26:42Z</time>
      </trkpt>
      <trkpt lat="43.55744" lon="5.69463">
        <ele>562.94</ele>
        <time>2018-09-22T10:26:49Z</time>
      </trkpt>
      <trkpt lat="43.5575" lon="5.6949">
        <ele>561.68</ele>
        <time>2018-09-22T10:26:56Z</time>
      </trkpt>
      <trkpt lat="43.55756" lon="5.69514">
        <ele>560.07</ele>
        <time>2018-09-22T10:27:02Z</time>
      </trkpt>
      <trkpt lat="43.55764" lon="5.69537">
        <ele>557.12</ele>
        <time>2018-09-22T10:27:07Z</time>
      </trkpt>
      <trkpt lat="43.55769" lon="5.69562">
        <ele>556.71</ele>
        <time>2018-09-22T10:27:13Z</time>
      </trkpt>
      <trkpt lat="43.55771" lon="5.6959">
        <ele>558.13</ele>
        <time>2018-09-22T10:27:20Z</time>
      </trkpt>
      <trkpt lat="43.55772" lon="5.69616">
        <ele>559.03</ele>
        <time>2018-09-22T10:27:26Z</time>
      </trkpt>
      <trkpt lat="43.55774" lon="5.69642">
        <ele>558.05</ele>
        <time>2018-09-22T10:27:33Z</time>
      </trkpt>
      <trkpt lat="43.55775" lon="5.69668">
        <ele>557.19</ele>
        <time>2018-09-22T10:27:40Z</time>
      </trkpt>
      <trkpt lat="43.55778" lon="5.69696">
        <ele>558.13</ele>
        <time>2018-09-22T10:27:47Z</time>
      </trkpt>
      <trkpt lat="43.55779" lon="5.69724">
        <ele>559.26</ele>
        <time>2018-09-22T10:27:54Z</time>
      </trkpt>
      <trkpt lat="43.55782" lon="5.69752">
        <ele>559.03</ele>
        <time>2018-09-22T10:28:01Z</time>
      </trkpt>
      <trkpt lat="43.55789" lon="5.69775">
        <ele>559.26</ele>
        <time>2018-09-22T10:28:07Z</time>
      </trkpt>
      <trkpt lat="43.55797" lon="5.69798">
        <ele>557.62</ele>
        <time>2018-09-22T10:28:13Z</time>
      </trkpt>
      <trkpt lat="43.55802" lon="5.69824">
        <ele>556.82</ele>
        <time>2018-09-22T10:28:20Z</time>
      </trkpt>
      <trkpt lat="43.55806" lon="5.69852">
        <ele>555.85</ele>
        <time>2018-09-22T10:28:27Z</time>
      </trkpt>
      <trkpt lat="43.5581" lon="5.6988">
        <ele>556</ele>
        <time>2018-09-22T10:28:31Z</time>
      </trkpt>
      <trkpt lat="43.5581" lon="5.69905">
        <ele>556.44</ele>
        <time>2018-09-22T10:28:36Z</time>
      </trkpt>
      <trkpt lat="43.55813" lon="5.69934">
        <ele>554.7</ele>
        <time>2018-09-22T10:28:40Z</time>
      </trkpt>
      <trkpt lat="43.55823" lon="5.69961">
        <ele>554.78</ele>
        <time>2018-09-22T10:28:44Z</time>
      </trkpt>
      <trkpt lat="43.55836" lon="5.69985">
        <ele>554.09</ele>
        <time>2018-09-22T10:28:48Z</time>
      </trkpt>
      <trkpt lat="43.5585" lon="5.70008">
        <ele>553.79</ele>
        <time>2018-09-22T10:28:52Z</time>
      </trkpt>
      <trkpt lat="43.55863" lon="5.70033">
        <ele>552.88</ele>
        <time>2018-09-22T10:28:56Z</time>
      </trkpt>
      <trkpt lat="43.55874" lon="5.70059">
        <ele>551.17</ele>
        <time>2018-09-22T10:29:00Z</time>
      </trkpt>
      <trkpt lat="43.55885" lon="5.70088">
        <ele>549.4</ele>
        <time>2018-09-22T10:29:04Z</time>
      </trkpt>
      <trkpt lat="43.55896" lon="5.70107">
        <ele>548.89</ele>
        <time>2018-09-22T10:29:07Z</time>
      </trkpt>
      <trkpt lat="43.5591" lon="5.70124">
        <ele>548.57</ele>
        <time>2018-09-22T10:29:11Z</time>
      </trkpt>
      <trkpt lat="43.55923" lon="5.70146">
        <ele>547.52</ele>
        <time>2018-09-22T10:29:20Z</time>
      </trkpt>
      <trkpt lat="43.5592" lon="5.70173">
        <ele>546.74</ele>
        <time>2018-09-22T10:29:30Z</time>
      </trkpt>
      <trkpt lat="43.55911" lon="5.70198">
        <ele>546.21</ele>
        <time>2018-09-22T10:29:37Z</time>
      </trkpt>
      <trkpt lat="43.559" lon="5.70219">
        <ele>547.84</ele>
        <time>2018-09-22T10:29:43Z</time>
      </trkpt>
      <trkpt lat="43.55896" lon="5.70249">
        <ele>546.79</ele>
        <time>2018-09-22T10:30:34Z</time>
      </trkpt>
      <trkpt lat="43.55886" lon="5.70274">
        <ele>543.02</ele>
        <time>2018-09-22T10:30:40Z</time>
      </trkpt>
      <trkpt lat="43.55871" lon="5.70292">
        <ele>539.98</ele>
        <time>2018-09-22T10:30:46Z</time>
      </trkpt>
      <trkpt lat="43.55866" lon="5.70321">
        <ele>535.22</ele>
        <time>2018-09-22T10:30:55Z</time>
      </trkpt>
      <trkpt lat="43.55855" lon="5.70345">
        <ele>533.64</ele>
        <time>2018-09-22T10:31:01Z</time>
      </trkpt>
      <trkpt lat="43.55851" lon="5.70372">
        <ele>534.13</ele>
        <time>2018-09-22T10:31:05Z</time>
      </trkpt>
      <trkpt lat="43.55852" lon="5.70399">
        <ele>529.09</ele>
        <time>2018-09-22T10:31:13Z</time>
      </trkpt>
      <trkpt lat="43.55862" lon="5.70422">
        <ele>527.46</ele>
        <time>2018-09-22T10:31:20Z</time>
      </trkpt>
      <trkpt lat="43.5588" lon="5.70433">
        <ele>524.94</ele>
        <time>2018-09-22T10:31:26Z</time>
      </trkpt>
      <trkpt lat="43.55898" lon="5.70442">
        <ele>524.48</ele>
        <time>2018-09-22T10:31:31Z</time>
      </trkpt>
      <trkpt lat="43.55885" lon="5.70462">
        <ele>521.44</ele>
        <time>2018-09-22T10:31:36Z</time>
      </trkpt>
      <trkpt lat="43.55872" lon="5.7048">
        <ele>517.27</ele>
        <time>2018-09-22T10:31:41Z</time>
      </trkpt>
      <trkpt lat="43.55862" lon="5.70502">
        <ele>516.23</ele>
        <time>2018-09-22T10:31:47Z</time>
      </trkpt>
      <trkpt lat="43.55846" lon="5.70519">
        <ele>515.91</ele>
        <time>2018-09-22T10:31:53Z</time>
      </trkpt>
      <trkpt lat="43.55834" lon="5.7054">
        <ele>514.73</ele>
        <time>2018-09-22T10:31:57Z</time>
      </trkpt>
      <trkpt lat="43.55819" lon="5.70556">
        <ele>515.45</ele>
        <time>2018-09-22T10:32:00Z</time>
      </trkpt>
      <trkpt lat="43.55802" lon="5.70577">
        <ele>516.71</ele>
        <time>2018-09-22T10:32:05Z</time>
      </trkpt>
      <trkpt lat="43.55786" lon="5.70591">
        <ele>516.15</ele>
        <time>2018-09-22T10:32:08Z</time>
      </trkpt>
      <trkpt lat="43.55765" lon="5.70599">
        <ele>507.36</ele>
        <time>2018-09-22T10:32:13Z</time>
      </trkpt>
      <trkpt lat="43.55743" lon="5.70593">
        <ele>504.05</ele>
        <time>2018-09-22T10:32:19Z</time>
      </trkpt>
      <trkpt lat="43.55724" lon="5.70589">
        <ele>499.74</ele>
        <time>2018-09-22T10:32:23Z</time>
      </trkpt>
      <trkpt lat="43.55707" lon="5.70608">
        <ele>497.11</ele>
        <time>2018-09-22T10:32:28Z</time>
      </trkpt>
      <trkpt lat="43.5569" lon="5.70628">
        <ele>496.29</ele>
        <time>2018-09-22T10:32:32Z</time>
      </trkpt>
      <trkpt lat="43.55676" lon="5.70647">
        <ele>494.56</ele>
        <time>2018-09-22T10:32:35Z</time>
      </trkpt>
      <trkpt lat="43.55661" lon="5.70661">
        <ele>492.49</ele>
        <time>2018-09-22T10:32:38Z</time>
      </trkpt>
      <trkpt lat="43.55647" lon="5.70681">
        <ele>492.76</ele>
        <time>2018-09-22T10:32:42Z</time>
      </trkpt>
      <trkpt lat="43.55635" lon="5.70662">
        <ele>494.22</ele>
        <time>2018-09-22T10:32:54Z</time>
      </trkpt>
      <trkpt lat="43.55627" lon="5.70639">
        <ele>492.74</ele>
        <time>2018-09-22T10:34:02Z</time>
      </trkpt>
      <trkpt lat="43.55625" lon="5.70613">
        <ele>495.63</ele>
        <time>2018-09-22T10:34:14Z</time>
      </trkpt>
      <trkpt lat="43.55626" lon="5.70587">
        <ele>509.21</ele>
        <time>2018-09-22T10:34:19Z</time>
      </trkpt>
      <trkpt lat="43.55615" lon="5.70567">
        <ele>505.86</ele>
        <time>2018-09-22T10:34:38Z</time>
      </trkpt>
      <trkpt lat="43.55597" lon="5.70574">
        <ele>501.24</ele>
        <time>2018-09-22T10:34:51Z</time>
      </trkpt>
      <trkpt lat="43.5558" lon="5.70584">
        <ele>499.94</ele>
        <time>2018-09-22T10:35:02Z</time>
      </trkpt>
      <trkpt lat="43.55564" lon="5.70597">
        <ele>501.57</ele>
        <time>2018-09-22T10:35:10Z</time>
      </trkpt>
      <trkpt lat="43.55545" lon="5.70603">
        <ele>499.49</ele>
        <time>2018-09-22T10:35:17Z</time>
      </trkpt>
      <trkpt lat="43.55527" lon="5.70608">
        <ele>501.87</ele>
        <time>2018-09-22T10:35:22Z</time>
      </trkpt>
      <trkpt lat="43.55507" lon="5.70618">
        <ele>500.99</ele>
        <time>2018-09-22T10:35:30Z</time>
      </trkpt>
      <trkpt lat="43.55487" lon="5.70622">
        <ele>500.39</ele>
        <time>2018-09-22T10:35:35Z</time>
      </trkpt>
      <trkpt lat="43.55468" lon="5.7063">
        <ele>497.21</ele>
        <time>2018-09-22T10:35:40Z</time>
      </trkpt>
      <trkpt lat="43.55447" lon="5.70636">
        <ele>496.3</ele>
        <time>2018-09-22T10:35:45Z</time>
      </trkpt>
      <trkpt lat="43.55425" lon="5.70645">
        <ele>497.28</ele>
        <time>2018-09-22T10:35:50Z</time>
      </trkpt>
      <trkpt lat="43.55407" lon="5.70657">
        <ele>499.94</ele>
        <time>2018-09-22T10:35:56Z</time>
      </trkpt>
      <trkpt lat="43.55387" lon="5.70664">
        <ele>501.36</ele>
        <time>2018-09-22T10:36:00Z</time>
      </trkpt>
      <trkpt lat="43.55368" lon="5.7067">
        <ele>501.44</ele>
        <time>2018-09-22T10:36:05Z</time>
      </trkpt>
      <trkpt lat="43.55347" lon="5.7067">
        <ele>501.03</ele>
        <time>2018-09-22T10:36:10Z</time>
      </trkpt>
      <trkpt lat="43.55327" lon="5.70669">
        <ele>502.19</ele>
        <time>2018-09-22T10:36:14Z</time>
      </trkpt>
      <trkpt lat="43.55308" lon="5.70665">
        <ele>501</ele>
        <time>2018-09-22T10:36:18Z</time>
      </trkpt>
      <trkpt lat="43.55285" lon="5.70661">
        <ele>501.76</ele>
        <time>2018-09-22T10:36:23Z</time>
      </trkpt>
      <trkpt lat="43.55266" lon="5.70657">
        <ele>501.74</ele>
        <time>2018-09-22T10:36:27Z</time>
      </trkpt>
      <trkpt lat="43.55245" lon="5.70657">
        <ele>501.37</ele>
        <time>2018-09-22T10:36:31Z</time>
      </trkpt>
      <trkpt lat="43.55225" lon="5.70653">
        <ele>500.94</ele>
        <time>2018-09-22T10:36:35Z</time>
      </trkpt>
      <trkpt lat="43.55204" lon="5.70648">
        <ele>500.41</ele>
        <time>2018-09-22T10:36:39Z</time>
      </trkpt>
      <trkpt lat="43.55181" lon="5.7064">
        <ele>500.48</ele>
        <time>2018-09-22T10:36:43Z</time>
      </trkpt>
      <trkpt lat="43.55161" lon="5.70638">
        <ele>500.35</ele>
        <time>2018-09-22T10:36:47Z</time>
      </trkpt>
      <trkpt lat="43.55141" lon="5.70626">
        <ele>499.14</ele>
        <time>2018-09-22T10:36:51Z</time>
      </trkpt>
      <trkpt lat="43.55121" lon="5.70624">
        <ele>499.68</ele>
        <time>2018-09-22T10:36:55Z</time>
      </trkpt>
      <trkpt lat="43.55102" lon="5.70624">
        <ele>498.78</ele>
        <time>2018-09-22T10:36:57Z</time>
      </trkpt>
      <trkpt lat="43.55082" lon="5.70623">
        <ele>500.38</ele>
        <time>2018-09-22T10:37:02Z</time>
      </trkpt>
      <trkpt lat="43.55065" lon="5.70612">
        <ele>499.54</ele>
        <time>2018-09-22T10:37:07Z</time>
      </trkpt>
      <trkpt lat="43.55044" lon="5.70607">
        <ele>496.24</ele>
        <time>2018-09-22T10:37:12Z</time>
      </trkpt>
      <trkpt lat="43.55026" lon="5.70608">
        <ele>498.62</ele>
        <time>2018-09-22T10:37:17Z</time>
      </trkpt>
      <trkpt lat="43.55006" lon="5.70602">
        <ele>498.82</ele>
        <time>2018-09-22T10:37:22Z</time>
      </trkpt>
      <trkpt lat="43.54986" lon="5.70604">
        <ele>499.97</ele>
        <time>2018-09-22T10:37:27Z</time>
      </trkpt>
      <trkpt lat="43.54966" lon="5.70602">
        <ele>499.05</ele>
        <time>2018-09-22T10:37:32Z</time>
      </trkpt>
      <trkpt lat="43.54944" lon="5.70599">
        <ele>500.89</ele>
        <time>2018-09-22T10:37:37Z</time>
      </trkpt>
      <trkpt lat="43.54923" lon="5.70598">
        <ele>501.29</ele>
        <time>2018-09-22T10:37:41Z</time>
      </trkpt>
      <trkpt lat="43.54903" lon="5.70596">
        <ele>500.76</ele>
        <time>2018-09-22T10:37:45Z</time>
      </trkpt>
      <trkpt lat="43.54884" lon="5.70592">
        <ele>500.29</ele>
        <time>2018-09-22T10:37:49Z</time>
      </trkpt>
      <trkpt lat="43.54861" lon="5.70595">
        <ele>501.25</ele>
        <time>2018-09-22T10:37:53Z</time>
      </trkpt>
      <trkpt lat="43.54842" lon="5.70592">
        <ele>499.9</ele>
        <time>2018-09-22T10:37:57Z</time>
      </trkpt>
      <trkpt lat="43.54822" lon="5.706">
        <ele>495.72</ele>
        <time>2018-09-22T10:38:02Z</time>
      </trkpt>
      <trkpt lat="43.54804" lon="5.70593">
        <ele>496.16</ele>
        <time>2018-09-22T10:38:06Z</time>
      </trkpt>
      <trkpt lat="43.54783" lon="5.70582">
        <ele>496.21</ele>
        <time>2018-09-22T10:38:13Z</time>
      </trkpt>
      <trkpt lat="43.54761" lon="5.70577">
        <ele>498.53</ele>
        <time>2018-09-22T10:38:19Z</time>
      </trkpt>
      <trkpt lat="43.54739" lon="5.70576">
        <ele>500.78</ele>
        <time>2018-09-22T10:38:24Z</time>
      </trkpt>
      <trkpt lat="43.5472" lon="5.70574">
        <ele>500.28</ele>
        <time>2018-09-22T10:38:29Z</time>
      </trkpt>
      <trkpt lat="43.54699" lon="5.70571">
        <ele>499.1</ele>
        <time>2018-09-22T10:38:35Z</time>
      </trkpt>
      <trkpt lat="43.54679" lon="5.70559">
        <ele>500.47</ele>
        <time>2018-09-22T10:38:41Z</time>
      </trkpt>
      <trkpt lat="43.54658" lon="5.70554">
        <ele>500.29</ele>
        <time>2018-09-22T10:38:47Z</time>
      </trkpt>
      <trkpt lat="43.54641" lon="5.70565">
        <ele>499.93</ele>
        <time>2018-09-22T10:38:54Z</time>
      </trkpt>
      <trkpt lat="43.54629" lon="5.70586">
        <ele>499.5</ele>
        <time>2018-09-22T10:39:01Z</time>
      </trkpt>
      <trkpt lat="43.54613" lon="5.70609">
        <ele>499.54</ele>
        <time>2018-09-22T10:40:29Z</time>
      </trkpt>
      <trkpt lat="43.54603" lon="5.7063">
        <ele>497.92</ele>
        <time>2018-09-22T10:40:32Z</time>
      </trkpt>
      <trkpt lat="43.54589" lon="5.70652">
        <ele>497.29</ele>
        <time>2018-09-22T10:40:35Z</time>
      </trkpt>
      <trkpt lat="43.54575" lon="5.70675">
        <ele>495.57</ele>
        <time>2018-09-22T10:40:38Z</time>
      </trkpt>
      <trkpt lat="43.54554" lon="5.70697">
        <ele>495.88</ele>
        <time>2018-09-22T10:40:41Z</time>
      </trkpt>
      <trkpt lat="43.54542" lon="5.70718">
        <ele>495.25</ele>
        <time>2018-09-22T10:40:43Z</time>
      </trkpt>
      <trkpt lat="43.54526" lon="5.7074">
        <ele>494.39</ele>
        <time>2018-09-22T10:40:46Z</time>
      </trkpt>
      <trkpt lat="43.54509" lon="5.70766">
        <ele>493.38</ele>
        <time>2018-09-22T10:40:49Z</time>
      </trkpt>
      <trkpt lat="43.54492" lon="5.70794">
        <ele>491.69</ele>
        <time>2018-09-22T10:40:52Z</time>
      </trkpt>
      <trkpt lat="43.54476" lon="5.70821">
        <ele>491.12</ele>
        <time>2018-09-22T10:40:55Z</time>
      </trkpt>
      <trkpt lat="43.54458" lon="5.7085">
        <ele>491.29</ele>
        <time>2018-09-22T10:40:57Z</time>
      </trkpt>
      <trkpt lat="43.54443" lon="5.70877">
        <ele>490.93</ele>
        <time>2018-09-22T10:41:01Z</time>
      </trkpt>
      <trkpt lat="43.54429" lon="5.70894">
        <ele>490.44</ele>
        <time>2018-09-22T10:41:03Z</time>
      </trkpt>
      <trkpt lat="43.54423" lon="5.70919">
        <ele>488.26</ele>
        <time>2018-09-22T10:41:06Z</time>
      </trkpt>
      <trkpt lat="43.54414" lon="5.70943">
        <ele>487.94</ele>
        <time>2018-09-22T10:41:09Z</time>
      </trkpt>
      <trkpt lat="43.54398" lon="5.70964">
        <ele>486.15</ele>
        <time>2018-09-22T10:41:12Z</time>
      </trkpt>
      <trkpt lat="43.54386" lon="5.70983">
        <ele>487.42</ele>
        <time>2018-09-22T10:41:15Z</time>
      </trkpt>
      <trkpt lat="43.54368" lon="5.71007">
        <ele>487.92</ele>
        <time>2018-09-22T10:41:19Z</time>
      </trkpt>
      <trkpt lat="43.5435" lon="5.71032">
        <ele>487.29</ele>
        <time>2018-09-22T10:41:23Z</time>
      </trkpt>
      <trkpt lat="43.54336" lon="5.7105">
        <ele>487.45</ele>
        <time>2018-09-22T10:41:26Z</time>
      </trkpt>
      <trkpt lat="43.54322" lon="5.71071">
        <ele>487.91</ele>
        <time>2018-09-22T10:41:29Z</time>
      </trkpt>
      <trkpt lat="43.54305" lon="5.71092">
        <ele>487.48</ele>
        <time>2018-09-22T10:41:33Z</time>
      </trkpt>
      <trkpt lat="43.54289" lon="5.7111">
        <ele>487.4</ele>
        <time>2018-09-22T10:41:37Z</time>
      </trkpt>
      <trkpt lat="43.54277" lon="5.71131">
        <ele>488</ele>
        <time>2018-09-22T10:41:41Z</time>
      </trkpt>
      <trkpt lat="43.54266" lon="5.71152">
        <ele>487.5</ele>
        <time>2018-09-22T10:41:46Z</time>
      </trkpt>
      <trkpt lat="43.54255" lon="5.71173">
        <ele>487.87</ele>
        <time>2018-09-22T10:41:50Z</time>
      </trkpt>
      <trkpt lat="43.54242" lon="5.71195">
        <ele>485.01</ele>
        <time>2018-09-22T10:41:56Z</time>
      </trkpt>
      <trkpt lat="43.54228" lon="5.71216">
        <ele>484.35</ele>
        <time>2018-09-22T10:42:01Z</time>
      </trkpt>
      <trkpt lat="43.54217" lon="5.7124">
        <ele>486.53</ele>
        <time>2018-09-22T10:42:06Z</time>
      </trkpt>
      <trkpt lat="43.54203" lon="5.71262">
        <ele>484.59</ele>
        <time>2018-09-22T10:42:12Z</time>
      </trkpt>
      <trkpt lat="43.5419" lon="5.71281">
        <ele>485.32</ele>
        <time>2018-09-22T10:42:19Z</time>
      </trkpt>
      <trkpt lat="43.54179" lon="5.71303">
        <ele>488.08</ele>
        <time>2018-09-22T10:42:27Z</time>
      </trkpt>
      <trkpt lat="43.54168" lon="5.71325">
        <ele>489.61</ele>
        <time>2018-09-22T10:42:36Z</time>
      </trkpt>
      <trkpt lat="43.54154" lon="5.71343">
        <ele>489.68</ele>
        <time>2018-09-22T10:42:44Z</time>
      </trkpt>
      <trkpt lat="43.54141" lon="5.71363">
        <ele>490.52</ele>
        <time>2018-09-22T10:42:51Z</time>
      </trkpt>
      <trkpt lat="43.54126" lon="5.7138">
        <ele>492.62</ele>
        <time>2018-09-22T10:42:59Z</time>
      </trkpt>
      <trkpt lat="43.54114" lon="5.71399">
        <ele>492.29</ele>
        <time>2018-09-22T10:43:06Z</time>
      </trkpt>
      <trkpt lat="43.54097" lon="5.71414">
        <ele>496.93</ele>
        <time>2018-09-22T10:43:13Z</time>
      </trkpt>
      <trkpt lat="43.54082" lon="5.71431">
        <ele>498.25</ele>
        <time>2018-09-22T10:43:19Z</time>
      </trkpt>
      <trkpt lat="43.54068" lon="5.71449">
        <ele>500.82</ele>
        <time>2018-09-22T10:43:24Z</time>
      </trkpt>
      <trkpt lat="43.54055" lon="5.71467">
        <ele>503.64</ele>
        <time>2018-09-22T10:43:31Z</time>
      </trkpt>
      <trkpt lat="43.54038" lon="5.7148">
        <ele>503.06</ele>
        <time>2018-09-22T10:43:37Z</time>
      </trkpt>
      <trkpt lat="43.54025" lon="5.71497">
        <ele>503.31</ele>
        <time>2018-09-22T10:43:44Z</time>
      </trkpt>
      <trkpt lat="43.5401" lon="5.71515">
        <ele>502.38</ele>
        <time>2018-09-22T10:43:51Z</time>
      </trkpt>
      <trkpt lat="43.53991" lon="5.71527">
        <ele>504.86</ele>
        <time>2018-09-22T10:43:57Z</time>
      </trkpt>
      <trkpt lat="43.53971" lon="5.71533">
        <ele>504.07</ele>
        <time>2018-09-22T10:44:03Z</time>
      </trkpt>
      <trkpt lat="43.53952" lon="5.71537">
        <ele>505.77</ele>
        <time>2018-09-22T10:44:09Z</time>
      </trkpt>
      <trkpt lat="43.53932" lon="5.7154">
        <ele>509.39</ele>
        <time>2018-09-22T10:44:15Z</time>
      </trkpt>
      <trkpt lat="43.53912" lon="5.71546">
        <ele>509.45</ele>
        <time>2018-09-22T10:44:19Z</time>
      </trkpt>
      <trkpt lat="43.53892" lon="5.71551">
        <ele>509.4</ele>
        <time>2018-09-22T10:44:22Z</time>
      </trkpt>
      <trkpt lat="43.53868" lon="5.71555">
        <ele>509.05</ele>
        <time>2018-09-22T10:44:25Z</time>
      </trkpt>
      <trkpt lat="43.53846" lon="5.71559">
        <ele>508.56</ele>
        <time>2018-09-22T10:44:28Z</time>
      </trkpt>
      <trkpt lat="43.53828" lon="5.71561">
        <ele>508.43</ele>
        <time>2018-09-22T10:44:30Z</time>
      </trkpt>
      <trkpt lat="43.53805" lon="5.71563">
        <ele>507.01</ele>
        <time>2018-09-22T10:44:33Z</time>
      </trkpt>
      <trkpt lat="43.53782" lon="5.71568">
        <ele>506.48</ele>
        <time>2018-09-22T10:44:36Z</time>
      </trkpt>
      <trkpt lat="43.53755" lon="5.71573">
        <ele>506.02</ele>
        <time>2018-09-22T10:44:39Z</time>
      </trkpt>
      <trkpt lat="43.53735" lon="5.71574">
        <ele>504.68</ele>
        <time>2018-09-22T10:44:42Z</time>
      </trkpt>
      <trkpt lat="43.53722" lon="5.71555">
        <ele>501.41</ele>
        <time>2018-09-22T10:44:46Z</time>
      </trkpt>
      <trkpt lat="43.53724" lon="5.71529">
        <ele>497.41</ele>
        <time>2018-09-22T10:44:50Z</time>
      </trkpt>
      <trkpt lat="43.5374" lon="5.71509">
        <ele>488.7</ele>
      </trkpt>
      <trkpt lat="43.53754" lon="5.71485">
        <ele>492.6</ele>
        <time>2018-09-22T10:44:58Z</time>
      </trkpt>
      <trkpt lat="43.5376" lon="5.71456">
        <ele>491.62</ele>
        <time>2018-09-22T10:45:02Z</time>
      </trkpt>
      <trkpt lat="43.53748" lon="5.71433">
        <ele>489.15</ele>
        <time>2018-09-22T10:45:06Z</time>
      </trkpt>
      <trkpt lat="43.53734" lon="5.71416">
        <ele>487.6</ele>
        <time>2018-09-22T10:45:09Z</time>
      </trkpt>
      <trkpt lat="43.53718" lon="5.71397">
        <ele>486.26</ele>
        <time>2018-09-22T10:45:12Z</time>
      </trkpt>
      <trkpt lat="43.53706" lon="5.71375">
        <ele>483.72</ele>
        <time>2018-09-22T10:45:15Z</time>
      </trkpt>
      <trkpt lat="43.53692" lon="5.71352">
        <ele>482.5</ele>
        <time>2018-09-22T10:45:18Z</time>
      </trkpt>
      <trkpt lat="43.53679" lon="5.71331">
        <ele>482.15</ele>
        <time>2018-09-22T10:45:21Z</time>
      </trkpt>
      <trkpt lat="43.53665" lon="5.71309">
        <ele>481.34</ele>
        <time>2018-09-22T10:45:24Z</time>
      </trkpt>
      <trkpt lat="43.53652" lon="5.71287">
        <ele>480.26</ele>
        <time>2018-09-22T10:45:27Z</time>
      </trkpt>
      <trkpt lat="43.53639" lon="5.71267">
        <ele>478.88</ele>
        <time>2018-09-22T10:45:30Z</time>
      </trkpt>
      <trkpt lat="43.53626" lon="5.71246">
        <ele>477.18</ele>
        <time>2018-09-22T10:45:33Z</time>
      </trkpt>
      <trkpt lat="43.53613" lon="5.71227">
        <ele>477</ele>
        <time>2018-09-22T10:45:36Z</time>
      </trkpt>
      <trkpt lat="43.53599" lon="5.71206">
        <ele>476.2</ele>
        <time>2018-09-22T10:45:39Z</time>
      </trkpt>
      <trkpt lat="43.53586" lon="5.71187">
        <ele>477.25</ele>
        <time>2018-09-22T10:45:42Z</time>
      </trkpt>
      <trkpt lat="43.53572" lon="5.71166">
        <ele>476.32</ele>
        <time>2018-09-22T10:45:45Z</time>
      </trkpt>
      <trkpt lat="43.53561" lon="5.71146">
        <ele>474.24</ele>
        <time>2018-09-22T10:45:48Z</time>
      </trkpt>
      <trkpt lat="43.5355" lon="5.71124">
        <ele>473.28</ele>
        <time>2018-09-22T10:45:51Z</time>
      </trkpt>
      <trkpt lat="43.53543" lon="5.711">
        <ele>473.06</ele>
        <time>2018-09-22T10:45:54Z</time>
      </trkpt>
      <trkpt lat="43.53534" lon="5.71076">
        <ele>473.65</ele>
        <time>2018-09-22T10:45:57Z</time>
      </trkpt>
      <trkpt lat="43.53526" lon="5.71054">
        <ele>474.4</ele>
        <time>2018-09-22T10:46:00Z</time>
      </trkpt>
      <trkpt lat="43.53517" lon="5.71031">
        <ele>474.06</ele>
        <time>2018-09-22T10:46:03Z</time>
      </trkpt>
      <trkpt lat="43.53509" lon="5.71008">
        <ele>473.56</ele>
        <time>2018-09-22T10:46:06Z</time>
      </trkpt>
      <trkpt lat="43.535" lon="5.70986">
        <ele>473.37</ele>
        <time>2018-09-22T10:46:09Z</time>
      </trkpt>
      <trkpt lat="43.5349" lon="5.70962">
        <ele>472.57</ele>
        <time>2018-09-22T10:46:12Z</time>
      </trkpt>
      <trkpt lat="43.53481" lon="5.70939">
        <ele>471.83</ele>
        <time>2018-09-22T10:46:15Z</time>
      </trkpt>
      <trkpt lat="43.53473" lon="5.70916">
        <ele>471.63</ele>
        <time>2018-09-22T10:46:18Z</time>
      </trkpt>
      <trkpt lat="43.53465" lon="5.7089">
        <ele>471.93</ele>
        <time>2018-09-22T10:46:21Z</time>
      </trkpt>
      <trkpt lat="43.53456" lon="5.70859">
        <ele>471.05</ele>
        <time>2018-09-22T10:46:25Z</time>
      </trkpt>
      <trkpt lat="43.53448" lon="5.70832">
        <ele>470.29</ele>
        <time>2018-09-22T10:46:29Z</time>
      </trkpt>
      <trkpt lat="43.53437" lon="5.70805">
        <ele>470.59</ele>
        <time>2018-09-22T10:46:33Z</time>
      </trkpt>
      <trkpt lat="43.53429" lon="5.70777">
        <ele>470.41</ele>
        <time>2018-09-22T10:46:37Z</time>
      </trkpt>
      <trkpt lat="43.53419" lon="5.7075">
        <ele>470.55</ele>
        <time>2018-09-22T10:46:41Z</time>
      </trkpt>
      <trkpt lat="43.53409" lon="5.70725">
        <ele>471</ele>
        <time>2018-09-22T10:46:45Z</time>
      </trkpt>
      <trkpt lat="43.53398" lon="5.707">
        <ele>470.32</ele>
        <time>2018-09-22T10:46:49Z</time>
      </trkpt>
      <trkpt lat="43.53388" lon="5.70674">
        <ele>470.14</ele>
        <time>2018-09-22T10:46:53Z</time>
      </trkpt>
      <trkpt lat="43.53378" lon="5.70649">
        <ele>471.25</ele>
        <time>2018-09-22T10:46:57Z</time>
      </trkpt>
      <trkpt lat="43.53368" lon="5.70625">
        <ele>470.64</ele>
        <time>2018-09-22T10:47:01Z</time>
      </trkpt>
      <trkpt lat="43.53357" lon="5.706">
        <ele>470.84</ele>
        <time>2018-09-22T10:47:05Z</time>
      </trkpt>
      <trkpt lat="43.53346" lon="5.70575">
        <ele>471.01</ele>
        <time>2018-09-22T10:47:09Z</time>
      </trkpt>
      <trkpt lat="43.53335" lon="5.70551">
        <ele>471.15</ele>
        <time>2018-09-22T10:47:14Z</time>
      </trkpt>
      <trkpt lat="43.53324" lon="5.70529">
        <ele>470.55</ele>
        <time>2018-09-22T10:47:18Z</time>
      </trkpt>
      <trkpt lat="43.53316" lon="5.70506">
        <ele>470.4</ele>
        <time>2018-09-22T10:47:22Z</time>
      </trkpt>
      <trkpt lat="43.53306" lon="5.7048">
        <ele>469.94</ele>
        <time>2018-09-22T10:47:27Z</time>
      </trkpt>
      <trkpt lat="43.53296" lon="5.70452">
        <ele>469.28</ele>
        <time>2018-09-22T10:47:32Z</time>
      </trkpt>
      <trkpt lat="43.53288" lon="5.70426">
        <ele>468.13</ele>
        <time>2018-09-22T10:47:35Z</time>
      </trkpt>
      <trkpt lat="43.5328" lon="5.70403">
        <ele>468.12</ele>
        <time>2018-09-22T10:47:39Z</time>
      </trkpt>
      <trkpt lat="43.53275" lon="5.70376">
        <ele>465.74</ele>
        <time>2018-09-22T10:47:44Z</time>
      </trkpt>
      <trkpt lat="43.53273" lon="5.70347">
        <ele>466.18</ele>
        <time>2018-09-22T10:47:48Z</time>
      </trkpt>
      <trkpt lat="43.53273" lon="5.70322">
        <ele>465.69</ele>
        <time>2018-09-22T10:47:51Z</time>
      </trkpt>
      <trkpt lat="43.53267" lon="5.70298">
        <ele>464.57</ele>
        <time>2018-09-22T10:47:54Z</time>
      </trkpt>
      <trkpt lat="43.53269" lon="5.70269">
        <ele>464.06</ele>
        <time>2018-09-22T10:47:58Z</time>
      </trkpt>
      <trkpt lat="43.53257" lon="5.70246">
        <ele>461.91</ele>
        <time>2018-09-22T10:48:02Z</time>
      </trkpt>
      <trkpt lat="43.53236" lon="5.70233">
        <ele>461.65</ele>
        <time>2018-09-22T10:48:06Z</time>
      </trkpt>
      <trkpt lat="43.53226" lon="5.70207">
        <ele>459.78</ele>
        <time>2018-09-22T10:48:10Z</time>
      </trkpt>
      <trkpt lat="43.53219" lon="5.70177">
        <ele>459.01</ele>
        <time>2018-09-22T10:48:14Z</time>
      </trkpt>
      <trkpt lat="43.53216" lon="5.7015">
        <ele>458.98</ele>
        <time>2018-09-22T10:48:39Z</time>
      </trkpt>
      <trkpt lat="43.5321" lon="5.70121">
        <ele>456.46</ele>
        <time>2018-09-22T10:48:45Z</time>
      </trkpt>
      <trkpt lat="43.53204" lon="5.70095">
        <ele>455.27</ele>
        <time>2018-09-22T10:48:49Z</time>
      </trkpt>
      <trkpt lat="43.53203" lon="5.70064">
        <ele>454.98</ele>
        <time>2018-09-22T10:48:52Z</time>
      </trkpt>
      <trkpt lat="43.532" lon="5.70034">
        <ele>453.69</ele>
        <time>2018-09-22T10:49:07Z</time>
      </trkpt>
      <trkpt lat="43.532" lon="5.70007">
        <ele>452.27</ele>
        <time>2018-09-22T10:49:11Z</time>
      </trkpt>
      <trkpt lat="43.53211" lon="5.69981">
        <ele>452.06</ele>
        <time>2018-09-22T10:49:15Z</time>
      </trkpt>
      <trkpt lat="43.53221" lon="5.69954">
        <ele>452.05</ele>
        <time>2018-09-22T10:49:19Z</time>
      </trkpt>
      <trkpt lat="43.5322" lon="5.69927">
        <ele>450.48</ele>
        <time>2018-09-22T10:49:22Z</time>
      </trkpt>
      <trkpt lat="43.53201" lon="5.69915">
        <ele>450.12</ele>
        <time>2018-09-22T10:49:26Z</time>
      </trkpt>
      <trkpt lat="43.53179" lon="5.69897">
        <ele>447.62</ele>
        <time>2018-09-22T10:49:30Z</time>
      </trkpt>
      <trkpt lat="43.53163" lon="5.69879">
        <ele>444.91</ele>
        <time>2018-09-22T10:49:33Z</time>
      </trkpt>
      <trkpt lat="43.5315" lon="5.69858">
        <ele>443.13</ele>
        <time>2018-09-22T10:49:36Z</time>
      </trkpt>
      <trkpt lat="43.53144" lon="5.69833">
        <ele>440.65</ele>
        <time>2018-09-22T10:49:39Z</time>
      </trkpt>
      <trkpt lat="43.53148" lon="5.698">
        <ele>438.16</ele>
        <time>2018-09-22T10:49:43Z</time>
      </trkpt>
      <trkpt lat="43.53161" lon="5.69781">
        <ele>437.88</ele>
        <time>2018-09-22T10:49:46Z</time>
      </trkpt>
      <trkpt lat="43.53166" lon="5.69756">
        <ele>436.72</ele>
        <time>2018-09-22T10:49:50Z</time>
      </trkpt>
      <trkpt lat="43.5315" lon="5.69743">
        <ele>434.7</ele>
        <time>2018-09-22T10:49:54Z</time>
      </trkpt>
      <trkpt lat="43.53126" lon="5.69738">
        <ele>432.99</ele>
        <time>2018-09-22T10:49:58Z</time>
      </trkpt>
      <trkpt lat="43.53109" lon="5.69731">
        <ele>431.72</ele>
        <time>2018-09-22T10:50:00Z</time>
      </trkpt>
      <trkpt lat="43.53091" lon="5.6971">
        <ele>429.8</ele>
        <time>2018-09-22T10:50:05Z</time>
      </trkpt>
      <trkpt lat="43.53085" lon="5.69682">
        <ele>427.14</ele>
        <time>2018-09-22T10:50:09Z</time>
      </trkpt>
      <trkpt lat="43.53081" lon="5.6965">
        <ele>425.22</ele>
        <time>2018-09-22T10:50:12Z</time>
      </trkpt>
      <trkpt lat="43.53076" lon="5.69619">
        <ele>423.7</ele>
        <time>2018-09-22T10:50:15Z</time>
      </trkpt>
      <trkpt lat="43.53071" lon="5.69593">
        <ele>423.33</ele>
        <time>2018-09-22T10:50:18Z</time>
      </trkpt>
      <trkpt lat="43.53067" lon="5.69568">
        <ele>421.87</ele>
        <time>2018-09-22T10:50:21Z</time>
      </trkpt>
      <trkpt lat="43.53061" lon="5.69543">
        <ele>419.75</ele>
        <time>2018-09-22T10:50:24Z</time>
      </trkpt>
      <trkpt lat="43.53056" lon="5.69516">
        <ele>418.56</ele>
        <time>2018-09-22T10:50:27Z</time>
      </trkpt>
      <trkpt lat="43.53054" lon="5.69487">
        <ele>416.24</ele>
        <time>2018-09-22T10:50:30Z</time>
      </trkpt>
      <trkpt lat="43.53054" lon="5.69458">
        <ele>413.64</ele>
        <time>2018-09-22T10:50:33Z</time>
      </trkpt>
      <trkpt lat="43.53046" lon="5.69435">
        <ele>409.44</ele>
        <time>2018-09-22T10:50:37Z</time>
      </trkpt>
      <trkpt lat="43.53025" lon="5.69441">
        <ele>406.77</ele>
        <time>2018-09-22T10:50:41Z</time>
      </trkpt>
      <trkpt lat="43.53009" lon="5.69454">
        <ele>404.13</ele>
        <time>2018-09-22T10:50:45Z</time>
      </trkpt>
      <trkpt lat="43.52989" lon="5.69464">
        <ele>403.89</ele>
        <time>2018-09-22T10:50:49Z</time>
      </trkpt>
      <trkpt lat="43.52967" lon="5.69478">
        <ele>402.58</ele>
        <time>2018-09-22T10:50:53Z</time>
      </trkpt>
      <trkpt lat="43.52947" lon="5.69483">
        <ele>401.27</ele>
        <time>2018-09-22T10:50:57Z</time>
      </trkpt>
      <trkpt lat="43.5293" lon="5.69468">
        <ele>399.44</ele>
        <time>2018-09-22T10:51:00Z</time>
      </trkpt>
      <trkpt lat="43.52916" lon="5.69452">
        <ele>397.79</ele>
        <time>2018-09-22T10:51:03Z</time>
      </trkpt>
      <trkpt lat="43.52904" lon="5.69432">
        <ele>393.75</ele>
        <time>2018-09-22T10:51:07Z</time>
      </trkpt>
      <trkpt lat="43.52896" lon="5.69405">
        <ele>391.12</ele>
        <time>2018-09-22T10:51:11Z</time>
      </trkpt>
      <trkpt lat="43.52889" lon="5.69382">
        <ele>389.52</ele>
        <time>2018-09-22T10:51:14Z</time>
      </trkpt>
      <trkpt lat="43.52887" lon="5.69357">
        <ele>387.09</ele>
        <time>2018-09-22T10:51:17Z</time>
      </trkpt>
      <trkpt lat="43.52884" lon="5.69329">
        <ele>385.76</ele>
        <time>2018-09-22T10:51:20Z</time>
      </trkpt>
      <trkpt lat="43.52882" lon="5.69299">
        <ele>383.93</ele>
        <time>2018-09-22T10:51:23Z</time>
      </trkpt>
      <trkpt lat="43.52881" lon="5.6927">
        <ele>381.62</ele>
        <time>2018-09-22T10:51:26Z</time>
      </trkpt>
      <trkpt lat="43.52868" lon="5.69245">
        <ele>378.38</ele>
        <time>2018-09-22T10:51:30Z</time>
      </trkpt>
      <trkpt lat="43.52849" lon="5.69243">
        <ele>376.63</ele>
        <time>2018-09-22T10:51:33Z</time>
      </trkpt>
      <trkpt lat="43.52825" lon="5.69244">
        <ele>375.79</ele>
        <time>2018-09-22T10:51:36Z</time>
      </trkpt>
      <trkpt lat="43.52804" lon="5.69241">
        <ele>375.21</ele>
        <time>2018-09-22T10:51:39Z</time>
      </trkpt>
      <trkpt lat="43.52788" lon="5.6922">
        <ele>372.85</ele>
        <time>2018-09-22T10:51:43Z</time>
      </trkpt>
      <trkpt lat="43.52779" lon="5.69197">
        <ele>369.1</ele>
        <time>2018-09-22T10:51:46Z</time>
      </trkpt>
      <trkpt lat="43.52767" lon="5.69171">
        <ele>366.49</ele>
        <time>2018-09-22T10:51:49Z</time>
      </trkpt>
      <trkpt lat="43.52755" lon="5.69142">
        <ele>365.11</ele>
        <time>2018-09-22T10:51:52Z</time>
      </trkpt>
      <trkpt lat="43.52745" lon="5.69114">
        <ele>363.84</ele>
        <time>2018-09-22T10:51:55Z</time>
      </trkpt>
      <trkpt lat="43.52735" lon="5.69085">
        <ele>363.44</ele>
        <time>2018-09-22T10:51:58Z</time>
      </trkpt>
      <trkpt lat="43.52727" lon="5.69057">
        <ele>362.72</ele>
        <time>2018-09-22T10:52:01Z</time>
      </trkpt>
      <trkpt lat="43.52713" lon="5.69031">
        <ele>361.84</ele>
        <time>2018-09-22T10:52:05Z</time>
      </trkpt>
      <trkpt lat="43.52697" lon="5.69008">
        <ele>362.81</ele>
        <time>2018-09-22T10:52:09Z</time>
      </trkpt>
      <trkpt lat="43.52691" lon="5.68978">
        <ele>362.47</ele>
        <time>2018-09-22T10:52:12Z</time>
      </trkpt>
      <trkpt lat="43.52687" lon="5.68947">
        <ele>360.4</ele>
        <time>2018-09-22T10:52:15Z</time>
      </trkpt>
      <trkpt lat="43.52682" lon="5.68913">
        <ele>357.29</ele>
        <time>2018-09-22T10:52:18Z</time>
      </trkpt>
      <trkpt lat="43.52677" lon="5.68877">
        <ele>355.35</ele>
        <time>2018-09-22T10:52:21Z</time>
      </trkpt>
      <trkpt lat="43.52676" lon="5.68843">
        <ele>354.29</ele>
        <time>2018-09-22T10:52:24Z</time>
      </trkpt>
      <trkpt lat="43.52675" lon="5.68815">
        <ele>352.23</ele>
        <time>2018-09-22T10:52:27Z</time>
      </trkpt>
      <trkpt lat="43.52669" lon="5.68791">
        <ele>351.35</ele>
        <time>2018-09-22T10:52:30Z</time>
      </trkpt>
      <trkpt lat="43.52659" lon="5.68768">
        <ele>350.66</ele>
        <time>2018-09-22T10:52:33Z</time>
      </trkpt>
      <trkpt lat="43.52649" lon="5.68742">
        <ele>350.59</ele>
        <time>2018-09-22T10:52:36Z</time>
      </trkpt>
      <trkpt lat="43.52638" lon="5.68717">
        <ele>351.43</ele>
        <time>2018-09-22T10:52:39Z</time>
      </trkpt>
      <trkpt lat="43.52626" lon="5.68691">
        <ele>350</ele>
        <time>2018-09-22T10:52:42Z</time>
      </trkpt>
      <trkpt lat="43.52615" lon="5.68665">
        <ele>350.29</ele>
        <time>2018-09-22T10:52:45Z</time>
      </trkpt>
      <trkpt lat="43.52606" lon="5.68641">
        <ele>350.66</ele>
        <time>2018-09-22T10:52:48Z</time>
      </trkpt>
      <trkpt lat="43.52607" lon="5.68613">
        <ele>350.4</ele>
        <time>2018-09-22T10:52:52Z</time>
      </trkpt>
      <trkpt lat="43.5261" lon="5.68583">
        <ele>352.79</ele>
        <time>2018-09-22T10:52:56Z</time>
      </trkpt>
      <trkpt lat="43.52617" lon="5.68557">
        <ele>355.06</ele>
        <time>2018-09-22T10:53:00Z</time>
      </trkpt>
      <trkpt lat="43.52623" lon="5.6853">
        <ele>356.5</ele>
        <time>2018-09-22T10:53:05Z</time>
      </trkpt>
      <trkpt lat="43.52626" lon="5.68505">
        <ele>356.18</ele>
        <time>2018-09-22T10:53:10Z</time>
      </trkpt>
      <trkpt lat="43.52635" lon="5.68483">
        <ele>356.08</ele>
        <time>2018-09-22T10:53:16Z</time>
      </trkpt>
      <trkpt lat="43.52644" lon="5.68458">
        <ele>357.57</ele>
        <time>2018-09-22T10:53:24Z</time>
      </trkpt>
      <trkpt lat="43.52648" lon="5.68433">
        <ele>358.97</ele>
        <time>2018-09-22T10:53:33Z</time>
      </trkpt>
      <trkpt lat="43.52648" lon="5.68406">
        <ele>359.12</ele>
        <time>2018-09-22T10:53:41Z</time>
      </trkpt>
      <trkpt lat="43.52649" lon="5.68381">
        <ele>359.46</ele>
        <time>2018-09-22T10:53:49Z</time>
      </trkpt>
      <trkpt lat="43.52647" lon="5.68354">
        <ele>359.9</ele>
        <time>2018-09-22T10:53:57Z</time>
      </trkpt>
      <trkpt lat="43.52643" lon="5.68325">
        <ele>359.97</ele>
        <time>2018-09-22T10:54:05Z</time>
      </trkpt>
      <trkpt lat="43.52639" lon="5.68299">
        <ele>360.11</ele>
        <time>2018-09-22T10:54:13Z</time>
      </trkpt>
      <trkpt lat="43.52636" lon="5.68273">
        <ele>359.5</ele>
        <time>2018-09-22T10:54:20Z</time>
      </trkpt>
      <trkpt lat="43.52633" lon="5.68245">
        <ele>359.81</ele>
        <time>2018-09-22T10:54:25Z</time>
      </trkpt>
      <trkpt lat="43.52633" lon="5.68217">
        <ele>359.42</ele>
        <time>2018-09-22T10:54:29Z</time>
      </trkpt>
      <trkpt lat="43.52644" lon="5.68191">
        <ele>357.1</ele>
        <time>2018-09-22T10:54:33Z</time>
      </trkpt>
      <trkpt lat="43.52646" lon="5.68164">
        <ele>354.8</ele>
        <time>2018-09-22T10:54:38Z</time>
      </trkpt>
    </trkseg>
  </trk>
</gpx>